GFSSW_850_spd_000.txt.gz
Wind_Speed
6 5 6 6 4 4 7 9 10 10 9 9 11 13 10 8 8 10 7 8 5 2 3 8 4 6 8 2 6 11 7 8 8 10 6 7 8 7 2 7 3 7 10 10 12
4 4 4 4 5 8 11 13 14 13 12 11 12 11 8 6 8 8 8 7 5 3 11 16 2 5 1 2 7 9 6 14 8 8 10 6 2 8 5 8 9 5 0 2 7
1 2 4 7 10 12 14 15 15 14 14 14 14 10 5 6 4 9 6 5 5 5 9 7 8 2 7 6 9 15 12 4 6 10 9 11 10 4 7 9 14 6 8 4 5
5 6 8 11 14 16 16 16 13 12 13 14 13 3 3 4 3 6 7 6 5 6 10 12 5 5 7 6 4 8 6 7 9 5 6 8 11 9 10 10 5 3 3 4 7
9 10 12 15 17 17 17 15 13 12 12 13 11 5 3 8 8 5 9 9 7 6 7 4 6 9 7 3 2 5 3 2 2 3 4 8 11 7 10 12 3 6 6 9 9
11 13 15 16 17 17 15 14 14 14 13 12 8 2 5 6 4 5 6 6 6 7 7 9 8 6 5 6 8 4 4 2 2 4 7 9 14 12 12 7 5 8 11 11 11
13 13 13 14 16 14 13 13 13 13 11 8 4 5 6 5 4 4 4 5 5 7 9 8 5 7 5 2 3 4 9 13 10 3 9 8 16 16 9 9 9 12 13 14 15
13 14 13 13 12 12 14 13 12 11 10 9 4 1 4 2 3 6 5 4 5 5 6 6 2 1 4 2 6 12 7 7 5 3 2 4 13 6 8 10 13 13 15 16 18
13 14 13 11 11 11 12 11 8 7 5 5 1 5 7 3 2 6 5 5 6 4 6 5 6 5 5 10 10 3 10 11 8 7 1 6 15 16 18 15 17 16 16 17 20
11 13 13 10 9 10 9 8 8 6 3 1 2 2 2 1 3 6 6 8 7 8 9 5 7 8 9 10 9 11 10 11 12 8 9 12 15 13 19 20 17 13 14 15 10
9 10 9 11 11 10 8 3 3 3 6 9 7 7 5 1 3 9 10 8 5 8 5 7 7 8 9 8 9 11 13 15 14 8 15 16 17 15 6 9 10 9 8 7 6
7 8 10 10 10 4 2 5 5 4 4 5 4 5 3 4 4 11 13 6 6 7 7 8 4 6 6 7 9 15 15 12 13 17 15 19 19 13 8 7 6 4 6 6 5
6 9 8 7 4 1 1 0 7 2 5 2 1 4 3 5 4 11 12 8 6 5 5 6 6 6 7 7 10 14 8 13 17 18 15 12 12 10 6 13 8 6 4 4 3
4 7 9 6 2 2 2 5 3 6 4 4 3 2 5 3 0 6 9 5 3 5 7 5 3 6 8 6 10 11 13 16 17 14 10 15 7 4 12 11 10 7 5 4 4
8 4 7 10 2 3 4 3 3 4 2 2 4 2 3 5 8 5 6 2 5 7 4 4 6 8 10 7 9 11 16 19 19 15 9 5 5 10 8 9 11 11 7 4 4
9 6 6 4 4 5 6 2 2 3 0 4 1 2 3 5 4 5 4 2 2 5 3 4 1 3 7 11 14 12 17 19 4 1 3 5 2 10 6 4 5 4 4 7 6
11 8 3 6 6 6 5 1 3 2 2 5 2 2 2 5 2 5 4 11 10 6 5 8 6 4 5 13 11 16 14 4 4 2 3 12 9 11 17 2 3 7 9 5 6
6 8 8 4 4 7 4 3 2 4 3 3 2 1 3 7 5 5 8 4 15 14 10 6 3 3 7 5 7 13 7 2 4 4 9 17 6 6 4 6 6 3 3 11 9
6 9 10 5 5 8 2 1 3 6 5 6 2 4 6 3 3 4 6 7 7 12 8 6 2 8 3 3 5 6 5 5 4 1 1 5 12 15 6 7 10 9 13 6 10
4 2 10 5 8 5 1 3 3 4 5 2 3 2 5 6 6 6 6 7 4 7 9 4 7 9 2 10 14 7 6 3 1 3 5 8 15 10 11 16 20 15 14 18 17
4 3 7 5 5 3 1 2 5 4 6 6 5 2 3 5 5 5 4 8 8 9 12 8 3 8 13 2 10 3 6 4 7 5 4 6 6 12 22 21 10 16 22 22 16
2 1 6 3 3 3 2 3 1 4 3 4 4 6 5 5 5 5 5 6 7 10 8 6 3 5 18 17 3 5 9 8 2 8 9 10 13 18 9 5 29 24 18 18 18
4 6 8 4 1 1 5 4 5 1 5 3 3 4 3 4 3 4 5 3 7 7 7 9 2 5 8 6 2 14 19 18 14 2 8 6 9 12 26 26 26 23 22 23 19
2 2 4 3 3 6 5 4 3 4 3 3 2 2 2 4 1 4 7 4 1 6 1 3 6 6 8 15 18 18 22 24 19 12 15 14 27 21 19 19 20 19 21 22 25
2 2 2 1 2 5 3 1 4 2 1 2 1 1 3 3 6 4 5 9 10 0 1 2 5 11 17 19 20 23 24 24 23 20 18 23 22 22 19 20 17 21 23 28 31
6 4 1 3 2 2 2 2 3 4 3 3 4 5 4 4 4 11 13 11 8 12 5 4 4 3 9 19 20 20 23 26 25 21 21 20 21 16 26 22 23 29 31 30 22
3 3 3 3 3 2 2 2 1 4 2 3 7 9 6 8 11 12 16 19 21 17 15 14 3 2 7 10 12 11 15 15 13 17 17 15 21 19 16 18 22 31 30 19 25

GFSSW_850_spd_003.txt.gz
Wind_Speed
7 8 7 8 7 6 7 10 11 11 10 12 14 13 12 10 12 11 12 8 3 6 10 13 8 4 8 12 12 15 4 3 6 7 4 1 7 5 5 1 4 6 13 10 17
6 5 6 5 5 7 10 12 13 13 13 13 13 10 9 8 10 10 8 8 5 7 10 12 13 16 5 5 8 10 5 5 5 7 6 12 10 3 4 10 2 11 14 19 15
2 2 3 4 7 10 13 14 14 13 14 15 11 8 7 9 5 11 7 5 7 12 14 13 12 14 3 5 9 6 4 5 11 14 11 11 11 6 0 3 9 9 17 14 14
1 3 5 9 11 13 15 15 13 12 14 16 9 6 8 7 4 7 10 10 11 11 14 19 18 8 5 3 4 6 9 9 6 7 5 5 7 8 7 5 5 5 10 12 10
7 9 10 13 14 15 14 12 10 10 12 13 6 4 6 9 8 6 7 10 11 17 11 17 15 11 5 4 8 4 4 2 6 7 9 7 9 10 10 10 6 4 6 5 7
10 11 14 15 15 14 12 11 9 9 10 9 5 4 7 0 3 6 9 9 9 13 9 9 9 10 9 4 3 3 7 3 7 9 8 6 9 12 17 14 10 7 9 10 10
13 14 15 16 14 13 13 14 14 11 9 6 1 6 4 3 6 4 3 8 5 9 9 6 4 10 5 1 2 9 5 7 9 14 4 2 8 5 21 15 13 12 15 14 14
14 15 14 13 11 11 12 11 11 8 6 3 2 3 2 4 3 6 6 1 7 4 4 5 4 8 3 7 4 3 2 2 10 11 6 7 8 7 15 19 19 18 17 18 18
13 14 13 11 11 11 11 9 8 7 3 2 4 4 3 3 3 1 6 7 9 10 11 11 7 6 1 2 4 6 4 7 8 10 3 5 7 12 20 16 24 24 20 20 19
11 12 12 10 10 10 8 8 8 6 2 5 9 6 2 2 2 7 6 8 11 11 15 12 8 2 5 7 3 6 6 6 4 4 6 7 7 8 21 13 16 7 10 3 5
10 10 9 10 9 7 5 1 2 2 2 7 8 8 7 1 6 6 9 7 11 13 4 4 6 3 4 4 3 6 7 5 5 10 10 8 10 11 2 19 20 18 16 12 9
8 8 9 9 8 4 3 2 2 2 1 2 4 5 3 4 5 16 13 9 6 5 5 7 4 3 5 9 7 7 6 6 4 11 8 10 15 8 9 10 16 16 14 11 8
8 8 8 7 3 1 4 2 5 3 2 4 2 1 2 6 3 8 13 8 4 6 7 3 2 6 6 6 8 5 5 6 7 10 11 4 9 7 4 17 15 11 7 8 8
6 10 9 7 2 2 5 2 4 7 3 4 5 1 3 2 1 5 12 4 5 3 5 2 2 6 7 3 6 5 7 9 11 7 3 4 4 5 6 7 8 13 14 15 10
5 7 11 9 4 4 0 0 4 4 4 1 3 1 0 5 9 3 9 2 3 5 3 4 2 4 5 4 4 7 5 12 14 9 2 7 3 5 6 4 6 12 15 12 8
7 7 8 9 5 3 3 3 4 6 2 2 1 2 2 6 3 9 10 8 4 5 3 5 4 4 1 8 5 7 7 11 5 3 3 6 5 5 3 4 5 10 13 12 7
9 7 4 6 4 5 4 2 4 5 2 3 3 4 3 4 4 3 7 13 6 6 6 7 4 3 3 5 7 12 6 4 6 4 4 12 6 8 9 6 10 10 9 4 4
9 9 9 3 5 7 3 4 3 6 6 2 3 3 3 5 1 5 5 4 9 7 3 4 6 6 7 3 4 5 3 4 2 1 5 9 3 5 9 21 11 2 7 15 16
8 12 11 5 7 7 1 4 5 3 5 6 2 3 3 1 2 4 6 5 5 7 5 6 4 8 3 1 3 6 4 2 2 2 3 4 7 9 7 11 15 23 11 8 6
6 3 10 6 11 3 4 0 4 8 9 4 4 5 5 6 7 5 5 5 2 10 13 4 5 5 6 5 5 4 0 5 3 2 3 4 6 6 10 14 10 3 7 7 16
4 3 6 8 3 2 3 3 5 5 7 6 7 5 6 5 5 4 5 5 9 8 15 6 3 8 6 1 4 2 4 2 2 1 3 3 5 5 13 9 12 23 18 12 8
4 4 4 3 3 4 2 4 3 2 5 3 7 6 5 6 5 6 4 4 6 10 4 3 2 3 9 15 9 6 7 6 3 5 4 3 8 13 9 13 33 15 16 17 20
6 5 7 6 3 2 4 4 9 8 7 6 3 5 4 3 3 6 2 5 5 3 3 2 3 3 8 6 7 6 15 12 6 0 7 4 9 7 21 21 8 19 20 22 25
3 3 4 3 4 6 4 4 4 5 4 4 2 2 4 6 6 4 5 5 5 3 6 4 2 5 5 6 5 10 19 21 11 2 8 9 17 14 12 7 15 18 21 23 17
4 2 2 1 6 11 8 4 6 4 2 2 1 1 4 3 5 3 6 7 12 6 5 6 5 6 8 7 10 14 19 20 15 17 12 23 18 12 8 6 12 18 23 21 15
4 4 4 5 8 9 6 5 6 5 5 3 4 8 8 3 2 4 5 5 4 4 5 2 6 2 6 11 10 8 20 21 19 14 10 14 19 7 13 22 22 22 24 20 22
4 5 2 4 4 4 3 3 5 6 4 2 5 3 5 1 4 6 9 13 17 9 5 5 3 2 15 4 5 7 13 4 6 14 13 8 4 19 18 24 22 24 18 19 27

GFSSW_850_spd_006.txt.gz
Wind_Speed
8 8 9 7 7 6 7 9 11 11 10 11 12 11 11 10 9 8 8 8 8 11 14 15 7 10 10 6 4 4 5 3 3 4 2 8 4 7 5 3 3 4 8 4 20
6 6 6 6 5 7 9 13 13 12 12 11 13 8 9 8 12 10 8 9 11 15 17 23 25 20 4 7 10 8 4 1 3 5 1 3 6 2 2 9 10 12 11 18 17
2 2 3 4 5 8 12 14 14 12 12 14 10 7 8 4 8 9 8 9 13 18 20 22 20 9 5 8 5 3 2 3 3 4 4 4 7 4 4 3 8 18 19 19 14
3 4 5 7 11 13 14 14 13 11 15 13 7 9 8 6 3 5 10 15 14 18 15 20 19 9 6 5 4 4 3 4 2 1 2 2 4 5 1 3 6 11 14 19 18
7 9 11 13 14 15 15 13 11 11 14 7 4 6 8 7 8 8 11 13 12 16 16 15 18 10 4 2 5 3 2 2 4 5 5 4 4 5 8 9 11 12 19 19 17
11 14 16 17 16 14 12 12 11 11 9 3 2 6 5 4 7 9 11 13 11 11 14 10 12 14 4 4 3 3 5 5 10 9 8 5 5 1 13 7 15 16 20 17 14
15 17 17 16 14 13 13 13 11 9 8 6 3 6 4 3 5 9 5 6 6 9 12 11 10 11 10 5 4 4 4 7 12 6 4 5 3 5 6 9 18 22 18 16 15
14 15 15 14 13 14 14 14 13 12 8 3 4 5 0 3 4 6 9 3 7 5 8 7 11 11 5 7 5 3 4 4 6 8 4 3 7 10 12 8 22 25 20 15 16
15 15 14 13 13 13 14 11 10 7 3 2 4 4 2 2 5 4 8 11 7 6 8 11 12 3 3 4 5 6 4 4 9 6 4 3 7 11 18 9 26 24 20 19 19
14 14 13 13 12 11 11 8 6 3 3 5 5 2 2 1 3 7 11 12 10 15 14 3 3 3 5 5 1 4 5 6 1 6 5 5 8 9 9 6 21 25 18 8 8
12 12 12 11 9 9 7 3 1 1 4 4 6 5 4 1 6 10 13 6 8 8 3 4 6 2 4 2 4 1 3 3 4 3 7 6 8 13 6 17 19 20 22 18 15
10 10 10 10 9 6 5 4 4 2 3 4 6 6 3 6 3 10 13 1 4 3 5 7 3 2 5 5 4 6 3 4 6 6 3 9 11 7 7 6 20 23 21 17 15
8 8 8 8 4 3 8 4 7 3 1 1 1 2 3 4 3 9 12 4 2 5 4 5 2 3 5 6 7 3 2 4 6 7 3 5 6 6 3 10 16 15 15 11 6
9 9 8 6 4 3 4 5 4 5 4 2 2 1 3 1 2 7 10 4 5 2 2 1 3 4 6 2 3 4 4 5 6 4 2 4 3 4 3 2 2 8 12 11 9
8 11 10 8 5 4 2 2 4 2 5 3 0 1 3 3 3 7 8 2 2 4 5 4 2 4 4 3 3 7 7 8 4 4 3 9 3 6 4 4 6 5 12 11 9
6 10 12 11 6 3 3 2 2 6 1 2 1 1 1 3 4 7 16 6 5 4 3 3 2 3 1 4 1 6 6 5 4 3 3 3 1 4 5 5 5 7 8 7 6
7 7 9 9 7 5 5 1 4 5 2 2 1 2 3 4 5 5 5 11 5 6 7 6 4 4 3 5 7 8 6 4 5 5 4 5 4 2 1 7 10 10 8 5 1
9 7 6 8 7 7 3 5 6 4 3 1 1 1 2 2 2 5 4 5 7 5 3 5 7 7 6 2 2 4 5 4 1 0 5 7 1 3 5 4 6 10 12 9 3
9 10 7 5 10 5 1 5 5 4 3 4 3 3 3 5 3 5 4 3 6 7 4 5 4 5 4 5 2 4 4 1 5 2 3 5 5 8 4 8 9 5 9 10 7
6 9 8 7 9 2 4 3 2 2 3 4 3 4 3 5 4 3 4 5 3 8 2 3 4 2 6 6 3 3 1 5 4 2 3 5 6 5 7 13 14 5 2 9 14
4 3 5 6 2 2 4 2 2 3 3 4 4 4 4 3 4 3 3 3 3 5 9 2 2 7 4 3 2 5 4 3 1 4 3 2 6 4 11 10 11 7 11 12 9
3 4 3 4 3 3 2 2 3 3 5 5 5 4 3 4 4 3 2 3 1 2 2 3 4 3 5 8 2 2 3 5 3 5 3 3 10 14 7 19 8 10 9 13 12
4 4 5 5 3 2 2 4 7 4 6 4 3 4 3 3 3 3 2 4 4 2 3 0 2 3 7 6 8 4 8 4 3 2 6 3 6 10 27 10 11 12 14 10 3
3 3 4 7 3 6 4 2 3 6 5 5 2 4 5 4 5 1 6 4 2 2 5 4 3 6 5 6 3 9 15 11 4 3 5 13 16 19 12 7 7 9 10 13 15
4 2 2 2 6 8 4 1 4 2 3 4 5 6 3 2 4 2 3 5 7 1 1 4 5 4 7 8 5 16 17 16 11 14 6 10 10 12 4 2 8 11 11 16 16
4 3 4 4 3 6 6 3 2 4 3 3 5 2 6 3 3 2 1 0 5 3 2 3 4 4 11 7 8 17 15 13 13 14 9 9 14 2 12 11 15 16 23 23 18
8 7 3 3 2 4 2 2 2 6 4 7 6 4 4 1 4 5 7 8 13 6 3 2 3 2 6 5 5 10 8 6 5 7 7 6 6 5 6 13 19 28 29 23 24

GFSSW_850_spd_009.txt.gz
Wind_Speed
9 8 9 7 8 6 8 9 11 9 11 10 9 9 5 6 7 6 9 10 14 18 18 13 7 5 6 4 4 4 5 3 1 1 4 4 2 6 8 8 2 0 3 7 22
6 7 6 6 7 8 10 12 10 11 11 12 10 7 5 6 10 12 11 16 18 19 17 18 11 11 5 7 5 7 5 6 2 3 3 3 4 2 4 6 4 6 6 18 23
2 4 5 6 8 10 13 12 13 11 13 10 7 7 3 3 10 12 16 19 20 15 17 19 9 9 8 8 6 2 4 4 4 5 4 2 1 1 7 2 9 13 16 23 22
2 5 6 9 11 14 14 14 11 13 11 8 7 9 8 2 4 11 14 14 17 15 14 16 20 8 5 5 6 6 1 4 2 4 3 2 1 1 2 4 9 12 12 21 20
6 8 11 13 16 15 15 12 11 10 9 7 7 7 7 10 7 10 10 11 11 13 15 18 23 8 5 3 3 4 2 2 3 2 3 2 5 4 8 6 11 13 19 19 17
11 15 17 18 17 16 13 11 10 10 7 6 6 4 4 6 10 12 9 10 8 13 17 17 11 7 4 3 2 2 4 7 5 9 5 2 4 3 5 9 15 19 23 19 17
15 18 18 17 15 13 13 12 11 8 7 6 6 5 6 5 8 10 12 7 8 11 11 12 13 12 8 4 7 3 5 6 3 6 5 3 5 6 7 4 18 21 23 23 20
17 17 17 16 15 14 14 14 13 11 7 5 7 5 4 6 6 6 9 5 6 7 9 9 11 9 5 4 5 5 5 6 7 1 3 3 9 12 4 9 16 23 25 24 21
16 16 15 14 13 13 13 12 11 8 4 3 4 5 2 4 7 9 12 16 6 5 8 6 6 4 4 4 5 7 1 3 5 7 4 3 8 14 13 16 18 20 26 23 18
14 15 15 14 12 11 9 9 9 7 4 3 5 3 5 7 8 11 16 9 7 13 6 6 3 4 5 6 1 3 3 4 3 6 7 5 9 11 14 12 15 12 17 16 13
12 13 13 13 12 11 7 10 5 4 9 5 5 4 4 6 6 11 16 6 7 6 5 5 6 2 2 1 4 1 2 2 4 3 7 5 9 12 16 1 4 8 16 15 13
11 12 12 11 10 9 9 7 6 4 4 5 7 4 6 7 6 15 13 4 6 3 3 6 2 1 4 5 4 2 2 4 5 5 3 7 9 8 9 5 4 21 21 18 14
10 10 11 10 8 7 8 9 7 3 3 2 3 4 4 5 4 9 14 4 4 4 4 5 1 4 3 5 6 4 2 3 5 7 1 6 6 6 5 9 9 13 14 14 14
10 10 10 7 6 7 10 7 3 1 5 6 4 3 5 3 5 10 9 4 6 2 1 1 2 3 5 3 1 4 2 2 6 4 2 4 3 5 4 2 3 4 8 11 11
11 11 10 8 6 6 6 3 3 0 5 4 1 1 4 2 3 10 9 1 2 3 5 2 3 6 6 4 2 6 7 4 2 3 2 8 4 6 5 2 0 3 8 7 4
10 12 10 8 7 5 4 1 1 6 0 2 1 1 3 5 5 9 17 5 5 4 5 4 3 3 2 3 4 8 4 5 4 2 2 1 2 6 4 4 1 4 8 7 6
7 10 11 10 6 4 4 2 5 6 2 1 1 3 3 4 6 5 5 11 5 5 6 6 4 5 4 5 6 8 6 4 5 5 4 1 2 6 4 4 2 2 2 4 3
8 7 8 8 7 6 4 5 6 3 1 3 3 3 4 5 5 6 3 5 6 5 3 4 6 5 6 1 2 3 3 4 3 1 5 6 3 4 1 4 8 6 5 4 4
8 9 7 7 7 5 2 5 6 6 2 2 3 4 5 5 3 4 4 3 3 5 3 4 4 4 1 3 1 3 4 2 6 2 3 4 5 5 5 6 8 7 15 3 2
8 12 10 7 6 2 5 2 1 1 1 2 3 1 2 5 4 4 3 3 3 7 2 3 4 2 6 3 6 5 2 4 4 3 3 5 6 5 4 8 14 10 7 8 8
4 4 6 5 2 3 4 4 2 4 2 3 2 3 2 1 3 2 0 2 2 3 8 2 2 6 3 5 1 5 4 5 3 3 2 3 6 5 6 7 11 7 9 6 3
3 4 3 2 4 3 2 2 2 5 8 6 4 3 3 3 4 3 2 2 1 1 2 2 3 3 3 7 4 4 5 4 3 4 3 2 7 3 2 10 7 4 10 12 10
4 4 7 2 3 2 1 4 5 4 5 3 3 3 4 2 3 2 2 3 3 3 1 2 2 3 7 6 4 3 3 3 4 3 6 3 5 3 22 11 3 8 12 14 16
3 3 6 6 6 5 4 2 3 5 4 6 4 6 4 5 6 2 5 5 8 3 1 2 2 6 5 6 5 10 5 3 5 3 4 11 18 16 10 4 11 18 18 19 24
3 2 2 1 5 4 3 2 3 2 3 7 6 4 3 2 3 2 3 5 5 3 3 3 2 3 6 7 6 14 13 16 9 11 6 9 10 13 6 5 12 18 20 23 27
3 4 4 4 2 3 5 1 4 2 2 2 6 1 4 3 4 2 1 1 4 3 3 2 3 3 4 6 10 15 14 11 14 11 8 10 10 6 4 9 14 21 24 24 25
7 8 4 3 3 4 2 1 2 5 5 5 10 4 2 4 4 5 8 8 9 4 4 2 4 2 5 6 9 7 7 4 3 5 5 5 7 2 6 15 20 25 28 25 31

GFSSW_850_spd_012.txt.gz
Wind_Speed
11 10 10 8 7 7 8 8 8 8 7 10 8 7 5 6 10 14 17 15 16 13 10 4 2 6 11 8 6 5 5 2 2 3 2 2 2 2 3 6 3 3 8 6 22
9 8 8 7 7 8 9 9 10 9 10 10 7 7 4 9 16 19 17 19 16 14 13 8 12 13 9 5 5 6 5 3 3 3 0 3 2 3 2 2 1 3 4 15 23
5 5 6 6 8 9 10 11 11 12 13 8 7 6 2 8 12 14 15 16 17 14 18 11 15 15 9 12 6 3 4 3 2 2 1 2 2 1 10 2 9 11 13 20 22
3 5 6 8 10 11 13 13 12 15 11 7 8 6 3 3 4 11 12 13 14 13 15 14 17 10 6 5 5 6 4 3 2 3 3 2 2 2 8 6 7 9 14 20 21
4 7 8 10 13 14 15 14 15 13 8 6 6 4 8 10 8 14 10 10 12 13 17 17 17 6 4 4 4 4 2 4 3 5 4 3 3 4 13 9 7 10 16 21 18
8 11 14 16 17 16 15 13 13 11 7 6 6 7 8 9 12 13 10 6 8 14 16 18 12 6 8 4 5 2 2 3 2 2 2 2 3 3 4 4 11 13 18 21 18
15 17 18 17 16 15 14 14 12 9 8 8 8 8 12 8 10 13 11 8 7 11 13 13 13 8 2 3 7 4 4 6 9 5 2 1 5 6 9 7 8 16 20 22 18
16 16 16 16 15 14 14 13 11 10 7 8 9 9 7 8 8 9 13 3 4 8 8 8 10 8 6 3 7 6 6 5 6 4 5 3 8 13 8 6 17 14 20 24 21
14 16 16 16 16 15 14 12 11 9 6 7 8 7 4 6 11 13 19 9 6 8 7 6 6 6 7 5 5 7 1 2 7 6 5 3 8 12 13 20 23 12 20 24 23
15 16 17 16 14 12 12 12 12 7 6 7 10 6 9 9 11 12 10 8 6 6 5 7 6 5 5 6 1 2 2 3 2 5 7 5 7 9 19 12 16 10 11 22 18
14 16 16 14 12 11 12 13 6 6 14 10 6 4 6 6 13 17 9 7 8 10 5 7 7 3 3 1 1 1 1 3 3 2 5 3 6 9 15 10 6 1 8 10 9
13 15 14 12 11 12 10 8 8 5 8 9 9 7 9 10 10 22 13 6 8 3 2 6 4 1 6 5 4 3 2 4 5 3 0 5 8 6 11 7 8 11 14 15 14
12 13 13 11 10 9 8 13 8 5 5 6 7 6 5 7 8 15 14 5 6 5 5 5 1 5 4 5 6 4 2 3 5 6 1 6 4 6 4 11 13 11 10 12 11
11 11 10 9 7 12 12 8 6 3 5 7 5 4 6 3 5 18 11 5 6 3 2 3 4 5 5 4 2 3 2 2 5 2 1 4 2 5 6 3 7 5 6 8 7
11 10 9 7 8 9 9 5 3 2 5 4 4 3 6 6 2 17 12 5 4 4 4 1 3 5 6 2 1 7 4 2 1 3 3 8 4 6 6 4 2 2 7 5 6
11 10 9 7 8 8 6 3 2 7 0 2 2 4 4 10 6 9 16 8 7 5 6 2 2 3 2 3 2 6 4 5 4 2 3 3 3 5 3 4 4 4 1 4 5
11 11 10 8 6 5 4 2 5 6 3 2 2 3 5 6 5 7 7 9 4 4 6 6 3 6 4 5 6 9 6 3 5 5 3 3 1 5 6 4 2 1 8 9 7
8 9 10 8 4 5 4 5 6 3 1 1 2 4 4 3 4 6 3 5 5 5 3 4 5 5 6 1 2 3 4 4 2 1 4 5 3 3 3 15 22 20 17 12 9
9 9 9 8 7 6 2 5 6 5 1 2 3 4 3 3 4 4 4 2 3 4 3 4 3 5 1 3 1 2 4 2 5 2 3 3 5 5 3 8 16 13 9 8 8
11 12 10 9 7 4 5 3 1 3 1 2 3 1 2 5 3 4 2 1 2 5 0 1 2 1 4 1 8 6 4 4 3 2 3 5 5 4 6 8 7 7 8 9 7
3 5 6 7 5 3 4 4 2 4 3 3 2 3 3 2 3 2 1 2 1 2 7 2 2 5 1 5 1 4 3 5 4 3 3 3 6 5 4 4 5 4 8 11 9
2 4 3 4 4 3 2 1 2 3 7 5 5 3 3 3 4 2 2 2 5 3 3 2 4 3 4 1 1 2 3 4 4 3 1 3 6 4 7 1 4 1 8 13 14
4 4 6 3 3 2 0 3 5 3 5 3 3 4 4 3 4 3 3 3 5 3 2 1 2 4 8 5 5 4 1 4 5 3 6 3 6 0 14 16 2 6 11 18 24
3 2 5 6 6 6 4 2 3 6 6 8 4 5 5 5 6 2 2 3 6 3 5 3 2 5 5 7 5 5 4 4 5 3 4 11 17 19 15 9 13 14 17 23 29
3 2 2 0 4 5 4 2 3 3 4 6 5 4 4 3 3 2 2 4 4 3 3 4 2 4 6 9 8 11 11 8 8 8 6 15 8 12 11 8 8 17 26 27 30
3 5 5 5 3 4 5 1 3 2 3 2 6 2 3 4 4 3 3 2 5 2 2 3 3 1 4 4 5 7 11 11 9 7 11 14 15 12 7 5 17 28 29 27 30
4 8 4 3 3 4 2 3 4 7 5 4 12 4 3 4 4 3 6 5 2 1 2 0 3 2 5 4 9 6 4 4 3 6 5 6 9 2 3 14 22 27 27 29 20

GFSSW_850_spd_015.txt.gz
Wind_Speed
12 11 11 10 10 10 9 8 9 10 10 10 7 6 8 11 13 14 15 14 11 6 4 2 4 10 10 9 5 5 4 3 4 5 3 1 3 2 4 7 3 5 7 8 22
9 10 9 10 11 11 9 10 12 12 13 10 5 6 10 14 13 16 14 14 12 8 5 6 10 8 6 4 4 5 3 3 2 3 3 2 3 4 3 3 3 5 7 14 22
7 8 10 11 11 10 11 13 15 15 13 8 6 6 11 10 11 15 13 14 12 11 14 14 17 18 11 8 5 3 4 4 2 4 4 3 3 2 6 1 6 9 10 17 24
7 8 10 11 11 12 15 17 17 16 11 6 7 7 6 2 4 10 9 9 12 13 16 10 13 11 6 5 5 6 4 4 5 5 5 3 2 1 7 3 3 5 9 17 21
6 8 10 11 13 16 18 18 18 14 9 6 6 8 11 13 10 11 6 7 9 10 14 14 13 9 4 4 5 5 2 3 3 7 3 4 2 2 8 10 7 10 13 15 16
7 9 12 15 18 19 19 18 16 12 9 8 7 11 11 14 11 10 6 3 8 11 13 11 8 13 8 4 4 3 4 3 4 2 2 1 1 1 1 2 9 9 15 18 18
11 14 17 19 19 19 19 18 15 12 10 8 9 14 15 6 9 7 7 4 7 9 11 10 12 5 4 3 5 4 4 2 12 6 4 2 2 3 5 7 1 6 15 22 21
15 16 17 17 18 19 20 18 15 13 10 10 11 10 7 9 8 7 6 5 6 6 9 10 10 16 6 5 6 5 4 4 4 8 4 2 5 7 7 8 12 11 11 21 24
15 17 17 17 17 19 18 16 14 10 7 8 8 7 3 6 10 10 8 8 8 10 10 8 11 10 8 3 4 8 3 3 4 4 5 5 5 6 19 14 15 10 7 17 23
17 18 18 17 17 18 17 15 11 7 5 9 8 7 7 7 15 8 8 9 7 7 6 9 8 5 5 5 1 0 1 1 3 5 6 3 7 11 15 6 5 5 3 12 19
17 17 17 15 15 16 16 13 8 9 15 10 8 11 9 8 17 13 8 10 10 10 4 8 8 4 2 1 3 3 2 3 3 2 5 3 6 8 13 12 10 8 8 10 9
16 16 15 14 15 14 12 9 7 9 10 12 11 10 12 13 9 19 11 5 7 4 2 6 4 1 4 4 2 1 2 1 3 1 1 5 5 4 12 9 8 9 12 12 13
14 15 13 13 12 12 11 11 10 7 6 9 10 10 6 12 11 17 11 5 7 5 5 5 1 2 1 4 5 1 2 2 3 7 1 4 2 7 5 8 11 11 12 13 12
13 13 11 10 10 13 13 10 7 4 5 8 6 6 8 3 6 17 9 4 6 3 3 5 4 3 3 3 2 3 2 4 4 1 1 4 3 5 6 4 6 5 6 4 4
11 11 9 6 9 9 10 6 4 1 5 4 5 4 12 9 2 20 11 11 4 3 2 0 2 4 5 2 1 3 2 1 1 3 2 5 1 4 4 6 6 10 7 6 6
11 10 8 7 8 10 8 4 2 6 1 2 3 4 6 12 7 9 9 11 5 5 5 2 2 3 2 2 1 4 2 3 3 2 1 1 2 4 5 5 5 7 15 11 6
12 11 9 7 9 7 5 2 5 5 3 1 3 4 5 5 5 7 6 9 4 3 5 5 3 5 4 4 3 8 3 1 2 2 1 2 1 4 9 8 6 9 11 12 9
12 11 10 9 7 7 4 5 6 3 2 1 3 4 4 3 4 6 3 5 5 4 3 3 1 4 5 2 2 4 2 2 1 2 4 2 4 6 8 9 14 11 12 12 12
12 11 10 8 6 7 2 5 6 5 2 4 3 4 2 2 4 4 4 2 3 4 3 2 2 3 4 3 1 1 4 1 5 1 1 3 1 3 7 9 11 9 10 11 10
10 11 10 10 9 7 5 3 1 4 2 2 3 1 3 3 3 3 2 2 1 6 1 1 2 2 3 1 8 3 4 1 3 2 2 4 4 3 3 5 5 6 5 7 7
6 5 5 9 8 3 4 3 3 2 2 3 3 3 3 3 3 2 1 3 3 2 6 1 1 2 0 4 1 2 2 5 4 1 1 3 5 4 6 0 5 5 1 5 8
3 4 5 9 4 3 3 5 4 2 5 4 5 4 3 3 3 3 3 1 3 1 2 1 2 2 2 2 1 2 3 3 2 2 1 1 7 2 7 2 7 8 1 8 15
4 5 5 7 3 1 1 3 4 2 4 3 3 3 3 3 4 2 3 1 5 2 1 2 2 3 2 2 2 2 2 4 4 2 7 3 6 0 6 14 11 11 10 18 26
4 2 3 4 6 7 5 2 4 6 5 7 4 4 4 4 5 3 2 1 3 2 3 2 2 4 4 4 2 5 4 4 4 3 4 12 19 21 18 13 14 9 15 21 25
2 2 3 1 3 6 4 3 4 3 4 4 4 3 5 3 2 2 1 2 2 2 2 3 3 3 5 9 5 8 13 10 12 12 7 13 15 18 14 10 4 13 21 21 21
3 5 6 4 4 5 4 1 4 3 2 2 6 2 3 4 4 4 3 2 3 2 2 2 2 1 4 6 5 9 12 11 12 14 13 18 19 17 9 4 10 18 19 18 15
4 8 4 3 2 4 2 4 5 8 6 4 13 5 4 4 5 3 4 3 2 3 2 1 3 1 3 5 9 6 3 4 3 6 4 5 6 2 4 9 17 22 15 10 7

GFSSW_850_spd_018.txt.gz
Wind_Speed
14 13 12 13 13 11 11 10 10 12 10 11 8 6 9 11 10 10 6 6 6 3 3 1 2 7 8 5 4 2 6 8 8 8 9 8 7 4 2 8 3 3 4 9 19
11 12 11 12 13 12 10 11 13 13 13 11 7 9 15 13 10 9 10 9 6 3 3 7 11 8 6 4 2 2 6 5 3 5 10 8 4 6 5 6 5 7 5 13 20
10 10 11 13 11 11 11 13 16 15 13 10 8 13 13 9 5 8 8 11 7 5 11 13 13 7 8 6 2 3 8 9 7 7 6 7 6 4 5 6 7 8 10 16 18
9 10 10 10 10 12 15 17 17 16 12 9 9 12 9 2 3 4 7 9 9 13 14 9 6 6 5 8 8 11 9 5 6 6 5 6 4 4 6 7 4 5 9 15 18
8 7 8 10 12 15 19 19 19 14 10 8 10 12 10 7 6 3 5 6 9 9 8 8 8 8 8 12 14 13 9 7 5 7 4 2 3 2 4 5 4 8 11 13 13
7 8 10 13 16 20 20 21 18 12 9 8 11 12 8 8 6 7 2 4 6 5 5 4 3 9 10 6 2 7 7 5 4 5 2 4 2 3 5 3 6 8 10 13 12
8 10 14 17 21 22 22 21 16 12 9 10 12 12 7 5 6 5 1 2 4 6 5 8 8 2 6 9 5 10 10 6 6 3 2 3 8 6 4 1 3 6 10 13 15
13 16 19 21 22 22 22 18 15 12 10 12 16 10 6 5 3 2 4 6 6 6 8 11 12 8 3 8 5 4 4 6 7 2 2 5 8 7 4 6 8 8 7 15 18
16 17 19 20 22 23 21 18 14 10 10 12 11 6 6 3 1 2 10 7 7 9 9 9 8 6 4 7 7 2 2 2 6 4 4 3 3 4 9 10 12 12 10 14 18
16 17 19 20 22 21 19 15 11 10 11 9 7 8 3 4 4 6 9 10 6 8 5 2 3 4 3 4 1 2 2 2 3 4 5 4 4 5 11 8 3 4 7 11 15
17 18 18 19 19 19 18 16 9 7 8 5 7 9 5 3 11 5 9 8 5 4 2 5 2 6 8 7 5 1 2 3 1 3 9 1 3 8 10 9 8 6 6 9 11
17 16 17 18 18 18 14 5 8 13 12 10 10 10 13 9 8 11 5 2 2 4 3 4 7 5 5 5 1 2 3 1 1 1 5 3 3 7 11 12 10 11 12 12 12
16 16 14 16 15 13 11 10 16 10 8 7 8 5 3 10 10 11 7 5 7 7 4 3 6 3 0 4 4 1 2 4 5 6 3 3 6 5 7 11 13 14 14 14 12
13 11 12 14 12 15 12 12 11 6 3 3 2 4 3 2 5 10 6 2 3 8 7 7 3 2 2 4 6 2 2 9 7 6 3 2 4 6 4 9 10 10 10 10 10
13 11 10 7 13 8 11 9 8 2 3 1 4 4 8 4 1 12 8 7 6 5 4 4 4 3 4 4 5 5 7 6 3 5 4 3 6 7 4 7 7 11 10 10 8
13 11 8 8 10 11 8 6 4 2 3 3 1 5 7 12 6 5 7 9 4 7 9 6 3 3 5 2 2 5 4 1 1 2 4 1 5 6 2 3 5 8 11 11 10
14 12 9 8 9 11 7 4 4 2 1 6 6 5 7 6 7 10 13 11 4 2 2 3 4 2 7 4 4 8 3 2 2 4 1 1 5 8 6 6 8 10 11 11 10
15 12 10 9 10 9 7 2 3 2 1 3 5 8 4 3 6 6 4 9 13 6 3 3 4 8 9 5 6 6 6 3 3 2 2 3 3 7 8 9 10 9 9 8 8
16 13 11 10 9 9 4 2 3 4 4 7 8 5 4 4 2 3 7 5 8 10 4 3 3 4 7 5 4 3 3 2 2 1 3 1 3 8 9 5 7 8 7 5 2
15 13 11 10 9 7 1 2 2 1 2 3 4 1 4 4 3 2 2 3 2 7 4 2 2 2 1 3 8 4 3 2 2 3 3 2 4 6 13 11 3 9 8 4 3
14 7 8 11 10 2 2 3 4 2 1 2 4 4 4 4 4 3 3 3 2 3 5 3 2 2 3 3 3 2 2 2 2 2 3 4 5 4 2 1 4 12 6 6 6
5 4 10 12 4 2 4 4 3 4 3 4 5 5 4 3 3 3 4 3 2 1 2 4 1 2 1 2 2 1 2 1 2 2 2 4 7 3 2 5 5 9 4 5 9
4 5 6 9 3 3 4 4 4 3 3 3 3 2 3 4 4 5 3 2 1 1 2 1 0 2 3 5 4 5 4 2 1 1 9 4 4 3 3 9 11 11 5 8 15
4 3 2 2 3 10 10 6 5 6 4 6 5 7 7 5 3 6 5 3 1 2 2 1 2 4 5 7 5 6 9 7 9 4 7 12 17 17 12 13 14 5 8 15 17
2 2 3 3 4 10 5 6 11 5 3 3 4 3 5 4 4 4 3 4 2 3 1 2 3 4 8 12 13 11 14 13 15 15 10 14 16 14 14 13 11 7 16 21 20
4 5 4 4 7 10 1 6 9 6 2 4 7 7 4 5 2 5 4 3 2 4 2 1 1 3 4 8 9 12 15 14 13 14 15 16 16 9 10 8 6 16 22 21 13
4 9 5 1 3 3 3 6 8 9 5 4 15 10 8 8 6 6 5 5 2 1 2 1 1 1 4 9 12 6 2 5 5 4 8 9 10 10 6 10 16 21 19 10 8

GFSSW_850_spd_021.txt.gz
Wind_Speed
16 15 14 15 15 14 12 12 11 10 10 10 9 6 9 6 5 4 0 3 4 5 5 5 5 6 6 4 4 5 6 8 6 8 8 8 8 2 2 9 2 3 9 18 18
15 14 14 14 14 12 12 11 11 12 12 11 8 9 10 7 4 2 2 4 2 5 5 6 9 10 7 5 7 11 3 11 6 5 9 8 5 7 8 9 9 8 8 16 17
14 13 12 12 11 11 11 12 13 14 14 10 9 14 11 5 4 8 5 7 2 4 4 5 8 7 7 10 6 4 9 8 5 1 9 9 4 4 5 7 9 13 12 16 16
12 12 10 10 10 11 12 15 16 16 13 9 11 14 9 3 2 3 5 9 4 9 5 6 9 8 11 7 6 5 8 5 7 5 1 6 8 4 5 12 7 6 12 15 16
9 9 9 10 11 13 15 17 17 15 11 8 12 11 5 7 6 3 5 7 5 2 5 3 3 3 2 7 7 10 9 10 9 7 2 3 5 2 7 8 7 7 10 13 14
8 8 9 11 13 15 18 18 17 13 10 10 12 12 9 5 0 3 5 5 3 3 2 2 2 4 6 10 3 8 10 8 7 6 4 7 6 8 7 7 9 10 10 12 12
7 8 11 13 17 20 20 19 14 11 9 11 14 11 8 5 2 2 4 3 3 2 0 1 2 6 10 6 6 9 9 10 8 9 5 8 9 11 7 5 8 11 12 12 12
7 11 14 17 21 22 21 17 13 10 10 11 14 11 2 2 2 2 3 3 2 2 4 5 4 3 3 6 7 11 9 11 8 8 4 10 12 11 7 5 10 10 10 12 13
11 15 18 21 22 23 20 16 11 10 11 13 10 5 3 2 3 3 2 3 3 3 4 4 3 5 6 12 11 9 10 1 8 2 2 8 5 13 1 9 12 15 16 12 13
13 17 19 21 22 21 17 13 10 12 11 7 4 7 3 1 2 2 3 4 6 7 7 6 7 10 11 10 7 6 3 4 6 7 5 9 10 5 5 7 8 9 11 11 12
15 16 18 20 20 18 16 13 8 5 7 4 10 4 7 3 5 4 4 5 8 10 10 6 11 4 10 6 7 5 5 4 4 5 6 4 6 4 4 3 5 4 4 5 8
15 16 18 20 19 17 16 4 3 10 11 8 8 7 4 3 9 6 3 9 10 9 4 9 5 4 2 3 3 3 5 1 0 3 6 3 4 5 8 8 9 10 11 11 12
13 14 16 16 15 15 5 3 18 9 8 6 4 4 3 5 4 4 2 3 4 4 5 9 9 2 3 2 7 3 7 6 9 7 10 8 8 11 9 13 14 15 15 14 12
13 14 17 16 11 10 4 9 12 4 4 6 4 3 2 3 4 6 3 1 1 3 7 6 4 0 1 2 8 9 4 8 10 8 7 12 4 8 12 10 11 11 11 10 9
12 12 13 13 8 8 9 11 9 5 3 4 4 2 3 2 4 5 5 2 3 7 5 5 3 0 1 5 6 5 7 8 8 9 10 11 9 10 11 9 9 9 9 8 7
12 10 9 6 10 10 9 9 5 4 3 6 4 7 10 9 6 5 5 6 4 4 6 8 3 4 6 5 4 7 8 6 6 5 5 2 7 13 8 8 6 9 8 6 8
13 10 9 10 8 10 8 7 5 4 3 7 9 5 7 8 8 7 5 5 0 5 5 6 4 4 6 10 5 8 7 4 3 4 2 5 6 9 8 7 7 7 7 7 8
14 11 9 9 10 11 8 6 6 3 6 4 8 10 5 7 4 4 6 9 10 5 2 3 7 6 6 5 6 5 6 3 4 3 4 6 6 7 10 10 8 6 4 5 4
15 12 7 9 10 10 10 6 3 7 7 11 12 9 8 5 2 4 9 7 7 9 3 3 4 5 4 5 6 3 4 3 2 1 3 4 6 9 11 9 5 3 3 6 5
11 10 8 10 10 9 6 3 2 2 3 13 7 4 7 7 5 3 2 2 4 8 6 3 2 1 3 4 3 6 3 4 1 3 4 2 7 4 12 9 8 4 9 9 7
11 11 8 10 10 9 5 3 4 6 3 3 3 5 6 5 4 3 3 5 3 4 5 5 3 4 3 2 8 1 1 3 4 3 4 4 4 8 5 3 5 9 11 12 8
9 6 11 14 9 6 5 6 4 9 4 3 2 4 6 5 3 3 5 5 2 3 4 5 2 2 4 4 3 4 4 5 3 4 3 4 7 7 6 2 5 11 10 8 10
6 6 11 14 4 3 5 6 4 8 3 4 3 2 4 6 4 6 6 4 3 4 6 5 1 3 4 6 5 4 1 2 2 3 10 7 6 2 4 5 8 12 8 8 12
6 3 6 8 5 10 10 10 7 4 4 4 6 7 8 6 4 7 7 4 2 4 3 3 2 3 5 9 9 8 10 9 9 7 10 11 16 15 10 11 15 15 7 13 17
2 2 5 7 6 10 10 10 10 5 3 7 4 4 8 4 7 5 7 6 3 2 1 3 2 5 9 12 12 12 13 13 14 15 14 17 17 16 13 11 14 11 14 19 22
4 4 3 3 8 10 4 10 12 5 8 7 7 8 6 7 3 6 5 3 2 4 1 2 0 4 4 6 9 13 16 17 16 10 14 13 16 9 10 13 13 19 21 21 22
4 8 6 3 8 8 7 9 9 10 3 3 11 8 9 9 11 10 8 5 3 1 3 1 1 2 4 10 13 5 2 1 4 7 8 11 11 14 10 16 19 20 19 17 15

GFSSW_850_spd_024.txt.gz
Wind_Speed
17 17 17 16 15 15 13 12 12 10 10 10 10 7 7 7 9 9 6 6 9 8 8 6 9 9 8 15 16 23 4 7 7 10 10 7 5 4 7 8 8 5 14 23 20
17 17 16 15 15 12 11 12 11 10 11 12 10 8 8 10 11 11 8 5 7 8 7 8 8 9 13 12 9 9 9 14 11 9 11 9 8 8 7 9 9 10 23 20 19
17 16 14 13 12 11 11 11 11 12 12 12 9 9 10 9 8 7 2 0 3 5 5 8 7 13 19 7 10 4 10 10 8 9 10 8 10 4 8 9 16 16 18 19 18
15 14 13 11 10 10 11 11 12 13 14 10 9 11 9 5 1 6 5 7 2 4 2 8 12 18 7 9 4 4 6 10 12 4 5 7 12 3 2 14 9 19 16 19 17
12 12 11 10 10 11 12 12 14 15 11 8 9 11 8 8 1 5 7 5 2 1 8 11 14 8 8 6 7 8 8 12 10 7 3 6 5 3 3 10 6 12 14 16 15
10 10 10 10 10 12 13 15 16 14 9 7 10 11 8 13 1 1 4 5 1 7 3 3 6 5 4 7 7 10 10 11 10 7 5 5 8 7 11 15 10 8 13 14 14
9 9 9 10 12 14 16 18 16 11 8 10 11 10 7 5 2 1 2 2 3 7 9 1 4 6 5 6 3 7 7 6 7 9 8 7 8 12 14 8 12 11 9 14 15
6 8 10 12 15 18 20 18 13 9 9 11 14 11 7 3 5 4 2 3 2 3 4 2 2 8 6 6 5 8 10 9 10 8 7 6 11 15 11 12 10 12 14 11 13
5 8 12 16 19 20 19 13 10 8 9 12 12 10 8 2 4 2 4 3 2 1 1 0 4 5 2 7 8 10 9 9 9 7 2 8 8 17 13 4 9 9 13 13 11
7 11 15 19 20 19 15 11 8 9 11 10 8 12 6 2 1 3 3 3 4 4 4 4 6 6 9 9 2 10 7 4 2 8 5 9 10 7 9 4 11 17 17 17 15
10 13 16 18 19 17 15 13 6 4 11 6 12 2 4 3 5 3 5 4 4 7 10 8 9 2 13 9 6 9 6 6 7 8 3 10 9 9 11 6 3 3 2 11 23
10 12 15 17 17 17 14 6 3 3 8 0 4 2 2 1 7 5 4 6 6 11 4 4 3 7 5 7 6 5 5 4 3 5 4 8 10 11 9 5 7 10 12 24 20
11 13 15 16 15 15 8 5 3 7 7 6 3 6 1 4 3 4 3 8 9 10 7 9 10 5 4 2 8 4 4 8 7 10 9 10 9 13 11 8 14 18 18 17 15
9 11 14 13 10 8 5 4 6 1 5 7 8 5 4 4 4 1 4 4 3 2 3 8 3 2 1 2 7 7 6 5 8 9 9 13 4 14 14 11 13 15 15 13 11
9 12 14 13 4 8 6 6 4 6 4 5 5 3 6 4 10 4 3 5 5 2 3 6 4 1 2 6 6 5 6 7 8 10 11 12 7 14 16 13 12 14 13 11 9
8 11 12 3 5 3 6 4 3 4 4 6 6 8 7 5 1 5 3 3 4 3 6 8 3 6 7 4 2 7 9 11 8 9 4 13 3 5 8 13 12 13 10 9 8
9 9 9 6 4 6 7 7 4 4 7 8 10 8 10 6 6 7 6 5 3 5 6 6 5 6 6 10 7 6 8 4 2 4 2 5 3 8 10 9 14 14 11 8 7
11 8 6 8 5 8 7 6 6 4 6 8 11 9 7 7 4 2 10 8 8 10 4 8 7 4 5 6 7 5 6 2 4 4 6 7 3 9 12 14 14 11 10 7 5
11 8 3 6 6 9 6 6 2 4 8 7 11 9 4 4 1 3 11 7 6 9 6 3 6 6 5 6 7 6 5 4 3 2 2 5 8 11 12 11 10 9 4 7 2
11 7 7 7 7 8 5 7 1 6 4 10 9 5 8 8 8 7 4 2 4 8 7 4 2 3 3 3 2 4 1 2 1 2 3 7 6 7 10 9 9 3 8 6 6
11 7 9 10 8 7 6 5 1 3 4 5 4 4 2 6 3 3 4 5 4 4 6 7 3 5 5 6 7 1 2 2 3 1 2 3 3 8 7 5 6 8 7 4 4
9 4 10 12 8 11 8 2 1 8 3 2 4 2 4 4 3 4 8 7 3 3 6 4 2 1 7 6 4 3 5 4 1 4 1 1 6 4 3 8 9 10 12 8 5
7 6 14 17 5 4 3 5 6 8 8 5 2 1 2 5 3 6 8 3 4 7 4 4 1 3 8 5 4 0 3 2 4 2 5 4 4 3 1 15 8 7 6 5 8
8 3 6 11 11 12 8 7 5 4 5 1 4 4 6 5 3 6 9 4 5 8 3 3 1 1 2 6 7 7 10 8 10 4 6 8 14 15 12 8 7 10 10 12 13
6 6 10 7 9 7 11 9 10 6 5 6 5 6 6 3 5 5 10 8 5 3 2 3 1 4 7 9 8 9 11 11 12 12 9 11 16 11 8 7 13 17 18 19 20
5 3 6 6 16 10 5 7 11 7 9 9 4 7 8 6 3 7 6 5 4 4 2 3 1 3 3 5 10 13 15 13 13 13 10 11 12 12 7 16 16 17 23 19 15
3 2 6 2 4 5 5 8 9 10 2 4 7 7 11 13 14 13 13 10 6 4 4 2 1 2 3 9 10 3 3 6 8 7 9 5 10 9 15 17 19 18 16 14 17

GFSSW_850_spd_027.txt.gz
Wind_Speed
18 18 18 17 15 14 13 13 13 12 10 11 10 9 9 10 10 12 11 7 10 9 8 8 11 4 2 12 18 21 2 9 14 8 4 6 7 18 16 19 20 12 33 31 28
18 18 17 15 14 13 12 12 12 11 10 10 9 10 10 10 11 15 8 12 10 9 10 12 11 6 8 11 10 9 4 2 6 10 7 4 16 7 12 18 23 28 30 27 26
18 17 16 14 13 12 11 11 11 11 10 10 10 10 10 7 10 12 6 6 6 7 7 8 11 15 14 15 10 3 5 5 13 25 19 16 12 10 14 7 29 32 30 26 23
17 16 15 12 12 11 11 11 11 11 11 11 10 11 6 5 3 4 4 3 5 6 10 9 11 16 4 5 8 6 13 16 10 19 18 9 9 4 11 19 27 30 28 26 21
15 14 12 11 11 10 11 12 11 12 11 9 10 8 4 6 9 2 4 1 2 5 8 8 16 18 8 6 8 9 7 14 7 12 13 13 6 4 17 18 26 28 27 24 21
13 12 11 10 10 11 11 11 13 13 10 8 9 5 4 7 2 2 2 6 7 8 17 17 6 8 4 6 7 12 15 12 7 6 4 2 4 2 17 19 27 27 26 23 21
11 10 10 9 10 11 12 14 15 12 8 8 7 6 8 13 5 2 1 5 7 9 14 4 6 11 9 6 9 14 6 7 8 13 5 4 2 6 22 21 20 16 24 23 22
8 7 9 10 11 13 15 16 13 9 8 7 7 8 8 4 7 5 4 2 6 7 7 4 4 9 8 9 4 3 5 4 6 11 9 9 7 8 20 17 22 20 17 24 21
5 6 9 12 14 16 16 13 10 8 7 8 8 7 8 3 8 2 6 7 2 3 4 2 3 4 3 3 3 2 5 7 4 13 5 5 6 14 24 19 15 17 21 16 12
3 7 11 15 17 18 15 11 7 6 8 8 6 5 12 4 7 7 4 4 3 4 4 3 4 2 5 4 3 4 3 5 8 3 3 4 1 4 11 7 2 3 5 22 26
6 9 14 17 18 17 15 10 6 2 12 11 8 10 6 3 7 9 5 2 4 8 4 10 5 4 4 4 3 3 5 10 5 5 3 3 3 6 13 11 7 27 32 32 30
8 11 14 16 17 16 16 5 4 2 7 15 4 5 2 3 5 9 9 3 4 6 7 4 4 4 3 2 5 6 6 5 3 4 4 3 2 6 14 10 30 31 31 31 26
8 10 13 14 13 14 12 4 7 5 5 5 4 8 3 4 1 8 2 9 8 6 5 6 3 2 4 7 9 8 6 5 3 6 3 3 2 7 8 23 32 29 27 26 26
9 11 13 12 9 8 9 3 7 6 4 3 3 3 3 5 4 3 5 5 4 3 10 6 5 4 4 8 7 5 6 6 6 4 3 5 1 3 10 11 19 28 27 28 24
8 11 12 12 3 8 6 7 2 5 4 7 5 8 7 2 12 2 4 4 4 4 7 2 4 8 9 4 4 1 2 4 3 4 3 7 4 4 12 11 11 21 23 21 18
10 13 13 3 4 4 6 2 1 5 2 2 6 5 5 4 1 7 3 2 2 6 8 5 11 4 4 3 3 5 4 6 5 2 2 6 4 1 6 14 6 19 23 18 14
10 12 10 5 2 3 2 4 5 3 6 5 4 7 7 3 4 7 5 3 3 3 2 3 4 4 3 4 1 4 6 4 4 4 3 5 7 1 7 13 18 19 23 19 15
11 11 7 7 3 5 3 4 1 4 5 5 6 4 7 2 4 3 6 4 8 6 3 5 1 5 5 5 2 4 3 4 0 1 4 5 3 2 10 22 23 20 16 13 11
11 8 5 5 4 6 2 3 5 4 5 6 5 5 4 3 1 4 7 3 5 7 4 4 3 3 6 3 3 6 5 3 4 2 3 1 3 6 9 9 14 18 18 14 12
11 7 5 5 4 5 4 4 1 6 3 4 5 6 7 8 4 3 3 5 3 5 5 4 4 2 4 1 3 4 2 5 4 1 3 4 3 3 6 6 5 9 13 14 13
12 5 8 6 5 3 3 5 3 5 12 5 3 2 2 7 6 4 4 4 7 2 10 5 4 3 1 4 4 4 3 4 2 4 4 1 3 2 4 4 4 15 11 10 7
11 1 10 12 3 4 2 4 2 4 4 3 3 4 3 4 5 5 5 4 5 8 3 3 4 3 3 3 3 1 2 4 4 3 1 4 5 2 8 13 12 10 4 8 9
7 5 10 15 3 2 7 2 2 5 4 0 5 6 5 4 5 9 5 7 10 5 1 3 2 3 4 4 5 2 2 5 5 3 4 5 5 5 10 13 4 6 19 17 16
3 2 4 10 9 4 4 3 3 8 2 4 5 4 1 5 4 4 4 3 7 4 3 3 2 5 5 2 1 2 4 4 6 3 3 6 6 10 7 4 13 18 16 15 15
4 4 10 4 6 5 6 8 5 2 1 3 1 3 4 3 4 5 5 4 2 1 1 3 3 4 4 5 5 3 4 6 4 5 4 7 5 3 9 9 17 18 18 15 15
4 3 15 11 22 4 5 6 9 8 6 4 3 6 8 5 3 5 8 5 4 5 4 4 1 2 3 5 7 4 7 8 7 4 3 4 3 14 17 17 19 16 13 13 13
4 1 3 3 6 3 4 1 3 9 3 5 7 11 13 7 20 18 19 15 9 5 3 3 4 3 3 4 6 4 4 3 1 2 1 1 3 12 13 17 15 12 10 12 16

GFSSW_850_spd_033.txt.gz
Wind_Speed
20 21 21 21 20 18 17 16 15 15 14 14 12 10 12 13 12 15 16 6 4 3 6 6 5 5 5 1 2 0 4 3 4 8 6 15 7 10 6 19 3 1 20 32 32
21 21 22 22 20 18 16 15 14 14 13 12 10 9 10 10 13 18 4 9 9 7 5 8 7 6 3 1 5 4 4 8 9 8 16 12 21 15 7 5 6 20 24 35 32
21 22 21 21 19 17 16 14 14 13 12 10 8 8 5 8 12 8 4 8 11 10 7 7 8 3 2 5 7 6 5 5 10 20 21 16 15 7 20 2 22 30 37 36 33
22 22 20 20 17 15 15 13 12 12 11 8 8 4 4 6 4 3 1 2 5 8 9 9 7 4 5 6 10 2 4 4 7 19 17 12 14 13 8 13 23 31 37 38 34
21 20 20 18 15 14 13 12 12 11 10 7 5 4 5 6 9 5 4 4 5 6 8 13 13 10 4 5 5 5 4 8 10 11 12 13 8 9 8 22 28 34 37 35 33
20 19 18 16 14 13 11 11 11 10 8 6 5 5 6 5 2 6 8 7 8 4 7 12 12 12 5 5 5 6 6 8 8 9 7 6 4 2 7 28 33 37 37 35 32
18 18 15 13 12 11 9 10 10 8 7 6 6 6 8 13 6 5 5 7 5 1 2 0 2 8 9 2 4 12 6 4 2 2 3 11 4 4 22 31 38 37 34 34 34
17 15 12 11 10 9 9 10 9 8 7 5 6 5 9 6 9 4 2 2 3 1 2 2 3 3 4 14 6 4 5 3 3 4 1 3 6 2 24 33 33 32 22 20 19
14 12 10 9 9 9 9 10 10 7 5 5 4 3 8 5 7 4 2 2 3 2 3 3 4 6 5 6 4 6 3 2 4 4 2 3 4 1 26 31 14 14 11 13 12
11 8 8 8 9 10 12 11 8 5 5 5 3 2 8 2 3 5 2 1 1 4 5 6 4 4 4 5 3 3 2 2 5 3 4 2 3 6 13 15 16 14 15 15 13
8 7 8 10 12 15 15 10 5 3 9 7 4 4 4 7 5 7 4 2 4 5 4 6 6 2 3 2 3 3 1 3 1 3 5 5 7 8 10 24 23 23 28 28 27
7 8 11 14 17 16 14 5 4 1 4 17 9 11 13 8 4 6 5 2 4 2 3 6 2 1 7 5 6 6 6 2 1 5 7 6 11 9 12 10 18 25 27 32 30
9 11 14 17 17 16 12 5 1 2 1 4 14 12 8 3 2 6 4 2 2 2 2 4 3 5 6 6 8 5 4 2 3 5 7 6 6 7 6 16 19 24 26 25 24
12 15 17 16 14 14 8 1 2 4 4 4 3 4 6 6 3 5 4 2 3 2 6 5 5 5 6 6 4 3 1 3 3 4 4 3 2 0 1 6 7 16 20 22 23
15 17 18 16 8 11 5 1 2 1 3 3 3 4 5 3 5 1 4 2 2 4 6 3 3 5 5 1 2 3 2 2 2 3 4 2 5 3 5 3 4 9 18 21 20
17 19 19 10 10 10 2 2 4 6 2 2 5 3 4 2 1 4 4 4 6 5 6 3 2 3 2 1 1 1 4 6 4 3 2 3 5 4 7 7 6 12 20 19 17
19 20 18 12 10 7 3 4 5 4 1 4 4 3 3 2 3 3 4 5 3 5 3 5 3 4 2 2 2 6 5 2 3 3 4 5 2 4 5 9 8 13 20 19 17
21 22 16 12 10 6 5 5 2 4 5 3 5 3 5 3 4 3 3 3 5 4 3 4 4 4 5 2 3 3 4 4 4 3 3 5 3 4 1 19 21 23 20 16 12
23 20 15 11 8 6 7 3 5 5 3 6 5 4 2 2 5 5 3 2 0 2 5 4 1 3 2 2 3 1 3 3 6 3 3 2 2 5 3 7 16 19 18 11 8
24 18 14 11 7 8 5 5 4 4 1 5 4 4 5 5 4 4 1 2 2 4 3 5 4 1 2 2 4 4 4 3 4 2 1 3 4 4 8 9 8 12 11 9 11
20 10 14 13 10 7 3 6 4 4 2 4 5 4 5 6 4 3 1 3 3 2 5 3 4 4 2 3 1 4 2 6 5 3 4 1 5 4 11 10 8 9 10 16 17
16 3 16 16 5 2 3 5 3 2 6 4 4 3 6 4 4 3 4 1 4 1 2 2 5 3 1 4 3 2 2 4 4 2 1 3 5 4 4 12 16 15 20 19 16
13 5 14 13 4 1 3 3 1 2 3 2 2 2 2 5 6 2 3 1 3 3 4 2 2 3 6 6 5 2 3 5 5 3 4 4 5 2 9 11 13 23 20 18 15
10 3 3 5 4 7 3 2 0 3 3 3 3 5 5 5 6 4 3 2 2 5 5 3 3 5 6 4 3 3 2 3 5 3 3 6 3 2 5 7 13 20 18 13 8
7 4 8 4 2 4 5 2 4 2 2 3 3 3 5 4 3 4 2 2 4 2 3 4 4 2 3 4 1 2 4 6 6 5 5 5 7 6 9 8 17 16 12 7 3
8 5 6 7 17 6 3 6 7 2 2 0 5 3 1 6 6 7 6 3 3 3 3 4 1 2 1 5 5 4 6 6 6 4 6 4 4 4 13 14 14 12 8 4 2
6 4 7 1 5 6 5 6 8 7 4 1 9 5 5 2 6 10 5 9 8 6 3 3 4 3 3 4 5 6 8 9 5 4 6 6 7 13 7 13 15 11 6 4 5

GFSSW_850_spd_036.txt.gz
Wind_Speed
19 21 22 23 24 22 22 21 20 17 16 13 12 13 14 13 13 16 19 9 2 6 7 8 5 6 3 4 3 2 4 3 8 11 5 11 4 6 2 15 5 3 11 26 29
20 22 22 23 23 22 21 21 19 16 14 11 11 12 11 10 13 18 8 8 10 7 5 5 5 5 3 3 3 4 3 7 5 9 10 21 22 12 7 5 4 11 15 32 30
21 22 23 22 23 21 20 19 18 14 12 10 9 9 7 8 11 3 2 9 10 11 8 4 6 1 3 3 5 5 5 6 9 9 11 9 11 6 17 2 8 26 36 31 32
20 22 22 21 21 20 19 18 16 13 11 8 8 6 5 7 2 4 3 3 8 11 11 7 6 5 3 4 4 2 6 7 4 15 11 12 12 6 10 5 18 27 32 34 33
20 21 20 21 20 18 18 17 13 11 8 6 6 5 6 5 7 3 7 3 4 7 10 10 10 7 3 4 4 2 2 5 12 17 21 17 7 8 4 12 22 28 31 34 31
19 20 19 19 18 17 16 13 11 9 6 6 7 5 6 5 3 3 10 7 7 6 9 12 7 10 4 4 5 6 6 6 11 12 12 8 5 8 8 20 25 30 33 32 29
18 18 18 17 16 15 13 11 9 6 6 7 6 6 10 11 3 10 8 7 5 5 7 7 13 10 5 4 4 8 4 5 4 4 4 10 1 2 16 25 29 33 31 29 29
17 16 16 14 14 12 9 8 6 5 7 6 5 6 9 3 8 7 4 4 5 4 6 6 8 9 4 10 6 5 5 3 3 2 2 4 5 2 20 30 21 23 22 22 25
15 14 14 12 12 9 6 6 6 7 6 4 4 5 7 2 6 4 4 3 2 3 3 4 10 5 4 5 5 6 4 2 2 1 3 3 1 13 16 18 17 18 17 18 21
14 12 12 10 9 7 8 9 8 6 5 3 4 4 5 1 3 6 4 3 1 2 4 3 4 5 5 5 5 5 3 2 3 2 6 6 4 7 3 14 13 13 13 14 14
13 11 9 9 10 12 13 10 4 3 10 8 4 3 1 8 2 6 3 2 1 4 3 6 7 3 3 3 3 3 4 2 1 3 7 5 5 8 9 14 13 15 16 15 11
11 9 9 10 13 16 15 5 3 1 5 17 13 11 15 10 3 5 3 1 3 2 1 6 4 3 4 5 6 5 6 3 2 6 7 5 8 7 10 6 11 20 23 25 24
11 9 10 13 15 16 15 4 3 5 3 4 12 8 3 3 3 5 4 3 3 3 5 6 0 3 4 5 9 4 5 2 3 3 6 4 5 5 6 12 16 21 24 25 24
12 13 15 16 14 15 12 3 2 2 4 4 4 2 4 3 2 5 5 2 4 4 5 5 3 4 6 6 3 3 0 3 4 3 3 3 3 2 3 3 2 15 19 20 19
15 17 19 19 7 16 4 4 3 2 3 3 3 1 4 4 6 2 3 2 4 4 4 1 2 5 7 1 3 1 5 5 4 5 4 3 4 4 6 5 8 9 15 18 15
19 19 20 16 12 13 6 4 4 6 3 2 5 4 4 2 2 2 3 6 6 6 6 3 3 3 2 3 3 4 5 8 5 3 2 1 4 4 6 6 5 11 17 18 16
21 22 23 14 11 12 6 6 5 4 2 3 4 3 3 2 4 4 5 5 4 5 4 6 4 5 3 3 3 6 5 3 3 3 4 3 2 6 4 5 11 15 20 19 17
22 23 23 16 14 10 8 4 2 3 5 1 4 3 4 3 4 4 3 3 5 4 3 4 4 3 5 2 4 3 5 4 4 3 3 3 4 4 4 13 26 24 22 18 16
23 24 21 16 14 11 5 4 6 6 3 6 4 5 1 2 5 4 3 2 1 1 5 4 0 2 2 2 3 2 3 4 6 1 3 2 4 4 6 5 16 21 18 19 17
25 24 17 17 15 11 4 5 3 4 1 4 4 4 4 4 4 4 1 2 2 3 2 5 4 2 2 3 6 2 5 3 3 2 3 3 4 4 5 7 7 14 23 18 16
26 10 17 17 14 7 4 5 4 8 5 4 5 4 4 4 3 2 2 1 1 2 4 3 4 4 1 3 3 2 2 6 4 3 4 1 5 5 11 11 13 15 20 18 19
19 3 18 19 4 2 4 5 2 4 2 3 4 3 5 3 4 3 4 2 2 1 3 1 5 2 2 2 2 2 3 4 4 3 1 3 6 2 7 14 16 16 19 21 20
12 6 15 18 4 1 3 1 2 2 3 2 3 3 3 4 5 2 3 1 1 2 6 5 2 3 6 5 4 2 3 4 5 3 5 5 5 3 4 8 13 19 19 18 16
13 3 4 6 4 7 5 3 2 2 3 5 4 5 5 4 5 5 3 1 1 3 5 4 3 5 7 4 3 4 4 4 5 3 4 6 4 3 3 5 11 17 18 16 12
8 3 8 3 1 3 5 6 4 2 3 4 4 3 4 4 3 3 2 2 4 3 3 3 4 2 2 3 2 2 4 6 7 5 6 4 7 6 9 8 17 21 18 14 9
8 6 5 4 16 6 3 6 6 3 3 2 6 2 2 6 6 8 6 4 4 3 3 3 2 1 2 3 5 3 6 7 5 3 7 4 8 6 7 14 18 20 17 13 9
8 10 12 1 4 5 6 6 7 7 3 3 6 5 3 1 4 12 7 11 7 5 3 3 5 3 4 4 5 6 9 9 5 5 7 6 8 8 4 15 24 21 17 12 9

GFSSW_850_spd_039.txt.gz
Wind_Speed
19 19 20 22 22 22 22 20 21 19 17 15 14 14 14 13 13 17 21 11 3 13 11 6 5 6 4 3 5 3 2 4 6 8 2 7 8 1 5 7 3 4 7 17 26
19 20 20 22 22 22 22 20 20 19 15 13 13 12 11 11 15 18 9 7 9 6 3 4 6 5 3 4 4 4 3 5 7 12 13 24 22 16 9 12 4 7 11 27 25
19 21 21 21 21 21 21 19 18 17 14 12 10 9 9 9 14 1 3 6 11 10 7 4 7 6 4 4 6 4 5 6 4 15 18 11 7 6 12 10 7 15 27 28 27
20 21 21 21 20 21 19 18 16 14 12 10 8 7 7 7 3 2 3 4 9 12 12 8 9 6 4 5 7 2 5 2 5 8 8 8 14 6 8 4 5 19 34 29 30
20 20 21 21 19 20 18 16 15 12 10 8 6 7 6 6 9 1 5 3 4 12 16 14 13 8 4 5 5 5 3 7 17 15 10 17 7 6 5 6 13 27 30 29 30
20 20 20 19 18 19 16 14 12 9 7 7 6 7 6 5 5 2 8 8 4 8 13 16 8 13 3 4 3 5 6 9 12 16 15 7 5 8 4 16 23 30 27 28 27
18 19 20 18 17 17 14 11 9 6 6 6 7 7 10 13 4 6 8 9 6 5 8 12 15 5 2 1 5 7 8 6 7 8 4 15 3 4 7 21 25 23 25 26 25
17 18 18 17 16 13 11 9 6 5 6 6 6 7 9 4 8 8 7 6 5 4 5 8 5 9 4 2 3 4 4 5 2 4 3 2 3 8 9 20 20 21 22 21 19
16 16 16 15 13 9 7 7 6 6 6 5 5 6 8 5 7 4 4 3 4 2 1 5 9 4 4 4 3 7 3 3 4 5 4 2 3 9 4 11 12 13 18 19 20
15 15 14 13 10 7 7 7 7 6 5 4 6 3 6 1 5 5 3 3 1 1 4 3 3 3 2 3 4 3 4 1 4 2 10 7 3 6 4 9 10 11 12 14 14
15 13 12 11 8 9 10 10 5 3 11 8 3 3 2 6 7 6 2 1 3 2 2 3 3 3 2 2 3 4 3 4 3 4 6 5 4 7 4 7 9 9 11 11 9
14 11 12 10 10 13 16 8 5 1 5 17 14 13 13 9 3 4 3 2 2 2 2 4 3 2 5 5 5 4 6 3 3 3 4 4 8 7 5 2 5 11 12 12 13
14 11 12 10 13 16 19 7 3 5 2 4 13 9 3 5 2 4 5 5 3 2 2 5 1 3 3 4 8 5 6 3 4 4 6 3 2 2 5 6 6 8 13 17 19
14 13 14 13 15 17 17 6 4 2 3 2 4 4 6 5 1 4 6 3 3 4 3 5 3 4 3 3 2 4 2 4 6 2 2 2 3 1 2 4 7 12 15 20 21
16 16 16 18 8 19 7 8 5 3 3 3 4 5 6 5 5 2 4 4 5 4 3 1 2 4 3 0 2 4 3 4 3 4 2 1 2 1 3 6 11 13 15 16 15
18 18 19 24 14 17 8 5 5 5 3 3 6 5 4 2 1 2 3 6 6 5 5 3 2 3 2 3 4 8 5 5 3 2 1 1 3 3 6 8 13 14 14 16 15
21 21 23 26 12 16 9 7 3 4 2 3 3 4 3 2 3 3 3 4 3 4 3 4 3 3 3 4 3 4 4 2 1 1 3 2 2 5 4 6 19 20 18 19 19
22 23 27 27 12 14 10 2 3 3 5 1 3 4 5 4 2 3 3 2 4 5 3 3 0 3 4 2 4 2 3 4 4 3 1 0 4 2 4 7 18 23 22 22 21
23 24 27 27 15 11 8 2 6 6 3 6 3 5 2 1 4 3 2 2 1 1 4 4 1 1 3 1 1 4 2 2 6 2 1 2 3 5 2 4 13 20 20 22 22
23 23 28 24 17 14 3 5 4 5 3 2 4 3 4 3 3 3 1 1 2 2 1 4 3 1 1 1 7 1 7 3 2 3 3 2 4 4 4 8 11 17 22 21 21
22 10 19 20 18 9 4 6 5 6 7 6 5 4 3 5 3 2 3 1 1 2 4 3 3 2 1 0 5 2 2 5 4 1 2 1 4 3 8 11 16 21 21 22 19
21 3 20 24 5 1 4 5 4 3 4 5 4 3 5 3 3 3 5 2 2 2 4 1 4 3 2 0 1 1 3 4 3 4 1 1 5 1 5 9 11 16 18 18 17
16 5 22 24 4 1 2 3 3 1 2 4 3 3 2 4 4 2 3 1 3 3 6 5 1 3 2 2 1 3 3 4 5 2 5 4 4 2 3 6 15 17 17 19 19
17 3 7 10 4 8 5 4 3 2 1 4 5 4 4 3 4 5 3 1 2 3 6 4 3 4 6 3 2 4 4 4 4 3 4 6 4 5 6 7 9 16 19 21 22
11 4 9 4 2 4 4 6 5 2 1 2 4 3 5 4 2 3 2 2 3 5 3 3 4 2 1 1 1 2 4 9 8 4 7 4 9 6 7 11 15 16 21 23 22
11 6 6 5 17 6 0 6 6 3 1 1 7 3 3 6 6 8 6 4 4 2 2 2 3 2 3 1 3 4 5 6 7 4 11 5 14 8 3 8 14 20 23 22 22
10 13 17 1 3 6 5 6 7 8 3 4 8 5 4 2 4 8 7 11 7 5 3 2 5 3 3 3 3 5 9 13 6 6 8 10 9 6 6 13 20 23 24 23 20

GFSSW_850_spd_042.txt.gz
Wind_Speed
17 18 18 19 21 21 21 22 21 20 20 17 15 16 14 14 13 15 19 11 7 12 10 5 4 6 5 7 5 3 6 9 8 12 7 11 10 0 4 2 4 3 1 6 25
17 18 19 20 20 22 21 21 20 19 17 16 14 14 12 13 15 16 7 9 10 7 11 8 8 8 8 8 6 8 8 3 6 16 15 5 16 13 9 7 4 6 8 21 24
18 18 19 20 20 21 21 20 19 17 16 14 11 11 11 11 13 2 4 7 14 12 9 7 8 9 9 7 9 8 7 5 3 19 16 24 13 10 10 9 11 11 19 23 21
19 18 19 19 20 20 21 19 17 16 14 11 9 10 9 7 1 2 3 3 12 14 12 9 11 9 8 9 11 8 5 4 9 17 16 15 11 8 7 7 3 9 23 26 22
20 19 18 19 19 20 20 19 15 14 11 8 8 9 7 6 10 5 2 4 7 14 14 12 11 10 10 10 7 12 4 6 13 22 16 12 13 8 5 6 12 20 23 21 21
19 18 17 17 18 18 18 16 12 11 8 6 8 9 7 8 7 5 3 7 3 12 14 15 6 12 4 4 10 6 5 8 8 12 7 12 7 8 3 9 14 21 18 19 20
19 17 16 16 17 17 17 13 10 8 7 6 8 7 11 14 3 5 9 11 7 8 11 14 14 8 3 2 4 14 10 6 9 14 8 12 10 4 1 10 16 18 16 17 17
18 16 15 15 15 15 13 10 8 7 6 7 6 6 9 5 9 9 9 6 3 7 11 5 9 11 5 2 6 7 14 9 9 15 5 6 11 4 7 12 15 16 15 16 15
17 16 14 14 13 13 10 8 6 5 5 7 5 5 9 5 7 6 4 3 3 3 9 5 10 6 6 10 9 9 9 11 8 2 8 7 9 4 8 14 15 15 16 17 13
17 15 14 12 12 10 6 5 4 4 6 6 8 5 6 2 4 5 3 2 2 6 3 4 7 5 6 9 8 7 8 9 10 5 10 8 7 5 7 15 15 15 14 14 13
16 15 13 11 10 7 6 5 2 3 11 9 3 5 2 5 7 5 3 2 2 6 10 9 7 6 13 4 4 4 6 12 8 4 7 6 6 5 7 12 13 14 13 13 10
17 14 13 11 9 8 11 7 5 1 7 17 18 14 13 10 4 6 4 4 1 1 3 6 3 5 5 4 3 5 7 7 5 4 5 9 6 4 6 9 12 13 12 12 10
17 14 13 11 9 12 17 18 4 4 6 4 11 9 5 6 4 8 3 3 3 2 4 5 6 5 7 8 7 4 3 10 5 7 2 9 8 8 4 7 8 10 10 10 11
17 15 13 10 8 14 18 14 7 4 4 7 6 6 6 4 5 3 4 2 1 6 3 4 3 4 6 6 3 5 2 5 11 10 7 8 7 10 9 8 10 11 12 14 15
18 16 15 13 7 13 8 12 5 4 5 10 7 6 7 6 4 3 6 3 6 4 3 4 5 5 4 3 1 4 4 4 3 4 5 9 7 8 9 10 12 14 16 17 16
19 18 17 18 19 14 8 8 7 5 5 8 8 9 9 5 3 4 3 4 5 2 2 5 3 2 3 6 2 10 8 6 2 3 8 4 6 9 7 7 13 17 19 19 16
20 20 21 21 14 13 10 9 6 6 3 7 10 11 12 6 6 5 8 9 7 9 9 6 3 4 3 9 6 6 6 3 3 4 6 3 6 11 2 3 10 19 22 20 18
21 22 23 27 17 12 14 7 9 6 8 2 7 13 12 9 5 4 8 8 3 6 9 9 7 5 1 3 2 2 3 3 4 3 1 3 5 2 2 2 7 20 23 21 20
22 23 25 29 26 11 11 11 8 6 7 9 10 15 8 7 4 7 5 7 3 4 7 6 4 4 3 2 3 5 4 3 2 1 3 3 4 8 2 3 10 19 22 23 23
24 23 28 27 27 11 7 14 9 4 5 10 13 13 14 13 9 9 9 4 4 2 3 4 4 2 5 2 7 4 9 3 3 3 4 3 5 2 4 7 10 18 23 24 22
20 13 16 25 18 14 10 14 7 7 7 11 13 8 12 9 9 10 9 4 4 4 1 5 3 6 4 7 6 4 4 1 0 2 2 3 2 3 1 5 11 18 22 24 22
20 9 19 22 12 13 12 12 6 8 7 7 7 7 12 11 8 9 10 3 5 5 5 2 1 4 5 3 1 2 5 8 4 4 1 2 3 4 2 2 9 15 20 22 21
19 9 20 30 11 8 9 7 7 6 8 8 8 5 6 10 5 5 6 2 3 5 6 6 3 4 4 4 4 7 9 5 4 1 6 3 3 4 4 5 9 13 18 20 20
25 7 9 15 17 16 13 15 8 3 5 5 5 4 8 6 1 7 7 3 3 2 3 4 3 7 10 2 0 6 11 11 11 4 5 10 12 8 8 8 8 15 19 22 22
19 10 16 12 16 12 16 14 14 6 4 8 5 8 8 5 6 6 6 5 4 6 3 3 6 4 2 0 3 4 8 13 15 14 8 11 11 11 5 9 11 13 17 20 21
15 10 14 26 23 13 12 12 17 6 6 7 8 10 7 6 8 10 10 7 5 7 5 2 3 3 3 2 2 7 8 10 15 16 15 19 20 15 10 9 10 14 18 22 22
16 16 27 9 14 12 11 12 14 11 1 3 11 9 6 4 5 8 7 8 6 7 6 4 5 4 2 2 3 6 15 18 13 12 15 14 16 3 6 10 12 15 19 22 22

GFSSW_850_spd_045.txt.gz
Wind_Speed
17 17 18 19 20 20 21 22 22 23 23 22 20 18 18 15 14 17 19 14 10 8 10 6 7 9 11 14 12 13 11 15 11 16 9 13 19 16 9 9 2 2 3 6 23
18 17 18 18 19 20 21 22 22 23 22 21 18 16 15 15 16 20 17 12 13 10 14 12 10 11 15 13 13 12 12 11 8 15 7 18 6 13 8 7 7 7 7 16 23
18 18 18 19 20 20 20 21 21 21 20 19 16 14 12 12 14 3 7 7 9 9 13 10 11 11 16 11 15 15 15 6 27 28 17 6 11 11 11 19 18 7 14 19 19
18 18 19 19 20 19 20 20 20 20 18 16 13 11 10 6 3 4 3 2 9 13 10 9 10 13 14 11 15 12 12 8 4 12 4 2 13 8 10 5 8 17 20 20 20
18 19 18 19 19 20 19 19 19 18 16 13 10 9 7 8 13 7 4 2 7 13 12 10 11 12 11 12 10 11 9 3 9 9 11 11 14 32 12 8 10 21 22 21 20
18 18 18 18 18 19 19 18 17 16 14 11 9 7 5 14 3 5 5 3 4 13 13 13 10 12 11 6 9 9 6 5 7 9 15 12 17 15 9 10 17 21 20 20 22
18 17 17 17 17 18 17 17 15 13 11 9 7 6 11 18 3 3 7 4 6 12 13 12 12 7 4 7 1 9 16 4 9 15 10 17 8 12 11 14 18 17 17 20 20
18 17 16 16 17 16 16 14 12 11 8 7 5 4 10 5 8 12 11 12 9 10 11 4 10 11 9 4 6 7 10 14 14 15 17 14 13 8 10 15 18 18 19 20 19
18 17 16 16 16 15 14 11 10 9 6 5 3 3 9 6 8 6 8 6 3 6 8 5 8 9 6 10 11 11 9 13 9 16 9 15 14 11 12 15 18 18 19 19 18
18 16 15 16 14 13 10 7 7 6 5 6 8 7 8 7 5 7 4 6 4 6 6 7 9 9 9 10 10 13 16 15 14 13 12 11 13 11 17 16 18 18 19 19 17
18 16 15 15 13 10 6 3 3 5 12 13 3 12 4 6 9 10 6 6 7 6 6 12 7 9 16 18 7 11 10 10 14 9 13 11 10 12 16 17 17 19 19 18 17
18 16 15 13 13 10 10 9 6 5 10 20 18 13 16 10 8 12 7 8 11 10 12 14 7 12 9 9 7 7 4 7 8 9 7 7 11 11 15 19 21 19 18 18 17
19 16 15 13 12 13 15 13 3 9 8 11 16 14 10 8 12 16 10 8 8 9 17 9 5 4 6 8 7 3 8 4 9 10 13 9 14 14 12 13 12 18 19 18 18
19 17 14 10 9 9 12 11 10 7 6 12 12 10 10 8 9 12 10 8 5 11 12 6 20 8 7 5 6 8 1 2 4 12 13 17 12 16 17 15 14 17 17 17 18
20 18 15 12 7 8 0 5 4 2 5 15 16 8 12 14 2 13 10 11 14 9 9 8 9 7 9 5 6 9 3 4 6 11 9 18 8 19 16 15 15 18 19 19 17
21 19 17 17 21 13 3 4 5 6 7 8 12 14 13 14 8 5 14 12 3 7 11 5 6 2 9 2 3 4 4 6 8 10 9 14 10 3 12 12 17 15 18 18 19
23 21 20 14 8 8 8 7 6 9 7 11 17 18 17 10 10 10 13 14 11 10 10 13 8 4 5 6 3 7 7 8 5 4 8 5 5 13 7 3 6 16 19 20 19
22 22 21 22 14 9 10 8 12 11 13 6 15 16 16 13 12 12 12 16 18 14 11 11 8 11 7 10 5 8 10 5 6 7 7 6 7 3 8 3 2 15 20 21 21
22 21 21 27 23 13 16 13 14 6 13 9 11 15 17 13 7 12 15 15 15 15 9 16 5 7 1 3 5 6 7 5 3 0 5 10 6 9 5 5 7 15 20 22 22
23 17 22 21 25 12 11 19 20 6 5 11 15 16 16 15 11 13 14 13 6 4 8 3 3 4 6 6 6 8 3 4 4 3 6 4 4 6 7 6 8 14 20 22 22
22 13 16 24 26 16 13 18 18 8 10 14 17 15 15 15 15 15 12 6 7 9 8 7 8 7 5 10 11 7 8 6 4 2 4 3 2 7 4 5 8 12 18 21 23
27 11 23 29 17 17 15 20 25 15 11 11 9 13 14 13 12 11 16 11 11 8 11 5 4 7 11 3 5 9 8 9 6 6 3 3 5 4 5 3 7 10 16 20 23
25 17 24 33 14 14 19 21 24 17 12 13 11 13 12 11 11 12 11 6 6 8 6 6 7 9 7 6 6 8 10 8 7 1 9 4 3 6 8 4 5 9 14 18 22
24 10 10 22 33 23 23 21 19 21 13 15 15 14 10 12 11 10 9 4 6 6 0 1 12 10 10 8 5 12 12 12 12 8 10 11 13 5 9 7 7 10 12 17 21
17 16 19 15 22 23 24 18 22 18 13 15 12 15 14 11 14 8 10 7 7 6 6 5 9 13 14 6 8 8 9 10 15 17 15 12 15 10 7 5 9 11 12 16 18
13 20 28 23 35 22 22 23 24 20 16 15 16 19 16 10 11 11 12 10 8 9 8 5 6 4 5 7 9 11 13 13 14 17 18 18 18 15 12 8 7 12 11 15 19
26 17 28 23 24 19 19 24 21 20 5 10 20 17 12 2 7 9 6 2 4 8 10 6 4 4 7 3 5 6 15 18 17 17 14 15 16 7 8 6 10 9 10 13 16

GFSSW_850_spd_048.txt.gz
Wind_Speed
17 17 18 18 19 20 21 22 24 24 24 24 23 22 19 19 18 17 20 9 12 9 12 5 9 11 13 16 18 19 11 14 16 11 5 17 5 9 11 11 14 7 12 23 22
18 17 18 18 19 20 21 22 24 24 24 23 22 21 18 18 19 20 14 12 14 14 11 11 12 11 14 17 19 13 12 15 8 9 4 3 5 20 4 6 10 15 20 23 19
17 17 18 18 19 20 21 22 24 24 24 21 20 18 15 15 15 2 4 4 7 11 13 14 12 14 13 19 17 18 15 12 12 22 21 14 25 32 5 7 9 16 19 20 20
16 17 18 18 19 20 21 22 23 23 22 19 17 15 12 11 1 6 6 3 5 9 9 13 13 14 13 15 15 15 17 15 15 15 11 12 8 21 12 13 20 12 26 23 20
16 17 18 18 18 19 20 22 22 23 19 17 15 13 10 9 15 7 7 3 3 10 9 9 9 10 13 14 13 14 8 13 4 18 3 20 18 4 18 13 18 23 21 22 18
17 17 17 17 18 19 20 21 21 20 17 15 13 11 8 12 3 4 3 3 2 9 9 10 9 10 14 15 10 3 4 8 11 6 3 22 10 5 4 22 21 21 20 18 17
17 17 17 16 17 18 19 19 20 18 15 12 11 9 11 21 6 1 5 5 4 8 10 12 10 9 3 11 6 12 12 8 2 4 2 30 7 16 10 19 20 20 21 19 19
17 17 16 16 17 17 18 18 18 15 12 9 8 7 10 7 9 15 9 12 10 8 10 9 6 12 10 10 4 4 7 3 2 10 12 11 14 13 19 17 18 17 20 20 19
18 17 15 16 16 16 16 16 15 12 9 7 4 5 11 6 11 12 11 12 4 4 6 6 4 7 9 7 1 3 8 15 9 16 6 10 12 15 16 18 20 20 21 22 22
18 16 15 15 15 15 14 14 12 10 7 9 7 10 12 10 7 9 6 5 6 5 4 5 6 7 6 7 8 13 14 12 9 11 13 16 7 14 17 19 19 20 21 20 17
18 16 15 14 14 13 12 8 9 3 12 13 8 9 4 3 6 10 12 7 9 9 5 7 6 9 12 14 11 6 7 13 13 10 12 11 14 13 17 16 21 21 20 21 22
18 16 14 14 13 12 10 7 6 8 12 19 21 20 16 9 8 14 13 10 13 8 2 9 10 6 9 15 18 13 6 9 11 10 10 11 10 13 14 17 19 20 22 22 22
19 16 14 13 13 13 14 16 8 15 8 18 23 21 15 15 16 15 12 15 5 4 8 7 8 24 19 22 17 11 8 9 11 7 9 7 11 15 14 16 19 21 24 23 23
20 16 14 10 9 8 11 9 7 6 5 10 16 15 16 11 15 20 21 15 7 5 12 5 17 21 22 5 7 5 9 10 15 11 9 7 6 2 11 14 17 23 22 26 26
21 17 14 12 8 6 3 3 3 4 4 11 16 8 17 17 7 16 8 13 12 4 11 15 11 20 18 4 3 4 15 17 11 9 4 4 7 17 11 16 14 13 17 20 22
23 19 16 17 18 13 4 6 5 5 7 6 11 12 20 18 14 9 16 13 9 10 13 13 17 26 2 3 0 14 13 12 9 9 6 15 12 9 13 16 9 17 19 16 16
24 21 21 14 8 7 9 3 5 7 5 10 16 15 16 14 15 10 12 17 12 9 8 0 12 4 8 8 5 7 8 3 5 6 5 9 7 2 19 14 20 18 18 19 18
26 22 23 24 14 4 9 7 11 12 21 2 14 15 19 16 14 12 14 15 18 17 10 9 10 11 9 5 4 17 1 2 3 3 6 13 4 5 12 8 12 18 17 18 18
27 24 25 26 20 11 16 12 11 10 17 10 12 16 17 18 9 14 15 16 16 17 15 1 2 10 16 3 11 11 4 3 6 3 2 5 11 7 7 8 6 15 18 20 20
29 18 27 25 24 14 11 19 16 24 12 10 15 15 15 17 13 11 13 13 17 17 10 6 6 16 21 5 5 6 6 3 2 2 4 8 11 10 7 8 6 12 17 21 20
25 12 13 22 23 17 14 18 22 25 19 11 14 14 16 14 14 12 9 10 16 8 3 7 13 11 8 8 8 5 7 6 8 4 1 4 4 6 7 8 7 8 17 21 22
22 8 23 35 16 16 15 21 29 25 14 11 15 15 13 14 14 16 15 13 12 8 8 12 5 4 10 2 5 10 11 8 3 6 3 0 5 4 6 6 7 8 15 20 23
19 17 31 36 12 13 17 24 28 23 19 15 15 12 13 14 12 14 9 5 7 7 3 4 4 5 9 7 8 8 12 9 8 2 5 3 3 6 6 4 4 5 10 15 19
17 8 12 30 25 22 23 21 25 30 20 17 14 16 13 13 9 9 9 4 3 1 3 5 5 9 6 11 4 6 10 11 10 3 4 9 13 7 11 10 9 11 6 9 18
16 12 14 10 18 17 20 20 26 25 24 19 17 17 13 10 11 11 11 6 4 2 2 3 8 12 14 14 12 8 13 7 10 10 10 11 15 12 9 5 4 6 9 10 12
15 11 25 9 27 22 21 26 26 26 19 21 14 18 16 12 13 10 11 8 7 7 8 5 6 5 8 10 13 10 14 15 14 15 15 14 14 11 10 11 11 9 9 8 9
36 25 14 20 21 20 23 24 26 23 22 28 17 14 15 9 6 9 6 18 8 11 10 7 3 2 2 6 7 5 10 15 16 15 11 12 10 8 9 5 9 4 7 3 8

GFSSW_850_spd_054.txt.gz
Wind_Speed
14 15 16 16 16 17 18 19 19 21 22 23 24 25 24 24 22 18 11 7 2 5 5 5 8 4 7 7 10 5 3 3 6 7 2 4 4 3 10 6 4 3 6 16 25
14 14 15 16 16 17 17 18 19 20 22 23 24 23 22 22 19 5 6 5 4 8 6 6 7 7 5 6 4 4 3 7 4 3 5 6 5 3 0 2 7 17 21 29 26
14 14 15 15 16 16 17 17 18 19 21 22 22 20 19 18 11 3 7 7 4 5 3 7 9 9 6 7 7 4 7 6 1 9 16 11 5 5 6 4 10 22 28 29 30
15 15 15 15 15 16 16 17 17 19 20 21 21 18 16 13 2 1 6 6 4 2 2 5 3 2 4 4 8 4 17 12 19 16 10 6 5 2 3 6 19 25 19 27 30
16 15 15 16 16 16 16 16 17 18 19 20 19 17 14 9 9 6 4 6 3 0 2 5 6 9 4 6 10 3 6 9 24 21 14 9 6 3 2 11 15 20 24 33 36
17 16 16 16 16 15 15 15 16 17 18 18 16 15 12 7 2 3 2 3 3 3 2 7 6 11 13 5 3 7 17 19 15 13 13 7 3 3 4 13 14 17 25 37 41
19 17 16 17 16 15 15 15 15 16 16 16 14 14 16 17 3 6 6 4 7 7 4 5 10 9 9 6 11 3 12 8 4 4 5 8 2 3 6 23 24 22 32 39 35
21 18 17 17 16 16 15 14 15 16 15 13 12 13 11 3 11 12 12 9 9 10 11 9 11 10 2 6 5 3 4 4 5 11 5 16 4 5 8 22 22 24 30 34 34
21 18 18 17 16 16 15 14 15 15 13 11 9 8 12 7 9 13 14 11 9 16 18 8 8 4 5 3 4 4 3 4 2 5 3 3 4 6 16 17 22 25 34 38 39
22 21 18 17 16 16 15 14 14 13 12 10 10 9 8 2 12 5 15 13 11 6 5 2 1 3 4 3 2 2 3 2 5 6 2 2 6 5 15 23 24 28 34 37 40
20 17 18 17 16 16 14 9 7 3 6 10 5 15 16 8 6 5 6 13 16 4 2 1 4 2 3 3 7 8 12 6 6 11 7 12 6 7 16 23 24 29 36 39 42
21 18 17 16 15 13 12 8 1 5 12 18 19 26 27 22 10 10 7 4 6 5 1 4 4 7 4 3 4 8 9 7 9 4 15 5 11 5 10 18 30 33 36 37 36
24 20 17 15 13 11 9 6 7 11 6 13 19 19 22 11 11 13 8 4 4 6 5 6 7 3 3 4 6 5 5 6 7 4 6 5 2 5 3 10 19 25 40 43 44
26 22 17 13 12 8 3 6 1 5 2 7 6 8 14 10 6 19 14 6 2 7 5 5 0 4 3 1 2 12 9 12 5 0 1 2 3 2 8 12 11 24 27 36 40
27 24 18 16 7 10 3 2 6 3 3 4 7 5 14 14 1 8 17 10 6 5 5 5 5 5 3 6 8 11 3 2 7 3 3 3 3 6 4 7 9 22 33 42 44
27 25 22 21 19 9 6 7 11 2 7 4 10 9 7 13 3 3 9 17 9 6 3 3 3 5 5 2 4 4 4 6 6 4 2 4 5 5 6 11 15 16 35 36 40
28 27 27 22 18 11 8 7 2 5 5 5 6 7 7 7 4 5 3 5 5 3 2 3 3 1 2 6 6 3 5 2 3 3 5 6 4 9 4 7 8 10 16 30 37
28 29 28 27 17 10 11 2 9 7 7 4 7 9 8 6 6 6 5 5 1 5 2 5 4 2 2 3 2 4 3 5 3 3 4 4 4 6 7 12 13 18 18 13 31
27 30 30 30 23 12 7 10 8 6 5 4 5 7 5 6 5 6 8 8 8 8 8 4 3 5 4 4 6 3 2 6 5 1 3 3 4 6 6 7 9 7 11 15 24
30 29 37 30 26 18 5 11 5 9 7 4 5 6 8 9 8 7 7 6 7 10 10 7 1 3 5 2 5 6 5 2 3 2 3 4 4 5 2 2 1 4 13 17 25
27 15 25 34 25 12 13 9 9 28 8 3 2 1 8 8 9 7 7 7 8 6 10 6 4 5 2 5 8 1 2 1 4 5 4 1 5 5 8 8 10 11 18 24 28
28 8 22 39 13 8 15 14 12 24 18 8 4 7 4 8 8 9 10 9 7 11 9 7 5 4 9 2 4 4 5 5 5 4 1 4 5 4 9 10 14 18 23 31 30
17 13 26 36 12 11 8 20 16 13 6 4 4 5 3 4 3 7 7 2 2 7 9 8 1 2 7 6 4 3 5 5 4 4 6 5 6 3 3 5 16 15 22 31 34
16 8 13 30 32 20 17 13 20 25 19 15 10 7 5 2 4 1 3 2 3 4 10 8 5 7 8 7 4 3 4 4 6 3 4 6 6 6 8 8 11 13 12 25 34
18 9 17 13 18 15 17 13 17 12 18 12 9 16 10 5 3 6 3 2 2 10 3 4 5 4 5 3 3 1 0 1 4 4 5 7 6 9 4 8 16 13 3 6 24
15 10 26 4 25 17 18 21 24 20 9 15 16 13 6 7 7 5 7 4 5 2 5 2 3 2 3 3 3 3 3 4 5 4 4 4 5 6 6 13 15 11 16 15 9
25 24 27 19 17 17 19 19 22 21 17 28 15 15 12 11 19 18 20 22 12 10 7 6 6 3 4 3 3 5 6 6 5 3 5 5 4 2 7 11 13 15 14 13 10

GFSSW_850_spd_057.txt.gz
Wind_Speed
14 15 15 15 16 17 17 18 18 19 20 22 23 24 25 25 21 16 5 7 2 5 6 3 3 3 4 2 7 6 4 3 5 2 3 4 3 3 3 2 3 3 8 19 22
15 15 15 15 15 16 16 17 17 18 20 21 22 23 23 23 17 3 7 7 3 5 4 4 0 2 2 1 3 4 4 7 6 3 5 7 5 3 4 5 7 18 22 25 25
16 15 15 15 15 16 16 16 17 18 19 21 22 21 20 19 11 1 5 6 4 4 4 2 3 2 2 2 6 4 5 6 5 7 10 8 2 1 4 2 9 25 29 28 24
17 16 16 16 16 16 16 16 16 17 19 20 21 19 17 14 1 2 5 4 3 3 2 4 3 1 2 3 4 3 11 11 7 11 10 6 3 3 1 2 16 21 26 27 26
19 17 16 16 17 16 16 16 15 16 18 19 20 18 15 9 8 7 3 4 1 1 2 4 1 1 2 6 8 3 6 7 12 13 5 6 6 4 8 16 25 25 22 29 26
21 19 17 17 17 17 17 15 15 16 17 19 18 16 13 6 2 4 4 1 1 1 1 3 3 7 6 5 2 4 15 8 12 8 4 2 2 3 9 21 23 26 25 28 24
24 21 19 18 18 18 18 16 15 16 17 18 16 15 17 16 6 9 8 5 4 3 7 6 6 6 10 6 6 5 6 5 2 5 2 2 1 3 6 23 25 25 27 30 29
25 23 20 19 19 19 19 17 16 17 17 17 14 14 11 8 11 12 9 7 5 5 8 10 13 9 4 6 4 4 4 3 5 2 3 7 4 4 22 27 23 26 27 31 37
25 23 22 19 19 19 20 17 17 18 18 15 13 9 11 3 5 12 12 12 7 7 12 10 8 4 2 2 4 2 4 2 3 9 2 4 2 7 23 22 21 25 26 32 36
25 23 21 20 18 19 19 17 16 16 15 13 13 8 9 3 3 5 13 15 10 6 1 0 2 2 3 4 1 2 4 1 5 1 3 5 7 4 23 21 20 25 28 30 34
23 21 19 18 18 18 17 12 9 7 8 10 2 7 11 8 7 5 7 14 11 2 3 1 3 4 7 6 3 3 4 7 8 12 9 9 5 5 17 19 15 22 27 33 33
23 20 19 17 17 15 13 8 4 3 12 18 23 29 27 22 8 10 7 7 7 5 3 4 4 7 4 2 4 2 2 7 9 6 8 5 9 5 8 13 28 29 30 35 35
22 21 19 17 16 15 12 6 8 12 6 13 17 19 25 16 10 14 9 8 4 5 5 6 5 1 3 3 3 3 4 5 7 6 3 3 4 5 5 9 22 28 38 38 40
22 22 19 17 14 15 9 1 3 4 2 6 5 8 15 11 6 21 11 9 1 9 6 5 3 5 2 5 4 5 6 4 2 2 3 3 4 4 7 11 12 22 30 37 43
21 23 21 20 10 9 8 1 5 3 3 4 5 5 18 19 1 10 21 8 8 5 6 6 6 5 5 7 5 6 3 2 2 3 1 3 3 5 5 8 14 22 28 40 46
22 23 23 24 24 11 8 1 9 4 7 3 9 7 7 7 2 2 12 10 5 5 2 4 2 4 6 4 3 3 4 5 3 2 2 3 3 5 5 15 15 21 30 40 46
24 24 27 26 26 17 12 8 3 4 5 5 6 6 6 7 3 2 6 6 6 4 3 1 3 2 2 2 3 5 5 3 4 4 5 4 2 8 5 7 8 15 31 39 45
26 24 29 30 26 14 12 3 8 7 6 5 4 5 8 5 5 6 6 5 4 4 4 5 5 4 1 3 4 2 6 5 4 2 4 3 4 6 5 9 5 17 30 37 39
25 26 31 34 29 16 8 12 8 7 4 4 4 5 4 5 6 4 8 8 9 8 8 5 4 2 3 2 3 1 2 3 6 3 3 3 6 9 7 3 4 8 17 20 32
27 24 36 35 31 22 5 14 6 6 4 4 8 6 8 7 7 7 8 5 6 10 7 7 1 3 1 2 5 4 4 3 2 2 3 4 4 5 6 7 0 5 14 19 24
27 11 20 34 30 16 12 9 7 16 7 3 3 1 7 8 9 6 7 5 7 5 6 5 5 2 2 5 6 2 3 3 4 4 4 1 5 6 7 7 7 4 10 16 20
30 6 24 37 11 10 14 8 9 22 12 3 3 4 4 8 8 9 10 8 14 12 10 7 6 5 10 2 3 4 7 5 4 4 1 4 6 4 9 8 9 13 9 11 17
23 18 30 36 11 12 9 16 9 9 6 7 5 1 4 4 5 7 7 7 10 8 9 8 1 2 7 5 3 5 5 4 5 4 6 5 6 3 7 8 17 17 18 16 22
15 9 14 29 37 18 17 13 17 21 15 3 3 2 1 3 3 4 6 2 4 10 13 13 4 7 6 8 3 3 3 5 5 3 4 6 6 6 8 7 7 18 20 17 24
18 12 16 12 21 16 16 11 20 10 18 19 5 7 3 3 4 4 3 3 2 7 3 5 6 5 4 3 4 3 4 6 6 5 6 6 7 8 6 8 12 15 9 10 16
18 10 21 5 26 24 19 19 20 18 6 8 12 7 9 10 7 3 4 4 5 3 4 2 3 3 3 2 2 4 6 4 4 3 6 5 6 4 1 6 12 6 8 6 4
45 15 15 10 18 19 26 21 19 18 19 21 16 13 9 13 16 21 19 8 6 10 7 5 6 4 5 2 2 6 8 8 6 5 5 6 8 3 4 8 10 12 11 10 9

GFSSW_850_spd_060.txt.gz
Wind_Speed
16 15 15 15 15 16 17 17 17 19 20 21 22 24 25 25 20 11 6 7 4 5 4 2 1 2 1 3 3 2 4 2 4 3 4 3 1 1 1 4 6 4 10 15 15
17 16 16 16 16 16 16 17 17 18 20 21 22 23 24 23 16 2 4 6 2 2 2 3 3 2 2 2 4 4 3 7 5 4 4 3 3 3 1 4 7 11 12 20 15
19 18 17 17 17 17 16 17 17 18 19 21 21 22 21 19 11 1 3 5 3 4 4 2 3 2 1 2 4 5 6 6 8 12 7 5 0 2 3 2 8 15 21 20 20
22 20 18 17 17 17 17 17 17 18 19 20 22 21 20 14 1 3 3 4 2 4 3 4 5 3 1 2 3 3 9 6 1 9 7 6 4 2 4 4 7 11 21 24 19
24 23 20 19 18 18 18 17 17 17 19 20 21 21 18 10 10 8 3 2 1 3 4 5 3 1 1 3 4 2 4 2 6 10 6 8 2 4 2 5 17 17 19 20 18
26 26 23 20 19 19 19 18 18 18 19 20 21 19 16 6 5 8 6 3 1 2 4 3 2 5 4 3 1 2 5 3 5 4 3 5 3 2 5 16 19 16 16 15 15
28 26 25 22 21 20 20 19 18 19 19 20 20 19 19 20 8 9 10 7 4 1 2 2 2 8 6 2 5 4 4 4 2 1 2 2 2 3 16 19 20 13 16 19 19
26 26 25 23 21 21 21 19 19 19 20 20 19 17 13 10 10 14 11 9 6 5 6 6 7 8 2 1 3 3 4 4 1 2 2 1 5 2 19 22 16 17 17 22 25
24 24 24 23 21 22 21 20 19 20 20 19 16 10 12 5 6 11 13 10 7 6 9 8 5 1 3 4 4 5 1 2 4 6 2 2 3 4 22 22 17 18 21 26 25
21 23 22 21 19 21 21 19 19 19 17 13 13 7 13 4 4 7 15 11 9 7 3 3 2 3 3 4 2 2 2 2 4 4 3 2 7 5 20 21 22 20 21 25 28
21 22 21 18 17 19 20 14 10 7 9 11 3 7 7 6 7 6 10 11 10 4 2 1 4 3 7 5 8 5 4 2 4 6 3 8 7 8 18 14 18 23 23 27 30
21 20 18 16 14 17 15 12 6 4 11 18 23 31 28 25 8 9 9 9 6 5 3 4 3 4 3 2 4 2 2 4 6 2 5 5 7 4 12 18 25 29 29 29 27
22 18 17 14 15 16 16 12 10 10 6 14 19 19 27 19 12 14 14 9 5 5 5 5 5 4 5 4 3 3 4 3 5 3 2 1 5 4 7 15 22 27 31 31 32
23 17 17 11 15 18 16 6 8 6 3 7 6 8 16 12 6 18 18 10 2 9 7 4 3 4 4 5 6 5 5 3 4 0 1 0 3 5 5 8 9 23 30 34 34
23 17 19 18 9 6 5 3 3 3 3 3 4 6 12 19 9 15 18 9 8 6 6 6 4 4 4 6 5 8 4 5 3 1 3 2 3 7 3 6 12 17 29 38 38
22 19 20 24 21 17 10 5 7 2 7 3 8 7 7 5 4 7 13 8 5 5 1 4 2 5 6 3 5 0 3 4 4 3 1 2 4 5 5 8 6 7 26 37 39
22 23 23 25 22 22 18 6 3 5 3 4 5 6 5 6 3 5 7 7 6 5 3 2 3 2 3 1 1 3 5 3 4 3 5 2 1 9 1 5 9 12 30 41 41
25 25 26 31 21 14 9 3 10 5 6 4 2 5 8 6 5 5 7 7 3 5 4 6 4 6 3 4 4 1 5 4 2 2 4 5 4 5 4 8 9 14 24 36 38
25 26 29 32 25 22 10 10 6 7 4 3 3 5 5 5 6 5 7 9 9 8 7 5 5 2 2 2 3 2 2 3 6 2 2 4 7 9 4 4 6 5 7 20 31
27 26 37 33 31 24 5 17 7 4 3 3 7 5 9 7 6 8 8 5 6 10 5 8 0 1 2 3 1 1 6 3 3 1 4 4 5 5 8 6 6 8 7 5 14
27 13 18 34 33 17 12 12 12 18 6 3 2 3 7 8 8 6 10 3 8 6 5 5 5 3 1 5 7 3 1 4 4 4 4 1 5 7 7 5 3 4 6 8 11
28 8 15 38 19 12 14 8 15 17 7 3 3 4 5 7 6 7 10 9 14 14 9 6 5 5 9 1 4 5 8 6 4 4 1 3 6 5 9 6 5 7 6 5 7
18 17 19 48 13 17 10 11 5 8 6 4 4 4 2 3 5 6 7 6 15 8 9 8 1 1 7 5 3 3 4 4 5 3 7 5 6 3 7 8 11 13 11 10 10
14 8 14 34 41 18 19 14 21 11 10 2 4 3 2 2 4 5 7 2 12 10 8 11 4 7 9 8 5 4 6 6 6 4 4 6 6 9 8 7 11 12 15 14 14
18 9 14 12 20 19 21 15 19 17 15 11 4 5 2 2 2 4 2 2 2 6 6 6 7 6 5 4 6 6 5 8 7 6 7 7 8 9 6 6 10 13 14 13 16
13 9 17 13 29 23 15 23 25 21 8 10 7 6 6 4 4 4 2 1 4 5 7 2 5 4 4 1 0 3 7 8 5 3 5 5 6 7 2 3 5 4 3 3 3
23 24 18 16 19 18 25 23 21 18 24 9 19 13 6 15 17 10 10 10 6 2 6 8 7 4 4 2 4 5 8 9 7 6 8 8 11 6 3 3 3 6 8 10 11

GFSSW_850_spd_063.txt.gz
Wind_Speed
18 18 17 16 16 17 17 16 17 17 18 20 20 22 23 24 19 8 2 4 3 8 8 5 4 5 3 5 3 2 1 3 4 3 4 1 2 3 2 5 3 1 7 11 16
21 19 18 17 17 17 17 17 18 18 19 19 20 21 22 23 19 2 0 3 2 6 6 6 5 7 4 5 5 3 3 6 6 4 2 1 2 4 4 4 3 3 5 16 16
21 21 20 19 19 18 18 18 18 19 19 20 20 21 21 21 13 5 2 2 1 6 5 5 7 6 3 4 5 4 5 4 6 11 3 3 2 2 2 5 9 12 17 18 18
23 23 22 20 20 19 18 18 19 19 20 20 21 21 20 17 2 4 3 2 2 7 6 7 7 5 2 3 5 3 9 7 5 3 4 4 3 0 4 2 4 10 14 17 17
26 25 23 22 21 19 19 19 19 19 20 20 20 21 20 11 11 10 5 1 4 6 6 7 5 3 2 3 2 3 3 5 4 5 4 3 3 2 3 5 9 13 15 14 14
27 26 26 23 23 21 20 19 19 20 21 20 20 20 18 7 5 7 8 5 5 6 7 5 1 1 1 2 1 3 1 4 6 3 2 1 2 1 2 6 13 14 15 13 13
25 27 26 24 22 22 21 19 19 20 21 20 21 20 21 20 8 10 13 8 4 4 4 2 2 3 3 1 3 1 1 3 2 3 1 2 4 4 4 11 13 11 11 13 14
22 21 24 24 22 23 22 19 19 21 22 21 20 18 13 14 11 14 14 11 7 5 3 5 4 5 2 1 3 2 2 2 1 3 2 4 5 3 10 15 13 11 10 12 18
22 20 21 21 22 21 22 19 19 22 22 20 16 10 12 8 8 12 16 12 8 5 4 7 4 2 2 3 2 4 1 1 3 5 3 3 5 2 12 13 12 12 12 14 18
22 20 18 19 19 19 19 17 17 21 20 14 14 6 13 4 5 9 13 13 9 5 3 4 3 1 2 2 2 4 2 3 5 2 5 6 10 4 13 14 12 12 14 19 21
21 20 18 16 16 14 17 12 9 7 9 12 4 6 3 5 6 8 12 14 10 5 3 1 2 4 7 5 2 2 3 3 3 5 4 5 9 10 15 14 12 15 18 20 25
19 18 17 13 10 14 13 9 6 5 11 20 25 31 28 21 7 8 11 11 8 5 4 1 5 4 2 4 2 2 4 4 2 3 3 6 9 5 16 20 21 19 19 21 21
19 16 13 11 10 13 14 13 11 8 6 13 23 20 26 21 14 14 15 10 4 5 6 5 2 5 5 3 4 4 4 3 5 3 2 4 4 3 7 12 13 19 20 19 23
19 17 11 10 10 13 15 8 8 8 3 6 6 8 17 13 7 25 18 12 2 9 8 4 2 4 3 4 6 5 6 6 3 1 1 2 3 3 5 10 13 23 22 26 27
20 18 14 16 6 6 3 4 3 7 4 3 4 5 11 17 12 18 22 9 8 6 6 5 4 4 3 5 6 5 2 2 1 3 2 1 1 4 0 8 17 24 29 30 34
23 20 17 19 23 14 11 4 6 2 9 2 7 7 7 7 4 11 11 7 7 5 0 3 1 3 6 3 4 5 4 5 3 1 1 0 2 4 4 4 4 14 25 32 34
25 23 22 21 19 19 16 7 3 7 5 4 5 6 4 6 5 5 11 7 8 6 5 0 2 2 3 3 2 3 4 1 1 1 2 3 1 8 4 7 6 10 15 29 37
27 25 25 27 17 17 12 3 12 6 6 4 2 5 7 5 4 4 10 12 3 5 4 6 3 7 4 4 5 5 4 4 3 2 1 2 4 3 5 11 12 12 13 13 25
27 29 28 32 30 19 10 8 7 6 4 4 2 4 4 4 5 4 7 14 10 8 8 6 5 1 4 4 3 4 3 2 6 2 1 2 4 8 2 6 6 9 10 7 14
29 32 32 33 30 23 8 21 7 6 0 1 5 5 10 7 6 8 9 7 8 8 6 7 2 2 1 2 4 2 8 3 1 3 3 3 3 3 6 6 4 4 6 6 5
27 19 20 33 30 18 13 19 15 8 2 0 2 3 5 7 7 6 9 1 13 9 5 5 3 2 2 4 8 3 2 3 3 2 3 2 4 6 5 2 5 4 3 3 4
27 10 20 33 19 16 18 18 17 24 3 1 2 3 4 6 5 7 10 5 17 17 10 7 4 4 6 1 2 2 6 6 3 4 1 1 6 5 8 5 7 12 8 4 3
16 22 27 45 14 15 17 22 17 14 11 6 3 4 2 3 4 5 6 5 18 9 12 8 1 3 1 1 2 2 4 4 5 3 7 5 5 2 4 6 7 11 10 9 6
17 7 14 32 37 23 21 19 21 24 10 5 3 1 2 3 4 5 6 3 16 9 15 15 4 6 9 8 5 4 6 7 6 4 5 7 10 8 8 5 11 10 10 10 11
21 6 13 12 22 20 21 20 27 16 23 17 3 10 2 3 2 3 2 2 3 6 5 5 7 6 5 5 5 6 5 12 11 10 8 11 11 10 7 5 6 9 9 11 10
16 6 20 8 36 23 18 22 27 23 12 18 15 9 15 4 4 4 6 1 1 0 4 2 4 5 4 3 6 5 6 8 9 5 9 8 8 10 6 5 4 4 1 1 2
34 33 22 24 20 18 21 23 17 20 21 7 15 2 5 20 5 6 3 6 4 2 4 5 6 4 5 1 5 4 7 9 5 6 6 9 10 3 5 4 3 2 7 9 11

GFSSW_850_spd_066.txt.gz
Wind_Speed
19 18 18 17 16 16 16 16 17 18 19 19 19 20 21 22 20 9 1 2 4 9 9 8 8 7 5 5 4 4 6 4 3 4 2 1 4 2 2 2 3 3 3 1 14
17 18 18 19 18 17 17 17 18 18 19 20 20 20 21 22 20 4 5 2 4 9 8 8 8 9 6 6 4 8 6 3 3 4 8 4 7 3 4 3 4 2 2 6 13
21 23 21 21 19 19 18 18 18 19 20 20 20 20 20 20 13 5 6 2 4 8 8 7 6 8 8 5 7 4 10 5 8 10 11 8 7 3 5 5 4 3 8 11 13
25 23 22 21 21 19 19 18 18 19 19 21 21 21 20 15 5 5 6 4 6 10 8 7 7 8 8 7 5 8 8 11 10 8 7 7 2 3 5 5 6 2 10 11 10
25 27 26 23 22 21 21 19 18 19 20 21 21 22 20 8 10 12 9 5 7 10 9 8 9 6 7 3 4 8 6 5 4 2 3 2 2 4 3 5 8 10 10 9 9
21 23 25 27 25 20 23 22 19 19 19 21 21 21 15 11 7 7 10 7 9 9 8 8 3 3 4 4 5 1 2 1 4 5 3 5 2 4 6 7 10 11 8 7 7
20 21 21 24 25 23 20 24 20 20 20 20 21 21 18 19 10 10 12 11 8 8 8 7 4 3 2 4 1 3 6 5 4 3 1 5 10 4 5 8 10 10 9 6 6
20 19 21 20 21 23 22 24 21 21 21 21 21 17 13 13 11 12 15 13 10 9 9 6 5 5 5 1 4 6 5 7 8 5 1 4 6 5 7 12 11 10 10 9 11
21 20 19 19 18 19 19 22 18 21 22 21 16 9 12 11 11 14 17 13 11 10 9 6 6 5 5 10 8 7 5 3 4 7 1 5 9 6 7 10 12 11 13 14 15
19 20 19 17 16 16 18 17 16 19 21 16 13 7 15 4 6 9 16 15 7 9 5 8 8 9 9 9 11 7 8 6 8 5 7 10 10 3 8 11 12 12 15 16 19
17 18 17 15 13 13 11 9 7 6 9 12 5 6 2 4 6 10 14 16 12 12 12 9 8 11 9 11 7 7 5 5 6 2 7 6 10 2 9 12 13 13 16 18 19
19 15 16 13 11 9 8 5 5 5 12 19 25 27 23 9 4 11 16 17 15 15 9 7 11 6 2 6 7 8 7 7 3 1 8 7 7 4 10 12 13 16 17 19 20
20 15 15 11 10 11 10 8 11 8 8 12 19 19 17 20 13 16 20 21 18 17 15 13 2 3 8 8 9 10 9 5 7 9 4 7 7 6 7 11 12 14 15 17 20
21 17 14 9 8 10 10 7 7 3 5 6 8 10 16 13 12 22 23 20 8 19 15 12 7 7 8 10 9 9 4 10 8 6 2 2 2 4 7 10 13 17 19 20 20
22 20 16 14 7 6 5 2 4 6 6 7 5 6 10 23 13 24 24 15 18 12 10 11 10 11 11 13 10 4 1 5 6 8 5 6 7 7 5 8 13 18 22 23 24
30 20 19 16 19 13 15 7 9 4 10 4 7 9 10 18 8 20 20 14 15 12 11 11 3 5 2 4 10 7 5 3 3 4 6 2 5 2 1 4 2 3 19 25 26
31 23 25 17 17 16 15 3 6 9 1 7 6 8 13 13 12 16 24 22 16 16 17 15 13 5 6 8 6 9 7 5 5 5 3 4 5 7 5 2 7 8 7 12 26
30 25 27 24 20 17 16 4 13 7 12 2 3 8 11 16 14 15 24 22 23 19 12 16 15 14 11 10 7 14 10 4 6 5 4 3 5 2 1 5 7 7 9 9 15
27 27 29 28 27 19 13 13 13 12 6 5 6 7 9 14 9 14 22 25 24 22 15 16 15 5 7 4 9 6 8 1 1 2 2 4 5 11 3 4 1 3 3 2 7
29 29 31 31 28 25 10 26 17 15 6 6 9 10 12 14 12 16 19 19 25 25 20 7 13 8 8 6 3 6 10 5 4 4 6 5 5 5 1 5 1 2 6 4 1
27 16 20 34 27 19 14 25 26 16 10 6 10 3 6 10 19 16 13 5 25 21 21 14 9 7 7 11 12 6 8 4 2 3 4 3 4 2 4 2 2 1 2 3 2
29 6 20 41 17 10 19 29 16 28 15 6 3 4 3 7 14 18 19 13 27 26 23 18 9 9 13 4 5 9 12 14 7 8 4 4 8 9 10 5 6 6 7 5 3
23 13 20 40 12 14 26 30 28 15 28 9 7 6 1 4 6 17 11 12 16 20 21 16 10 10 11 7 5 8 11 11 7 2 11 8 7 3 5 7 10 11 6 8 7
20 7 13 32 39 30 26 25 30 31 20 31 5 9 5 4 7 1 9 4 16 24 19 24 14 18 14 12 10 14 13 14 14 9 11 12 16 12 13 13 12 10 7 7 7
25 11 18 14 19 28 29 22 28 26 34 22 21 13 11 4 3 6 5 3 5 6 11 13 18 17 17 15 13 16 16 17 18 17 16 13 15 13 14 13 13 6 5 5 6
20 11 33 16 39 32 30 30 29 33 24 27 18 23 16 5 4 4 5 2 3 5 9 9 13 12 13 11 13 15 17 17 18 16 12 17 17 13 17 8 8 6 4 2 2
38 32 31 22 27 22 24 32 30 29 33 31 25 15 12 18 13 7 5 4 4 1 8 6 10 7 13 5 5 7 15 15 14 12 14 15 15 13 11 13 12 7 4 4 5

GFSSW_850_spd_069.txt.gz
Wind_Speed
19 18 18 20 19 17 17 18 18 19 20 21 21 21 22 22 20 14 5 7 6 7 6 6 8 8 9 12 9 10 12 10 5 5 5 3 9 10 3 10 4 6 8 7 3
24 22 20 22 20 21 19 18 18 19 20 22 22 22 21 22 22 14 11 8 5 9 7 8 8 10 14 9 6 11 13 6 7 10 8 9 12 12 4 8 11 4 2 1 4
26 26 25 23 24 23 22 19 18 19 20 21 22 22 21 21 15 3 10 7 5 9 7 9 8 11 16 9 11 12 11 14 6 4 10 10 9 5 13 14 13 13 5 3 4
20 23 26 27 26 25 22 23 21 19 20 20 22 22 21 14 6 2 9 7 7 10 8 9 10 13 14 12 9 10 14 8 13 8 10 10 4 12 6 12 8 6 4 5 4
21 21 21 23 26 26 26 26 24 22 21 21 21 21 22 9 14 13 12 9 8 10 11 11 12 14 14 7 5 11 9 8 6 8 9 5 9 6 5 4 5 7 6 4 3
20 21 21 21 21 24 25 25 25 23 23 21 20 20 13 19 9 11 11 10 9 13 12 12 11 8 12 9 8 4 9 7 6 5 7 9 8 11 10 7 6 6 6 3 3
21 21 21 21 20 20 21 23 26 24 23 22 19 20 15 27 10 8 12 10 10 12 11 12 9 10 5 11 8 14 15 10 17 8 1 9 11 12 13 10 10 8 8 7 5
19 20 22 21 22 20 20 22 23 21 22 21 20 15 13 12 10 15 14 13 11 12 11 8 9 11 11 9 12 15 20 14 11 20 3 11 5 31 11 11 11 10 9 12 16
20 19 20 21 20 20 20 21 18 18 20 18 15 8 15 14 18 18 17 18 15 12 11 9 9 14 12 11 15 16 12 15 10 6 6 4 3 7 8 8 9 10 13 11 16
22 19 17 19 18 18 18 18 16 18 16 11 11 9 21 11 9 12 20 20 18 13 13 13 12 12 14 13 13 4 12 3 10 7 10 8 10 3 7 9 11 10 12 13 16
20 19 16 18 15 15 15 12 9 6 14 15 6 17 4 8 8 12 20 21 18 18 16 20 12 14 16 14 15 11 10 11 7 5 6 2 15 7 11 8 10 13 15 15 17
19 18 18 15 16 11 10 6 6 6 14 21 29 29 23 4 7 16 21 23 22 18 20 13 14 17 4 6 8 10 12 11 7 1 7 12 5 8 12 15 15 16 18 18 19
23 18 17 15 16 13 12 10 8 6 10 20 29 32 32 26 19 21 26 30 22 21 20 17 13 10 7 9 10 11 12 10 8 9 10 10 6 9 11 12 14 17 18 21 23
20 20 15 14 11 10 12 8 8 5 6 12 9 12 30 27 18 27 27 30 18 22 21 17 17 9 12 12 10 13 10 7 11 13 2 15 3 18 15 14 14 17 20 22 24
17 22 15 16 10 7 1 6 7 3 7 2 11 4 14 26 8 31 30 31 25 21 16 18 18 12 15 14 12 13 1 8 11 11 14 5 8 9 12 13 17 17 21 22 23
21 23 19 18 18 15 6 2 9 7 13 7 8 10 12 29 23 15 33 33 27 20 19 20 16 15 18 8 10 6 7 10 10 12 9 12 6 12 9 5 6 14 22 22 24
21 22 25 17 18 15 11 9 7 13 3 14 8 11 16 17 23 17 29 28 22 22 22 21 15 14 6 10 10 10 12 7 6 6 9 5 5 12 1 5 2 4 6 15 23
21 19 27 22 22 12 14 7 16 18 29 5 3 11 13 14 22 19 25 24 26 25 14 17 20 21 15 16 11 16 15 6 7 7 8 9 6 1 5 2 4 4 7 8 14
23 22 25 27 27 23 16 13 21 27 13 29 5 11 12 14 13 21 26 27 29 26 19 19 22 23 17 16 14 14 16 12 7 3 4 7 8 9 4 4 2 1 3 4 7
28 23 31 25 28 23 8 20 24 22 25 15 22 13 13 14 15 19 23 26 28 30 23 6 16 11 15 10 12 12 12 9 8 9 9 13 9 6 7 3 5 3 4 4 1
30 16 19 26 26 18 11 23 31 30 23 18 16 22 11 11 18 14 13 15 28 28 24 18 11 16 12 17 17 12 11 9 10 12 7 8 6 8 2 4 4 3 1 2 3
33 8 19 33 15 9 17 28 37 37 32 17 9 15 14 13 16 19 13 21 15 25 28 23 11 12 16 16 19 18 19 18 9 13 9 9 11 11 6 11 4 8 6 5 3
18 12 20 42 13 15 31 35 32 29 30 22 17 16 14 9 7 16 15 12 8 24 25 21 14 12 15 11 7 12 17 14 17 13 13 10 9 7 4 4 10 11 11 7 9
15 6 13 41 41 30 32 34 32 41 31 31 19 17 14 14 10 2 13 11 12 15 25 23 17 20 16 17 15 18 19 19 16 10 13 15 17 14 11 13 12 14 11 10 7
21 12 20 14 24 28 27 21 32 33 37 33 25 19 17 11 11 7 4 5 7 13 10 18 23 19 21 19 13 17 19 21 19 18 19 16 18 16 10 8 12 10 5 5 10
17 16 33 14 34 32 26 29 33 33 30 34 28 24 18 17 8 9 2 8 9 12 14 20 16 22 21 18 18 15 15 17 18 19 19 19 20 14 16 12 9 12 8 8 5
42 43 31 25 24 22 26 32 35 32 37 39 30 24 24 16 7 5 7 9 11 9 14 15 15 17 17 19 19 18 18 17 17 18 16 17 14 15 12 10 12 15 7 9 6

GFSSW_850_spd_072.txt.gz
Wind_Speed
24 24 24 25 21 22 22 21 19 20 20 20 21 22 23 25 24 21 15 10 10 9 6 3 7 10 11 14 17 14 11 10 13 15 7 1 10 8 14 18 21 5 12 15 9
23 24 24 25 26 26 25 26 25 22 23 23 22 22 22 25 25 24 14 16 12 10 8 8 9 9 13 20 11 10 10 4 16 10 10 11 10 5 3 19 23 33 16 16 12
20 21 22 24 25 26 26 25 26 25 25 25 25 24 22 22 21 2 4 12 9 9 10 10 12 12 14 21 13 16 12 14 15 14 12 12 11 2 16 4 11 8 11 13 8
20 20 21 20 22 25 26 25 24 25 25 25 26 26 23 16 6 3 7 9 9 9 12 11 12 13 13 18 18 12 13 14 15 16 16 11 14 7 18 10 8 13 15 14 9
21 21 21 21 21 21 23 24 24 24 24 24 24 24 24 10 20 14 13 14 12 11 13 13 14 14 14 18 16 9 12 12 11 10 15 17 10 16 11 3 8 9 12 14 11
21 21 21 21 21 21 21 21 22 23 25 23 20 20 16 20 10 11 12 14 14 13 12 15 14 14 15 18 15 16 11 16 8 24 19 12 16 6 23 8 7 6 11 12 11
21 21 21 21 20 20 20 21 21 21 23 22 18 17 18 32 14 10 12 13 13 15 15 14 15 13 16 14 14 16 14 8 8 8 20 23 15 8 19 18 12 10 13 13 10
20 20 21 22 21 20 20 20 21 18 20 17 16 14 18 19 11 19 20 15 15 16 16 12 11 12 17 17 21 16 17 12 17 15 21 24 8 4 17 31 26 16 18 18 17
19 19 21 21 21 20 20 19 19 17 18 15 15 9 17 11 18 21 20 21 16 15 15 13 9 14 16 16 13 14 15 15 8 16 19 12 8 15 19 33 23 20 20 20 23
16 18 19 21 20 19 19 18 15 19 14 8 12 11 22 16 11 13 21 21 20 17 16 15 11 12 14 12 13 5 12 9 8 11 9 14 7 3 24 39 12 23 25 22 22
19 16 17 18 21 18 16 15 8 5 9 12 8 14 21 4 8 7 18 23 22 23 16 21 12 15 20 19 20 12 14 16 5 17 6 10 6 12 8 8 11 15 15 19 19
17 20 17 18 19 18 12 7 8 7 13 22 31 31 32 21 11 16 17 24 25 20 20 16 18 19 21 18 9 12 11 15 9 9 2 10 6 9 10 8 14 16 15 19 19
17 17 19 17 19 18 14 16 12 13 11 23 33 34 39 31 29 18 24 31 20 21 21 20 18 19 19 8 9 10 13 14 11 6 12 13 13 7 14 17 17 20 20 22 24
19 17 16 13 14 8 12 12 12 8 7 13 17 12 38 29 28 34 26 31 23 23 22 21 22 12 11 10 13 13 9 14 9 10 7 8 9 15 12 12 12 20 26 25 25
20 17 16 14 10 8 4 6 3 4 6 6 18 5 11 30 8 29 36 32 27 24 16 21 21 18 14 15 15 13 8 9 11 12 14 9 10 4 7 18 16 13 26 30 30
23 19 16 19 15 15 4 3 5 6 11 6 9 9 12 28 30 7 37 32 32 26 21 21 21 19 21 14 14 14 13 10 12 12 10 14 8 6 4 11 15 19 23 29 36
22 20 21 18 18 8 17 10 5 11 11 13 13 12 16 18 25 24 26 26 23 22 21 21 23 18 15 18 14 11 10 7 6 7 7 3 9 5 16 14 2 2 24 26 31
22 21 22 22 16 12 12 4 15 21 32 5 18 17 17 17 20 23 21 24 24 23 16 17 16 23 13 14 13 14 14 5 6 4 4 4 6 3 11 11 6 5 5 12 19
23 25 26 20 21 16 8 10 17 28 24 27 11 13 15 16 13 19 25 22 22 27 23 16 21 20 17 14 19 14 15 17 7 10 5 7 13 10 8 5 4 3 1 9 14
28 28 33 21 20 21 9 17 24 33 35 27 27 15 13 16 15 13 22 17 24 26 20 19 15 22 23 20 18 17 11 13 8 5 10 8 10 8 9 7 7 6 7 7 1
30 16 19 26 26 19 14 24 33 42 36 29 25 21 25 13 17 17 12 15 15 18 22 22 12 14 17 18 18 12 12 10 13 10 8 5 3 10 4 2 8 5 9 4 6
30 7 19 36 18 14 23 33 41 30 39 30 25 29 19 22 10 17 15 14 6 20 24 24 9 13 18 16 17 17 16 16 8 10 7 6 9 3 5 3 5 3 6 7 7
16 13 24 45 14 18 20 31 29 27 31 27 28 28 15 17 19 14 15 8 6 16 22 18 17 11 16 17 16 17 20 17 15 12 13 7 4 8 7 4 6 4 10 11 12
15 6 13 39 29 23 22 24 27 39 29 36 25 22 25 17 14 8 12 9 7 10 17 14 17 15 11 12 12 16 19 18 16 8 9 12 12 12 13 8 11 11 8 17 9
20 10 19 14 21 23 21 17 31 29 36 38 27 26 16 19 18 16 15 3 8 9 7 4 14 19 19 19 17 18 20 19 20 16 14 13 16 15 12 1 4 5 3 10 16
16 13 30 18 27 23 24 27 31 27 26 34 30 25 15 22 20 10 16 13 7 1 7 8 13 14 20 20 22 16 20 21 21 20 19 14 17 14 16 17 13 10 5 6 5
43 36 24 18 16 20 27 28 29 27 29 37 32 26 16 14 24 4 9 1 3 9 8 12 8 13 16 19 17 18 16 13 13 14 13 13 10 11 9 10 9 4 5 7 7

GFSSW_850_spd_075.txt.gz
Wind_Speed
21 21 23 24 24 25 24 25 24 24 23 24 25 25 25 28 26 25 22 12 9 7 8 3 4 5 5 14 15 21 3 7 9 8 6 4 3 4 5 5 9 5 4 10 6
20 20 21 22 23 24 25 25 24 24 24 23 24 26 24 27 29 25 7 8 13 12 10 6 9 9 12 17 19 5 3 10 11 7 4 10 10 7 3 6 6 3 2 7 4
20 20 20 20 21 21 22 24 24 23 24 24 25 24 22 23 24 5 6 4 10 10 9 11 14 15 18 21 26 17 8 9 13 17 14 11 10 5 12 2 5 6 10 7 9
22 21 20 20 20 20 20 20 22 22 22 23 24 24 21 18 5 1 11 8 9 9 10 12 8 15 8 8 27 5 21 9 12 11 17 11 22 7 31 9 12 11 12 10 8
20 22 22 21 21 20 19 19 19 19 20 21 21 21 22 8 23 19 12 11 13 13 13 14 14 19 8 9 16 8 6 9 5 9 12 21 11 3 11 11 18 9 10 7 3
21 22 23 22 21 20 20 19 18 17 18 19 18 18 16 13 14 4 13 18 16 16 15 14 14 19 21 13 9 21 15 8 4 10 11 5 8 6 3 10 23 6 12 6 3
21 21 23 24 23 22 20 20 19 17 17 17 14 14 20 36 14 11 15 13 16 17 14 14 12 21 19 8 16 20 8 9 4 6 5 6 8 3 3 7 18 5 9 6 8
21 20 21 25 25 24 22 21 19 16 17 15 14 11 16 24 18 19 24 18 14 17 20 13 18 24 11 16 18 9 7 6 10 6 9 7 10 2 4 21 18 8 14 15 13
19 20 20 22 25 26 24 22 19 17 18 14 15 7 17 7 15 14 22 20 17 16 19 20 18 8 9 5 6 6 10 12 15 11 4 6 3 6 7 17 11 22 15 21 20
17 17 18 20 24 27 25 22 16 19 18 10 8 8 16 8 12 13 10 20 20 16 17 17 12 3 4 2 8 9 6 5 6 6 9 10 7 8 13 17 23 23 26 27 22
17 17 19 19 22 25 23 16 4 4 6 13 10 13 18 12 9 9 10 18 18 17 10 19 5 12 12 14 17 17 14 8 5 1 4 9 6 10 15 13 15 21 27 30 27
16 16 17 20 21 23 19 9 2 11 14 20 30 35 37 31 16 17 14 19 16 13 8 9 18 13 16 18 18 20 6 7 7 7 5 5 6 7 10 15 20 27 29 31 31
17 16 16 16 17 17 7 10 15 11 9 19 34 33 45 31 28 30 18 26 10 11 15 16 9 18 19 20 18 6 5 7 7 6 4 3 5 4 5 13 26 30 33 37 38
18 17 16 15 10 9 10 9 14 7 5 8 11 13 26 22 11 41 29 21 8 20 18 12 20 20 20 19 8 5 9 9 6 5 2 3 4 4 6 8 11 22 30 34 36
20 17 15 12 8 12 7 8 6 5 4 7 7 9 11 24 9 17 41 27 18 19 11 15 10 19 20 13 7 8 7 1 3 6 5 2 2 7 8 11 10 19 31 37 40
19 18 15 16 18 10 14 9 5 3 11 6 7 6 7 26 11 6 25 34 9 14 16 13 21 11 14 10 8 5 4 6 2 1 4 8 4 6 6 13 13 20 33 41 40
16 17 17 17 21 3 12 9 1 7 5 6 4 7 7 10 15 10 12 14 14 12 17 20 19 13 17 10 7 6 3 2 4 1 6 3 5 10 9 7 5 18 33 38 41
20 19 21 22 19 10 11 1 11 16 23 6 6 13 9 7 15 19 15 15 18 12 8 14 11 20 9 15 8 7 8 5 6 2 3 8 3 6 8 5 12 14 34 36 40
22 22 25 23 16 15 8 10 13 18 12 17 24 19 11 10 7 16 21 18 21 20 15 12 13 4 18 5 9 4 6 10 5 2 3 5 7 5 6 6 8 5 7 33 42
26 26 32 23 17 19 7 25 18 21 21 24 12 9 11 9 6 9 7 8 16 23 18 5 4 16 11 7 8 10 4 4 2 7 5 5 2 3 6 2 6 6 12 11 11
26 15 16 28 23 19 17 15 20 31 22 14 16 20 22 19 13 15 8 12 15 18 18 22 10 10 11 14 13 5 9 3 2 5 6 2 5 5 6 7 8 7 17 15 11
24 5 11 30 18 11 19 21 14 18 21 19 15 22 22 17 16 18 23 8 15 5 23 11 4 10 20 15 21 17 9 9 5 5 4 5 5 6 7 3 8 12 16 18 21
12 10 23 41 14 15 13 21 27 20 20 12 12 14 21 21 8 13 10 19 7 5 7 6 4 9 12 12 13 17 7 8 6 4 6 5 4 7 6 3 9 9 9 11 18
11 5 12 38 19 15 16 20 22 27 25 29 21 19 17 20 7 10 18 8 12 8 12 11 5 15 14 11 3 7 9 9 7 5 4 6 4 7 9 5 9 15 11 5 8
18 7 13 9 20 15 20 10 24 20 24 11 15 21 19 13 10 9 7 18 14 11 7 7 16 19 18 18 11 9 10 12 11 11 7 6 8 9 8 6 8 8 15 11 15
16 9 19 10 27 24 21 17 20 21 20 21 23 21 13 16 9 12 17 10 11 9 7 5 5 4 15 13 14 14 11 15 13 10 7 7 11 12 14 12 11 16 22 22 24
38 27 11 18 15 20 23 27 20 19 19 32 21 20 19 20 11 15 8 16 11 10 5 8 5 4 13 12 7 10 11 8 9 13 9 10 9 7 6 5 4 9 18 20 23

GFSSW_850_spd_078.txt.gz
Wind_Speed
16 17 18 18 19 20 20 22 23 23 23 24 23 23 23 26 25 23 23 12 6 5 4 5 4 3 7 8 11 9 2 5 8 4 6 3 2 3 7 16 5 5 9 9 7
18 18 18 18 17 18 18 19 20 21 22 22 23 23 20 24 26 23 8 5 5 5 6 8 7 4 6 5 4 4 3 8 7 5 8 4 5 5 7 8 2 3 3 3 7
19 19 19 19 19 18 18 18 18 18 20 21 21 22 18 21 21 2 3 7 1 5 8 9 10 9 8 14 8 5 6 15 24 12 6 2 9 4 10 3 3 3 3 1 7
20 21 21 20 20 19 18 18 18 17 18 19 19 20 17 16 6 6 4 7 6 7 9 11 11 4 3 5 8 3 17 20 14 11 2 3 4 8 4 5 8 11 4 2 7
19 21 22 24 22 21 20 19 17 16 18 19 19 18 18 7 23 18 19 9 7 11 11 13 14 7 3 5 8 6 8 19 16 10 8 4 11 12 7 10 14 2 6 3 8
20 19 21 23 24 23 22 22 20 17 17 18 18 17 14 9 10 10 10 15 11 12 15 15 14 13 8 9 3 13 13 20 12 14 7 0 10 9 9 17 9 6 5 4 6
15 17 20 22 24 25 25 22 22 19 18 18 17 15 18 33 15 13 15 18 15 14 14 17 17 13 4 8 10 13 8 10 9 6 2 3 1 4 23 12 11 6 7 7 4
16 16 18 20 22 23 23 24 23 19 18 18 17 12 16 19 17 24 25 24 18 14 16 12 10 16 15 11 10 6 5 4 11 2 4 7 10 6 23 19 12 10 12 14 10
16 16 18 17 20 23 23 23 21 19 19 17 14 9 16 11 11 3 16 28 21 16 16 15 17 21 14 2 5 3 6 6 11 8 5 5 7 6 20 15 11 11 10 10 14
16 16 17 18 20 23 26 21 14 15 16 13 8 7 20 14 4 10 8 14 21 11 17 16 10 5 2 3 6 7 4 5 8 6 5 4 6 10 20 22 19 18 15 14 12
17 16 16 17 18 20 23 17 6 1 4 10 9 14 18 12 13 8 5 12 19 12 8 8 3 12 11 9 7 5 11 14 16 13 6 7 6 9 17 14 18 20 20 20 16
16 16 15 15 16 17 16 10 6 13 16 24 28 36 43 36 16 22 6 14 12 10 6 6 17 11 8 7 9 9 13 19 18 5 5 5 5 5 16 17 30 30 30 26 19
16 15 14 13 12 10 10 8 13 22 8 18 32 32 44 29 30 37 17 21 8 8 10 13 7 17 11 12 13 15 13 18 8 5 1 1 5 3 8 7 16 28 30 29 28
16 14 11 12 10 7 8 8 14 12 5 7 9 12 27 17 11 38 31 16 8 17 10 9 16 13 11 16 12 11 15 10 5 3 2 1 5 5 5 8 15 22 28 34 34
15 13 11 9 9 10 11 15 10 4 5 5 5 3 10 20 9 13 38 23 11 12 9 11 11 14 19 17 10 13 18 6 4 3 2 3 1 7 4 6 10 18 32 36 43
14 12 10 13 16 9 11 10 2 1 10 6 5 6 7 13 4 6 11 13 14 5 8 15 14 7 15 14 16 17 5 4 4 2 2 5 6 6 4 10 18 22 36 39 43
13 11 12 13 15 3 7 6 1 7 5 4 1 8 4 7 5 1 4 17 8 9 15 10 19 9 6 10 7 7 5 2 3 3 6 3 3 11 7 7 16 23 36 42 46
13 12 15 17 12 6 5 0 11 6 12 10 9 18 6 7 6 5 4 6 16 3 6 11 6 16 13 15 9 8 9 6 5 4 4 4 5 5 10 12 20 27 41 41 40
15 18 23 20 14 10 5 10 9 3 5 6 10 9 4 5 9 7 6 9 9 17 6 8 12 6 14 13 14 7 5 9 6 1 1 4 6 7 2 4 3 12 27 35 39
20 23 29 19 19 16 6 18 8 3 11 12 6 4 3 10 7 13 5 4 9 12 16 5 3 14 5 15 9 10 7 4 1 7 4 5 4 5 4 5 4 7 21 31 42
21 14 17 25 23 17 14 11 12 27 17 3 5 8 11 11 7 5 6 21 10 11 12 17 2 6 8 11 10 2 4 3 6 6 6 2 5 7 9 7 8 9 21 26 31
24 7 13 29 15 10 16 12 12 13 9 11 9 11 13 7 7 7 13 10 24 24 13 15 10 12 15 6 2 11 13 10 5 5 3 4 8 5 9 7 9 12 23 24 25
14 12 25 36 11 15 10 17 22 16 11 4 5 9 1 6 6 6 7 4 23 14 8 7 10 4 16 11 6 5 7 11 7 5 9 6 5 4 6 2 7 13 19 20 21
11 5 12 31 18 19 19 11 18 17 28 28 16 16 12 11 9 8 4 7 23 22 35 21 7 21 16 6 3 2 11 17 14 7 6 6 6 6 7 6 9 17 22 24 23
17 7 10 9 17 14 19 10 21 16 15 13 9 26 19 6 4 17 5 5 11 21 10 4 6 4 12 7 5 10 16 16 16 9 12 9 10 10 8 8 13 24 16 16 20
14 8 12 2 23 22 21 19 20 16 20 23 21 10 10 19 15 13 10 1 6 11 12 10 4 5 4 9 10 16 21 14 11 8 8 7 7 10 17 18 11 19 25 25 20
30 26 17 16 11 16 19 24 18 20 18 34 21 10 16 18 25 22 16 7 7 2 9 7 5 5 5 10 13 9 16 19 6 6 9 9 9 7 7 7 14 24 21 28 23

GFSSW_850_spd_081.txt.gz
Wind_Speed
18 17 17 18 17 17 16 17 17 18 19 19 20 20 23 26 25 23 22 10 5 9 7 4 4 5 6 4 6 6 3 3 5 3 6 23 5 6 3 4 9 7 7 4 1
17 18 18 18 19 19 18 18 17 17 18 18 18 20 19 24 26 24 8 4 6 8 7 6 4 3 2 2 5 4 3 6 6 5 9 20 6 9 6 9 8 12 11 8 2
18 19 19 19 20 19 20 19 19 19 19 19 19 18 17 20 21 5 4 4 5 7 6 6 7 3 3 4 6 6 5 5 15 19 23 13 4 7 7 4 13 10 12 12 8
19 20 22 21 21 21 20 21 21 20 21 20 20 20 16 16 5 4 7 3 4 5 7 7 8 3 2 3 4 1 9 6 13 20 6 4 6 4 10 9 12 11 6 5 8
20 21 22 22 22 23 23 21 21 21 21 21 21 21 19 9 20 18 16 10 7 10 10 11 12 6 4 3 3 6 5 9 19 21 15 11 9 7 9 12 10 5 4 5 5
13 16 17 21 21 21 21 22 22 21 21 20 20 21 14 8 9 10 11 25 22 15 13 14 7 9 7 5 2 3 7 13 19 26 10 6 5 1 15 14 10 6 6 5 5
16 16 18 19 21 20 20 19 20 21 19 19 19 19 18 32 18 20 15 13 18 17 14 12 15 8 1 6 5 5 7 8 9 9 5 7 1 10 16 16 14 10 9 7 3
18 18 17 18 19 21 20 21 19 20 20 17 17 15 17 23 19 23 21 25 21 19 16 11 11 9 5 9 6 5 1 3 3 5 6 4 12 8 11 16 14 11 11 7 3
18 19 18 18 19 21 21 21 22 19 18 15 13 10 18 15 13 5 7 18 23 20 15 12 10 9 5 2 4 2 4 5 9 3 3 3 9 5 15 14 10 15 13 9 6
17 19 19 19 20 21 23 24 10 7 7 7 5 6 20 15 7 6 10 8 17 18 14 10 8 4 3 4 6 5 3 3 5 4 2 5 16 5 14 15 14 17 13 12 7
18 18 18 17 19 20 23 16 6 3 2 8 6 14 16 11 10 8 4 9 12 12 8 7 4 12 14 9 3 3 2 4 14 13 3 11 16 9 13 16 14 20 18 15 9
18 18 17 16 16 16 15 7 9 12 15 26 28 38 40 32 16 22 5 8 9 8 6 3 16 6 7 7 6 5 5 12 11 9 4 9 11 7 9 12 21 22 25 25 16
17 17 15 14 13 11 9 4 11 16 8 14 23 24 37 29 27 39 22 7 6 7 9 10 6 12 12 7 7 8 7 10 7 11 5 4 7 5 6 5 15 19 23 24 26
17 16 13 13 11 4 4 6 11 14 4 7 5 7 10 10 9 31 24 21 7 13 6 8 14 4 5 12 10 11 10 10 10 6 4 1 5 6 6 11 8 20 25 27 28
16 14 11 11 10 6 10 12 10 1 6 2 2 6 5 12 7 3 31 23 10 7 7 9 8 17 13 14 10 10 7 9 9 11 2 2 2 6 2 6 11 14 26 32 33
15 11 8 11 16 9 13 9 3 2 9 6 3 5 2 10 5 3 8 10 17 4 5 10 5 9 14 15 12 8 2 1 2 2 3 4 5 6 5 8 7 13 25 31 34
13 11 11 11 9 3 9 4 2 5 6 3 3 5 5 3 4 3 5 12 7 11 14 3 13 4 2 6 6 5 3 2 3 1 7 5 4 10 7 7 9 15 27 36 34
11 11 14 14 13 8 3 2 9 4 5 9 7 8 2 11 5 6 4 6 8 1 4 12 8 14 7 11 5 7 9 5 6 4 5 0 5 6 7 11 20 27 35 32 33
10 14 18 17 13 8 4 6 6 4 3 6 7 5 4 5 6 9 5 2 6 9 5 6 8 4 11 7 13 5 5 11 5 1 3 4 6 9 6 4 6 17 19 29 36
17 17 21 16 16 12 4 11 6 1 4 4 2 4 5 7 8 6 4 3 7 10 9 4 3 7 6 9 14 11 6 2 2 7 5 4 4 5 7 6 5 6 18 29 34
18 10 8 19 18 15 11 7 3 16 10 4 1 5 3 4 5 4 4 6 3 8 10 6 6 5 2 6 10 4 6 3 5 5 6 2 6 8 10 9 7 9 24 31 33
21 7 12 20 15 9 15 6 8 6 2 6 4 4 6 6 5 4 4 5 13 5 5 4 5 12 24 9 3 10 12 10 5 4 3 4 9 4 8 7 8 16 25 29 29
18 16 22 30 11 14 10 18 13 8 4 3 4 8 3 4 5 9 7 4 5 5 6 10 4 4 7 9 17 5 4 4 2 4 9 7 6 3 5 4 8 10 17 20 29
9 5 12 31 18 18 19 17 12 16 19 15 4 6 4 3 6 7 6 5 12 8 8 10 5 12 14 6 5 5 6 1 7 6 5 12 5 7 7 7 8 12 11 22 26
19 7 11 9 12 13 16 9 17 12 15 16 4 21 17 10 11 17 16 12 13 2 2 6 7 14 18 17 5 5 5 3 2 9 10 8 13 14 12 9 12 14 12 17 23
16 7 13 2 22 20 18 18 22 18 13 10 12 8 11 13 16 6 6 9 5 2 2 3 5 15 6 13 17 15 9 9 4 9 12 8 14 7 16 22 12 20 19 19 24
33 20 11 14 8 14 18 23 19 17 14 28 18 15 13 23 26 30 28 23 9 4 2 0 5 6 5 5 5 3 16 13 8 8 9 10 10 7 8 9 15 25 21 24 32

GFSSW_850_spd_084.txt.gz
Wind_Speed
18 19 18 19 18 19 20 21 20 22 24 22 21 20 21 24 21 22 20 16 10 11 11 7 10 9 7 6 6 4 3 3 4 4 6 16 2 5 6 8 8 9 12 6 7
18 19 20 21 20 20 21 22 23 22 22 23 23 21 21 23 23 23 14 10 7 9 13 8 9 10 6 5 6 4 3 8 6 5 6 20 5 10 4 4 10 14 15 12 7
19 20 21 22 24 23 23 23 23 25 23 23 23 21 21 21 21 2 3 5 8 10 10 8 8 8 5 6 7 6 6 4 8 17 13 6 6 6 6 5 21 8 12 11 8
19 20 21 22 23 24 24 23 24 25 25 23 23 23 20 19 6 2 5 7 8 10 10 7 9 7 4 5 7 2 10 8 11 10 8 3 4 4 12 14 3 6 5 9 8
15 14 16 18 19 20 21 22 22 24 25 24 22 22 21 11 18 17 13 11 11 11 11 10 10 7 5 5 4 5 6 8 13 22 18 13 13 8 16 21 8 5 7 7 8
16 17 16 17 20 20 19 20 21 22 23 23 22 21 15 8 10 10 9 18 24 15 13 13 6 11 3 5 6 5 7 15 18 24 14 5 1 1 17 13 12 7 5 7 9
18 18 18 17 19 20 20 20 22 23 22 24 21 19 18 31 14 23 20 14 13 17 18 12 11 5 3 2 4 5 5 8 8 6 5 6 5 9 18 10 13 8 5 6 7
19 19 20 20 20 21 23 22 24 27 25 22 20 14 16 25 20 23 20 22 18 16 17 13 7 6 5 6 4 2 4 4 4 3 2 6 8 7 9 13 14 11 7 7 7
18 18 19 21 21 23 24 24 27 23 18 13 13 11 16 15 9 1 3 8 11 20 16 10 3 7 4 4 3 4 3 4 8 4 2 2 8 1 1 8 12 10 10 9 7
19 18 18 19 21 23 25 25 14 12 5 3 5 5 16 9 8 4 2 2 3 19 14 9 8 4 2 4 7 6 4 4 7 3 4 5 12 11 11 13 19 11 11 11 11
19 18 16 18 20 21 24 22 7 4 6 9 6 11 13 11 9 7 6 6 7 11 7 9 4 11 13 6 6 4 3 3 8 5 4 9 7 15 7 12 15 17 13 13 12
19 18 16 17 18 18 13 7 7 11 16 27 27 37 35 25 10 11 3 5 6 6 6 2 11 10 9 9 7 4 4 7 10 6 6 11 14 12 4 6 18 20 20 16 15
19 17 14 16 16 15 8 0 10 18 7 14 13 15 18 22 21 35 20 5 6 6 10 14 4 12 11 6 8 6 10 5 8 7 5 4 7 6 2 5 6 18 25 18 19
17 17 13 15 11 7 6 2 13 15 4 7 4 3 3 7 7 22 30 19 6 10 6 8 14 3 6 11 10 9 9 9 6 3 4 4 6 5 6 7 6 14 24 25 23
16 14 11 11 11 8 9 12 12 1 6 0 4 1 4 8 11 1 18 18 11 6 6 7 4 9 8 6 10 9 7 8 5 5 2 3 2 7 2 7 9 11 27 30 27
15 12 10 11 14 12 13 9 5 1 8 3 3 2 2 5 5 4 2 6 10 3 2 6 3 7 9 9 11 3 3 5 2 2 3 7 6 6 3 6 5 4 20 29 31
16 12 11 11 9 7 9 5 2 5 5 2 3 4 4 4 4 5 4 6 4 5 13 2 8 3 3 4 7 6 5 2 2 1 5 5 3 10 5 7 7 9 18 28 30
15 11 13 15 12 11 5 2 8 3 4 4 5 7 4 8 4 7 3 3 5 1 2 10 8 10 6 8 7 9 10 5 6 4 4 4 6 6 8 8 17 19 20 19 28
13 15 16 17 12 7 1 3 5 4 3 5 3 5 4 5 5 6 5 5 7 6 3 3 5 5 7 11 12 5 8 8 4 1 2 4 6 8 7 8 5 8 12 18 27
15 14 19 15 12 10 3 8 4 2 5 4 2 4 5 6 7 8 5 3 4 6 3 4 5 4 5 4 6 9 6 3 1 5 5 4 4 5 6 8 6 4 13 19 20
15 7 7 15 15 12 7 5 2 12 8 4 3 3 2 4 4 4 2 3 4 6 5 6 3 7 9 3 8 3 9 3 5 5 6 2 5 8 10 9 9 8 18 18 19
16 4 10 15 11 6 11 4 2 7 7 4 1 2 2 3 3 1 4 4 10 4 4 3 3 4 11 16 12 4 7 12 10 4 3 4 10 4 9 7 6 12 17 17 17
11 12 12 24 9 12 4 11 10 4 3 2 3 5 2 2 2 5 6 7 7 5 5 5 2 5 7 5 3 5 5 5 2 2 8 7 5 3 6 5 9 14 20 20 19
8 4 13 26 18 12 16 13 12 10 15 8 2 2 2 1 3 2 4 5 14 13 4 3 4 6 5 9 15 12 8 14 8 5 7 14 4 4 6 7 7 10 13 15 20
19 6 9 5 11 14 12 5 18 11 10 14 5 11 6 4 4 9 10 13 16 17 5 3 4 3 11 14 20 26 22 10 15 12 10 5 10 9 10 10 13 20 14 15 17
17 11 13 4 5 14 16 15 15 15 10 7 8 7 11 10 10 4 3 3 4 3 2 2 3 3 7 13 18 20 21 14 14 5 6 5 6 7 12 18 7 18 21 18 18
35 24 19 12 12 11 16 18 17 17 12 25 16 12 12 15 18 20 25 19 10 7 1 2 3 2 9 10 20 10 24 21 8 6 6 7 7 6 8 9 15 29 29 28 25

GFSSW_850_spd_087.txt.gz
Wind_Speed
18 18 19 20 20 22 22 21 22 22 21 20 21 21 23 26 25 23 20 16 9 10 14 12 14 14 12 8 7 5 2 4 5 6 4 2 5 4 6 6 9 9 15 11 9
19 20 20 21 22 22 23 24 24 24 22 22 20 22 21 26 29 28 9 13 11 12 18 14 15 14 7 6 6 4 3 8 6 6 5 12 6 6 3 6 9 15 21 17 13
16 18 20 20 22 23 23 24 24 24 24 23 21 20 20 22 25 4 5 6 10 13 15 13 10 12 6 5 7 5 6 5 6 12 11 6 9 4 5 9 14 12 14 16 14
14 15 16 18 18 19 19 20 22 22 23 23 22 22 18 17 6 4 3 6 10 14 14 13 15 8 5 6 7 5 11 9 5 7 4 5 7 6 12 15 12 8 11 10 11
15 16 17 18 20 20 21 21 20 21 21 22 21 23 18 9 20 21 19 10 11 13 15 13 16 9 6 6 4 6 6 8 16 11 13 11 14 12 20 17 16 14 9 10 9
17 17 17 18 19 21 22 22 22 24 21 22 22 22 14 8 13 9 11 15 16 12 14 15 9 13 5 5 7 3 8 12 11 13 11 9 8 2 6 6 11 11 11 10 9
18 18 18 19 20 21 22 24 25 25 24 24 23 22 16 33 17 15 20 14 12 19 21 15 14 8 8 2 8 4 7 9 9 6 4 8 5 7 7 7 10 10 10 8 7
18 18 19 19 21 22 23 25 27 27 23 20 18 16 14 21 19 22 22 24 19 16 17 17 12 12 5 2 1 2 1 6 1 3 2 1 7 3 2 11 13 11 11 8 8
18 18 19 20 22 22 23 24 28 22 18 12 8 10 12 11 10 4 5 8 12 22 14 10 12 7 5 4 3 1 7 6 7 1 3 3 8 5 6 8 12 14 12 10 10
19 18 18 20 22 24 24 23 17 14 8 2 2 5 12 5 4 5 1 6 6 18 12 12 6 4 3 7 11 8 5 5 8 3 1 6 14 15 7 12 11 13 12 12 12
20 19 18 19 20 21 24 21 7 4 10 8 10 15 15 9 11 5 9 3 8 13 10 8 8 13 23 15 5 6 5 6 5 5 4 9 10 16 12 11 10 14 14 14 14
20 19 17 18 19 19 13 5 7 9 16 26 30 32 38 29 11 11 6 7 9 7 8 4 13 15 8 9 13 7 8 12 12 2 6 8 16 16 5 8 8 15 17 16 15
22 20 17 16 17 15 8 0 7 13 7 12 10 10 10 16 14 21 16 3 6 7 15 13 5 14 13 10 12 16 17 13 13 9 3 6 6 5 2 5 8 9 16 17 20
22 19 15 15 12 8 5 5 11 13 4 6 4 3 4 5 6 9 22 17 5 11 8 10 11 8 10 14 15 14 11 13 11 5 6 5 8 8 13 10 8 12 17 19 22
19 19 15 11 11 11 8 10 10 2 5 1 2 0 3 6 9 6 4 12 13 5 5 6 6 16 10 8 13 12 7 13 11 8 5 6 6 2 2 12 12 11 16 19 25
22 20 14 12 15 12 11 7 3 1 8 4 3 2 2 6 3 0 3 4 5 8 3 4 2 6 9 12 14 3 4 2 2 2 7 10 7 6 4 5 4 2 9 18 24
21 15 13 12 12 8 6 5 3 5 4 2 3 4 2 5 3 3 3 5 3 5 10 4 8 3 4 4 5 9 6 4 4 4 8 6 7 14 7 9 9 11 7 12 22
15 15 15 17 17 11 6 1 9 2 4 3 3 5 4 9 6 6 4 3 6 4 1 9 7 12 8 13 6 14 13 4 6 6 7 4 7 6 8 9 9 12 8 9 17
14 16 18 16 14 8 5 5 5 5 4 5 4 2 3 4 3 4 5 3 5 8 2 3 4 2 6 10 15 6 8 14 2 1 1 4 5 7 8 9 4 6 7 15 17
15 13 18 15 10 9 4 8 4 1 4 3 1 2 3 6 4 4 3 3 2 8 3 5 4 3 3 3 5 7 8 5 6 7 11 5 5 7 3 5 6 6 8 11 15
12 5 6 15 13 10 7 6 3 3 4 2 2 2 3 3 3 4 4 1 4 8 5 6 1 6 5 1 6 5 10 2 3 4 8 5 6 8 13 11 6 7 5 10 15
12 4 9 13 10 5 7 4 3 3 3 2 1 2 2 1 1 1 3 2 8 4 4 6 1 2 4 10 8 5 3 11 10 8 3 5 12 2 11 6 6 8 8 6 12
8 10 10 21 7 9 6 9 7 3 2 3 2 1 1 3 3 3 3 3 13 5 5 6 1 3 5 0 3 3 6 7 4 5 18 12 6 5 5 5 11 11 17 14 11
9 3 12 22 16 10 12 9 8 10 15 8 3 1 1 3 3 1 2 4 9 12 8 1 3 7 6 5 3 7 14 17 10 10 12 17 16 7 6 9 8 13 17 15 14
16 5 7 5 12 14 12 6 17 10 9 7 3 11 4 4 3 3 3 9 10 11 4 5 5 6 11 10 14 13 14 17 20 18 14 10 16 15 16 10 15 21 12 10 12
12 7 5 7 13 15 14 13 15 15 8 8 9 7 14 11 10 8 4 1 4 6 4 4 1 2 6 13 15 18 20 20 22 20 22 18 19 7 16 16 13 18 15 18 19
26 16 12 6 10 5 12 17 19 15 14 19 14 11 10 11 10 9 13 15 12 9 5 4 2 1 4 1 8 12 12 12 19 19 17 17 11 8 9 8 10 18 20 22 27

GFSSW_850_spd_090.txt.gz
Wind_Speed
20 19 19 20 22 22 23 23 23 22 22 22 23 23 24 25 24 22 19 16 14 13 15 16 16 13 14 11 8 7 8 11 11 12 10 3 6 5 8 12 9 10 13 11 9
15 15 16 17 18 19 20 21 22 23 23 23 22 23 23 26 27 25 12 12 13 13 19 19 18 16 15 13 9 12 10 14 6 10 7 10 9 11 9 16 15 15 15 12 9
14 14 15 15 17 18 18 19 20 20 21 23 23 23 20 21 22 5 6 5 9 14 13 14 13 17 16 12 15 13 16 13 11 12 12 17 14 8 14 18 19 20 13 13 11
14 15 15 16 17 17 18 19 21 20 20 21 22 23 19 14 8 5 2 2 7 14 14 12 14 18 15 13 17 11 17 20 16 13 14 16 17 16 18 23 23 17 9 8 10
16 16 16 17 18 19 19 19 20 21 22 23 23 22 21 8 21 20 22 13 9 15 16 15 16 17 14 13 14 16 15 17 16 19 20 19 22 22 26 25 18 12 8 7 7
15 16 17 18 18 19 20 20 21 21 22 23 23 21 11 14 18 15 15 13 15 17 17 17 11 16 12 15 14 4 11 15 17 18 20 19 23 12 24 7 9 10 9 8 7
15 15 17 19 19 20 20 22 22 23 23 21 22 19 12 27 17 16 14 11 16 15 15 16 16 12 7 11 17 12 15 15 18 20 19 18 19 17 8 5 8 10 11 10 7
17 16 16 18 19 20 21 21 23 24 23 20 18 12 12 20 17 22 25 26 24 19 18 14 13 16 14 6 6 10 12 12 4 5 7 8 14 8 3 6 10 11 12 11 8
19 19 17 18 20 20 22 22 24 21 20 15 10 6 10 11 9 7 11 15 14 19 17 7 13 19 12 14 14 14 14 12 10 8 7 12 15 6 5 7 11 12 13 11 8
21 19 18 18 19 20 22 22 18 13 10 6 2 5 10 4 6 5 6 9 5 16 12 12 14 12 14 14 16 16 15 12 14 5 8 13 17 15 8 9 12 12 12 12 10
22 20 21 18 18 18 21 17 7 4 6 9 11 13 17 11 8 5 7 6 8 16 16 22 14 19 22 22 19 12 13 14 10 0 5 14 19 16 16 8 11 12 13 13 12
19 21 25 18 16 15 12 3 4 6 16 21 29 28 32 22 12 12 7 10 12 13 16 10 21 20 17 17 17 18 17 18 13 7 7 13 17 17 15 11 8 10 13 15 14
21 23 24 20 14 10 5 1 5 11 9 14 11 9 7 17 14 20 12 12 12 16 18 19 4 20 16 16 17 18 20 17 15 7 14 15 19 20 13 9 9 11 13 15 18
20 20 20 18 5 4 2 3 9 11 5 4 5 2 5 4 7 10 20 15 12 16 15 15 17 9 20 22 16 20 18 16 18 12 10 3 9 12 8 15 14 16 15 17 19
17 18 19 15 10 4 4 7 7 1 6 4 4 2 3 8 6 4 7 14 20 10 11 9 11 19 16 17 16 16 13 11 15 16 14 15 9 9 2 10 12 6 18 18 21
14 18 20 10 8 7 7 4 1 5 8 2 4 4 3 7 4 4 4 5 13 14 10 10 2 8 17 12 14 2 11 5 7 9 12 16 13 8 8 7 6 2 4 16 22
13 17 13 9 5 6 4 2 5 7 3 3 1 1 2 1 2 4 7 7 5 7 17 19 17 9 7 8 13 16 9 5 7 7 8 7 11 15 5 5 9 11 7 13 21
14 14 13 11 8 6 3 5 12 2 8 2 3 4 3 3 3 1 7 7 4 3 3 11 9 22 17 21 9 18 17 7 9 8 7 12 8 10 7 7 7 5 7 11 20
12 12 13 12 11 6 6 10 7 11 4 4 3 5 4 1 3 2 3 5 5 7 2 3 5 2 9 16 18 11 16 18 13 11 7 9 9 10 12 12 10 9 6 12 19
10 9 14 11 10 11 6 13 12 3 6 4 6 2 4 2 2 1 1 2 4 9 3 3 3 1 2 7 16 18 4 8 10 7 11 9 12 7 5 10 2 8 8 10 18
9 5 6 12 13 11 10 9 9 8 7 4 1 1 2 1 3 2 2 4 3 6 5 5 3 1 4 6 7 9 12 10 7 12 10 10 8 6 14 14 11 4 3 8 16
8 4 8 12 11 7 11 10 3 8 7 4 3 2 2 1 2 2 2 3 8 6 3 6 1 4 5 8 8 7 9 16 12 13 10 12 13 2 4 10 5 3 1 2 10
6 11 10 16 8 11 9 12 15 10 6 2 3 2 4 4 4 3 4 2 9 2 5 7 3 2 3 4 3 3 2 3 6 10 18 14 5 3 10 13 19 16 13 4 7
8 5 13 15 16 13 15 17 15 9 18 15 8 6 7 10 9 5 4 3 2 4 3 3 3 6 6 7 5 7 7 10 7 6 12 16 17 16 18 14 14 22 15 9 8
12 8 8 6 14 15 12 6 19 10 11 8 6 15 12 9 10 11 10 8 5 6 2 5 8 9 10 12 15 16 16 17 17 14 15 16 19 16 12 16 22 26 24 17 7
8 6 10 18 11 18 18 12 15 14 15 13 14 6 14 12 9 2 7 6 7 1 3 3 2 3 8 13 15 20 22 21 20 20 22 19 24 20 24 25 24 24 25 20 15
22 19 9 14 14 9 15 20 16 17 13 21 12 11 10 12 12 13 11 12 12 6 2 2 3 3 4 2 7 13 19 25 23 19 18 19 19 17 19 20 26 24 24 21 21

GFSSW_850_spd_093.txt.gz
Wind_Speed
14 15 15 16 16 17 18 19 20 21 22 23 23 23 22 24 26 23 21 18 16 14 15 12 14 14 15 18 19 14 13 14 15 12 9 6 7 15 9 16 18 16 14 15 8
14 14 15 15 16 16 17 17 18 19 20 22 23 24 23 23 25 25 23 24 19 19 18 18 17 17 20 17 19 17 13 19 11 11 12 11 11 13 15 16 17 16 10 11 9
15 15 16 16 17 17 18 18 19 19 19 20 21 22 21 20 21 5 8 10 11 14 16 18 16 17 21 22 22 20 19 21 14 10 13 14 18 18 16 15 17 14 16 15 10
17 16 16 17 18 19 19 19 19 20 21 21 21 21 19 12 7 4 6 5 5 8 13 18 20 20 19 19 23 21 25 22 21 16 16 15 21 21 20 21 20 19 8 9 11
16 16 16 17 18 19 20 20 20 21 22 22 22 21 18 9 25 20 23 23 13 8 14 18 21 20 20 18 21 21 19 25 22 19 21 21 22 22 25 25 21 11 9 9 11
19 17 16 17 19 20 20 21 21 22 23 22 22 19 11 18 11 12 15 11 13 15 17 18 19 19 20 19 19 20 19 19 25 23 22 19 21 23 27 23 11 10 11 9 10
24 19 17 18 20 21 21 21 22 23 23 22 20 17 12 29 11 9 11 9 11 17 21 21 20 17 12 17 22 23 20 21 22 24 23 21 23 25 26 12 12 11 11 9 10
22 27 21 20 20 21 22 21 22 23 23 22 17 8 12 12 12 17 17 21 14 10 18 17 16 22 22 20 18 15 18 20 19 18 17 16 19 19 11 12 14 11 13 10 11
22 24 27 22 21 21 22 22 22 22 20 17 6 7 12 10 8 8 12 18 17 21 21 15 15 22 19 17 16 16 18 20 21 13 11 14 15 8 13 10 11 12 13 12 11
21 23 27 26 21 20 21 20 17 15 11 6 7 8 11 6 7 8 8 8 13 14 18 19 15 16 19 17 18 19 20 21 19 15 10 17 20 18 21 15 12 14 12 12 11
20 22 24 27 21 17 20 18 8 7 9 13 14 21 27 19 12 7 8 8 12 14 18 24 17 22 26 24 23 21 23 18 15 10 6 15 18 18 18 22 16 14 14 13 12
19 20 24 28 23 13 9 8 4 7 17 22 30 32 33 26 17 17 12 11 17 17 19 18 24 23 23 22 22 23 22 22 20 18 8 15 21 19 19 17 20 15 12 13 13
16 18 25 26 16 7 7 5 5 11 10 17 21 18 15 18 22 22 20 18 18 19 20 21 19 24 24 22 21 22 22 19 22 18 9 15 22 22 22 23 25 13 17 14 16
18 18 22 22 9 7 5 3 7 9 6 7 7 5 7 6 9 20 21 24 18 24 20 20 22 18 16 26 22 22 19 19 21 17 14 17 15 15 16 11 11 18 20 18 16
18 16 16 15 13 7 6 8 9 4 6 6 8 5 6 10 6 8 8 21 25 21 14 21 16 23 20 21 19 20 14 15 20 15 17 21 12 14 21 14 9 13 13 17 18
18 15 15 12 9 10 10 9 4 7 13 5 7 9 10 12 8 5 5 10 15 25 21 21 14 13 21 18 15 8 13 14 11 15 15 17 16 12 15 14 10 4 6 16 18
18 15 14 9 9 5 8 7 7 9 1 9 6 7 7 6 10 8 8 14 9 14 21 19 22 13 11 15 14 15 10 6 4 10 13 14 14 17 9 3 4 7 5 12 17
15 16 13 11 10 10 6 9 13 9 19 7 3 8 11 5 7 8 9 12 10 12 12 19 20 24 16 15 12 19 18 7 11 9 11 18 9 14 15 8 8 6 6 12 18
16 15 14 13 12 11 14 13 11 14 14 7 11 12 10 6 5 7 12 13 4 6 9 4 14 2 22 22 17 15 16 18 18 15 8 5 9 10 11 8 6 9 10 10 17
15 14 17 11 13 14 11 23 17 14 8 6 14 4 14 10 7 6 11 3 6 3 8 1 5 2 10 9 16 25 10 12 11 15 12 13 15 10 2 10 9 4 10 12 14
11 7 6 14 14 15 13 17 17 5 4 7 10 7 9 0 5 4 5 6 1 2 7 6 5 9 5 10 12 13 17 13 12 13 10 9 5 2 5 8 11 9 4 8 12
11 5 8 15 13 12 13 16 14 10 11 11 6 8 9 1 4 2 4 5 5 7 7 5 4 6 8 5 9 11 14 19 11 14 12 13 11 13 6 5 10 15 4 5 6
8 15 7 14 8 12 13 15 17 14 14 15 13 7 4 8 4 5 1 3 6 4 5 5 4 6 5 8 5 7 9 7 9 7 14 10 6 7 4 4 10 14 15 6 2
6 4 14 14 17 15 15 16 15 20 18 19 14 12 12 13 10 7 2 1 1 2 5 6 8 9 8 7 7 3 9 9 6 7 11 15 16 17 15 15 14 16 16 15 4
10 7 9 5 13 15 14 9 18 16 15 16 18 20 16 15 15 16 15 12 8 6 8 4 10 11 13 14 14 14 13 14 16 14 14 13 15 16 16 14 12 19 19 19 18
8 8 17 22 11 17 16 18 15 15 16 14 14 14 16 18 16 7 13 12 10 5 5 3 8 10 12 14 15 18 20 20 21 20 21 18 19 18 19 26 25 27 27 25 22
20 22 18 7 14 12 12 19 19 16 10 21 13 11 12 11 17 14 12 13 10 6 3 4 4 3 10 10 9 10 17 19 20 22 20 20 18 15 15 19 20 24 28 28 26

GFSSW_850_spd_096.txt.gz
Wind_Speed
18 17 16 16 17 18 19 19 20 20 21 22 22 23 22 24 26 22 24 19 19 18 13 9 13 15 14 21 21 22 13 15 21 22 12 10 5 8 11 12 15 16 16 15 7
18 18 17 17 17 17 18 19 19 21 21 22 23 23 22 24 26 29 23 22 24 25 23 15 18 16 20 17 24 17 13 21 21 19 10 13 18 8 10 14 17 16 5 2 9
21 18 17 18 18 19 20 19 19 20 21 22 23 23 22 22 22 3 2 6 9 15 17 17 18 18 22 23 24 24 19 19 25 30 24 15 15 16 16 15 15 14 13 10 6
21 19 18 19 19 19 20 20 20 20 21 22 23 23 21 15 6 1 12 12 8 8 12 17 21 23 19 20 25 23 27 26 26 28 25 21 20 17 20 20 18 19 16 6 9
20 20 20 20 20 21 21 21 21 22 23 22 23 23 22 9 28 21 23 19 19 15 12 16 20 24 20 20 24 22 23 27 27 28 28 26 21 20 24 22 21 20 10 8 10
23 24 22 22 23 23 22 22 22 22 23 22 22 21 15 16 12 8 13 12 13 13 15 16 19 21 23 21 19 25 26 23 28 25 24 25 21 23 27 24 22 23 9 12 12
24 25 27 27 25 26 24 24 23 23 23 23 21 18 14 33 12 16 12 11 10 14 21 19 19 21 17 16 27 25 23 22 21 25 23 27 23 23 31 29 25 13 14 13 14
24 26 27 30 29 26 27 25 23 23 23 23 19 12 13 18 15 18 16 20 19 14 16 18 19 22 26 24 28 19 18 18 17 22 27 27 21 21 27 13 13 16 17 14 14
24 24 26 29 33 29 27 26 22 21 22 18 12 8 12 11 11 9 10 15 15 19 17 11 13 18 18 16 17 17 19 22 23 22 20 13 17 17 12 10 14 15 15 18 16
24 22 24 27 32 33 26 24 19 20 16 10 12 11 16 8 4 10 11 11 14 15 20 19 13 15 16 14 18 19 21 19 21 21 21 18 15 16 22 18 19 18 18 17 18
23 24 24 25 29 30 23 20 10 5 8 18 10 20 24 19 20 18 12 13 12 16 16 24 15 19 22 22 24 21 22 22 22 20 19 13 12 14 15 21 15 17 16 18 14
22 21 23 24 29 20 8 8 6 8 17 23 35 41 42 31 31 29 16 19 18 17 17 15 22 21 22 23 24 25 25 26 22 23 21 19 15 14 15 18 20 21 21 15 15
23 21 21 24 26 6 8 12 9 13 9 20 34 35 28 23 36 33 22 23 20 20 19 20 17 24 21 23 24 24 24 20 23 21 24 22 17 15 19 23 26 28 20 13 19
25 21 20 20 16 10 9 2 7 11 6 10 10 9 18 11 10 24 25 27 20 24 20 21 20 21 22 23 22 24 19 20 16 17 15 19 16 18 15 17 16 23 22 11 15
23 22 20 12 18 14 6 9 9 5 5 5 11 10 16 15 3 8 16 19 23 21 16 22 20 21 22 23 16 20 20 17 17 18 18 23 14 12 15 14 18 14 20 24 24
24 19 19 16 18 14 10 11 4 5 8 7 10 11 14 16 13 8 8 15 13 21 23 22 24 21 23 21 22 16 16 13 13 11 16 19 20 14 14 18 13 8 8 4 21
24 21 19 13 19 11 4 7 6 8 11 12 12 13 15 15 13 12 11 12 10 9 17 22 22 22 20 14 16 16 10 8 9 7 11 16 16 14 12 16 5 10 12 6 19
22 20 20 17 14 14 11 9 12 13 18 13 5 10 8 10 10 13 13 12 15 15 12 11 16 25 17 19 18 19 17 8 12 10 9 9 10 14 13 17 10 4 1 20 18
16 20 20 18 14 10 13 12 11 16 14 14 18 10 13 13 3 10 15 13 12 15 7 8 17 18 23 17 20 18 18 18 18 7 2 7 14 17 5 10 6 3 7 14 20
15 19 24 20 15 14 9 21 18 24 22 10 14 9 13 12 14 10 13 13 6 2 4 5 7 5 4 22 16 16 11 13 10 14 14 8 4 8 10 5 6 7 8 14 18
15 8 13 16 17 16 11 18 16 29 24 5 12 15 20 7 4 17 7 5 6 5 7 6 6 4 5 7 14 14 15 15 12 12 10 8 3 4 10 12 10 11 6 3 4
14 4 7 23 11 12 14 19 26 21 18 7 14 16 15 11 7 12 2 5 12 6 6 6 4 5 12 7 2 6 17 18 11 12 8 10 7 7 1 9 8 10 15 4 6
7 17 10 14 6 12 14 20 21 18 17 8 12 18 18 10 6 10 6 10 10 8 6 7 3 6 6 5 8 8 10 10 16 11 14 6 6 10 10 6 1 6 14 21 5
7 3 13 13 16 15 11 17 16 18 15 14 14 18 18 14 11 8 3 2 3 5 7 6 5 9 7 8 9 4 9 6 7 5 10 12 12 4 16 15 4 6 9 16 18
7 6 6 3 10 14 17 8 11 15 10 15 15 20 17 14 15 18 15 15 8 6 3 3 6 12 16 14 13 12 12 11 11 8 7 12 15 13 8 11 13 18 16 18 22
5 5 14 19 20 11 15 16 17 14 12 14 15 15 19 19 16 18 18 13 9 7 10 2 8 10 14 15 15 17 17 17 17 15 15 15 19 16 16 18 16 16 15 16 19
14 17 13 9 8 13 12 13 17 15 8 18 12 11 14 15 14 21 8 9 7 9 1 2 4 7 10 12 14 12 15 16 15 16 15 17 14 14 13 14 12 18 25 24 19

GFSSW_850_spd_099.txt.gz
Wind_Speed
19 19 18 16 16 16 16 17 19 20 20 21 20 22 22 24 25 26 27 21 18 11 14 11 9 13 14 17 20 17 3 12 11 14 17 15 5 5 6 5 10 15 21 19 18
19 19 18 18 18 18 18 18 18 19 20 22 23 23 22 25 27 27 19 20 14 18 18 18 17 12 16 11 12 10 4 14 12 17 12 17 11 11 3 6 6 12 3 13 18
20 19 18 18 19 20 20 20 20 20 20 21 23 24 22 22 24 3 7 9 4 9 19 22 18 21 24 25 26 12 14 14 20 27 27 13 15 20 9 6 12 6 7 8 14
21 21 22 21 20 20 20 21 21 21 22 22 23 25 23 17 6 5 14 18 15 16 11 14 19 24 9 10 29 13 21 22 25 33 27 12 19 11 15 14 18 19 14 7 7
21 24 24 25 24 23 22 22 21 21 22 23 23 25 24 9 27 16 17 15 16 14 14 13 14 19 12 8 20 15 15 25 31 31 29 32 12 15 24 26 22 22 18 12 8
22 23 25 27 28 27 26 25 23 21 21 22 23 23 16 9 16 3 4 14 12 11 11 16 16 20 19 14 12 19 20 22 20 21 22 15 11 16 28 27 25 25 24 17 10
23 25 27 28 29 31 29 27 25 23 21 21 22 21 17 39 22 21 17 14 9 13 16 19 20 24 15 8 22 18 12 14 14 13 11 23 14 16 32 34 33 31 28 16 10
25 25 25 27 29 33 34 29 26 22 21 22 21 16 15 22 18 22 15 21 20 20 18 14 22 22 12 15 17 7 7 7 5 7 15 15 21 23 32 34 28 35 21 14 12
28 27 27 27 29 32 36 30 24 17 20 20 18 11 15 9 13 4 6 12 9 15 18 15 13 10 10 3 5 4 10 15 14 11 11 9 18 19 34 17 10 15 17 21 22
25 26 26 28 30 30 35 25 16 13 14 11 11 9 17 20 1 4 10 10 11 14 17 18 10 4 2 3 11 7 11 13 17 13 13 16 20 18 18 18 19 20 25 25 30
24 26 24 26 29 29 28 23 11 6 6 10 10 16 20 12 18 20 13 13 14 17 9 17 7 11 11 13 15 11 13 17 13 12 11 11 14 13 10 8 9 24 26 29 29
26 26 27 25 27 24 16 11 12 11 15 25 33 43 47 36 28 44 22 15 13 13 8 9 20 15 13 12 17 19 20 20 19 14 15 15 17 16 11 6 13 16 20 29 29
24 23 25 23 22 15 15 17 16 14 7 19 30 29 33 24 33 51 23 25 14 14 15 17 8 18 17 17 18 18 17 12 17 14 13 13 19 13 11 8 22 31 30 15 39
23 21 24 19 16 12 16 14 15 10 4 10 10 12 19 15 9 25 33 23 10 16 12 16 15 19 20 20 18 17 12 16 17 9 8 0 17 16 16 19 15 25 31 26 35
23 24 21 17 17 21 15 16 18 6 5 8 9 5 7 18 3 7 19 27 21 17 9 17 8 13 19 18 19 15 11 13 13 10 7 4 11 5 12 21 19 9 22 31 46
20 20 16 19 18 16 22 12 12 4 8 7 9 8 8 13 9 1 10 21 9 12 15 17 18 7 6 12 12 6 4 8 9 2 9 10 12 4 10 16 15 16 23 31 46
20 23 21 17 23 14 22 14 3 5 9 9 6 10 17 13 12 12 10 12 8 6 14 14 21 17 11 10 13 9 7 1 2 2 6 8 11 12 15 19 23 18 15 21 41
19 22 24 21 17 14 18 4 8 10 16 18 16 14 12 14 19 16 11 10 14 12 4 8 5 17 11 15 7 6 7 6 8 5 3 9 7 6 10 17 29 23 16 24 38
21 22 21 20 17 14 12 3 5 7 5 16 21 8 5 11 4 3 11 7 9 15 8 4 7 3 8 19 10 6 9 9 10 4 3 4 6 10 15 21 11 6 7 27 34
18 18 26 18 15 16 5 10 11 13 19 17 14 8 10 13 11 14 4 3 8 3 4 2 3 4 10 14 12 11 4 8 6 13 7 5 5 3 16 13 5 15 6 26 36
15 9 13 8 16 12 6 5 12 23 21 11 15 14 14 8 6 4 9 8 10 13 8 1 1 5 6 2 15 5 11 2 3 9 5 2 4 6 4 7 10 14 15 22 23
6 3 5 6 8 4 2 5 9 22 30 20 7 7 10 14 5 10 4 1 6 15 6 6 1 1 7 10 10 8 7 9 8 5 3 7 7 7 9 7 10 13 29 28 26
6 11 13 7 3 3 5 14 19 19 20 12 10 5 9 9 6 8 2 3 10 8 8 6 3 1 2 11 14 2 1 3 9 6 10 3 3 6 13 11 19 7 30 29 29
4 4 5 7 9 3 5 6 12 19 16 18 8 11 6 7 10 5 8 4 3 3 8 6 3 5 3 3 6 7 11 8 9 4 6 6 6 9 9 6 10 8 4 14 23
5 4 6 4 4 8 10 10 14 7 6 15 3 6 8 9 10 7 12 10 16 5 4 5 4 6 6 9 10 12 10 3 8 12 2 5 7 6 10 10 20 12 23 26 31
3 4 7 8 12 8 3 4 12 14 5 8 9 8 7 8 10 10 12 8 3 7 1 3 5 7 6 5 8 14 12 9 9 10 5 5 10 3 4 12 7 21 21 25 30
11 18 10 7 5 5 3 12 10 18 12 8 10 11 11 7 10 21 24 4 1 5 7 2 1 3 3 7 10 6 7 10 11 8 4 5 8 11 7 11 17 21 22 22 23

GFSSW_850_spd_105.txt.gz
Wind_Speed
15 16 17 18 17 17 17 18 19 20 20 21 23 24 23 24 25 23 25 21 19 15 16 18 12 10 13 10 11 7 2 5 6 7 6 4 6 13 15 11 11 7 7 12 13
18 19 19 19 20 19 19 19 21 21 23 24 23 25 25 26 27 25 5 3 12 17 15 18 15 9 9 8 9 6 5 9 7 6 5 7 5 21 7 21 16 15 14 9 11
20 19 21 21 22 20 20 20 20 22 23 24 25 26 24 25 25 1 5 8 7 4 13 14 14 14 9 10 10 7 9 10 8 12 13 9 10 16 6 13 20 19 17 11 15
19 21 22 25 25 24 23 21 21 22 24 25 25 26 25 20 6 2 7 10 9 4 8 11 11 8 5 7 20 6 10 23 16 24 18 10 16 6 17 28 36 36 23 15 23
21 22 23 26 28 27 26 25 23 23 23 23 24 25 25 11 29 20 20 26 18 10 11 13 15 16 6 5 10 7 5 21 22 26 27 28 17 18 27 30 25 29 22 20 24
21 21 24 26 28 31 30 29 26 25 22 22 22 22 19 8 17 8 11 12 7 7 13 13 9 15 6 9 9 5 13 21 23 26 26 15 17 10 30 25 27 28 25 22 24
22 23 24 27 30 32 32 32 31 28 24 22 20 21 20 43 25 26 26 27 23 24 19 18 15 16 2 5 14 9 6 8 7 10 9 16 8 10 32 27 24 26 26 29 30
24 25 27 30 32 34 35 34 31 27 23 21 19 17 15 23 26 26 22 29 26 24 22 19 16 16 11 12 6 4 2 3 4 8 8 9 22 7 20 17 20 27 31 38 36
23 24 27 30 33 34 33 30 26 22 20 16 14 12 16 11 10 9 14 11 16 18 18 22 16 12 8 3 3 4 7 5 5 5 4 8 8 5 17 16 19 23 30 34 31
23 25 27 30 32 35 31 28 17 13 13 9 8 8 14 6 7 11 12 5 5 10 9 14 11 5 2 5 14 9 6 5 8 5 6 11 16 8 23 14 17 23 28 30 28
21 24 25 28 30 29 27 26 13 5 22 13 23 22 35 25 27 21 11 14 11 7 6 5 4 15 17 12 11 9 7 8 0 5 4 8 12 10 11 21 13 24 24 27 25
20 22 24 26 26 23 14 12 13 16 19 32 35 42 49 43 29 49 32 12 5 7 4 3 16 7 9 10 8 8 14 14 5 5 5 14 24 18 7 8 19 20 22 22 17
19 19 22 24 19 15 21 6 18 22 10 22 31 27 24 18 29 49 25 13 7 6 8 12 8 13 15 10 13 11 16 5 12 4 7 7 21 17 10 11 18 21 28 22 15
16 17 18 21 10 18 16 17 17 15 4 9 6 12 11 11 12 31 35 25 8 21 12 12 15 15 7 16 10 16 8 11 9 4 6 7 12 7 6 12 8 18 27 22 18
16 18 20 18 18 19 19 22 15 4 5 6 5 6 6 11 14 6 19 24 27 9 9 16 8 15 21 22 13 10 9 10 9 6 3 13 5 4 1 6 12 15 22 21 16
17 19 20 18 18 15 10 18 10 2 9 7 5 13 9 12 17 5 6 13 12 6 6 17 1 6 7 9 17 4 4 2 1 3 8 8 8 6 5 7 5 9 21 26 16
17 18 20 19 20 19 14 10 1 6 11 7 10 22 22 15 12 7 4 7 6 6 10 7 11 2 1 3 3 5 6 2 2 3 7 9 8 12 7 9 4 15 25 29 16
18 19 19 19 10 5 4 1 4 7 10 20 23 27 8 17 11 15 4 4 5 4 3 8 8 12 5 16 5 7 8 5 7 4 3 4 6 5 6 2 5 25 33 21 13
18 18 16 13 4 4 3 1 4 5 3 12 20 10 5 15 9 10 6 9 4 7 4 5 5 4 5 15 16 12 6 15 6 1 1 4 5 7 3 5 7 16 26 35 12
16 19 8 9 4 7 2 6 5 7 14 17 16 8 14 15 12 15 7 11 8 6 5 4 4 5 3 5 9 13 6 5 3 10 14 4 4 5 4 6 3 8 20 30 29
12 8 5 12 4 3 2 5 5 12 17 8 13 17 15 9 7 11 4 5 14 10 5 7 1 4 2 4 7 3 6 5 6 5 9 6 5 5 7 3 1 13 21 25 35
3 2 4 5 3 3 3 4 4 10 14 13 6 8 9 14 6 7 5 4 4 7 2 4 1 3 6 4 1 2 8 13 5 5 3 4 5 8 4 4 8 9 7 25 33
0 5 4 2 2 2 6 5 13 13 6 5 5 6 17 13 3 7 9 9 5 1 4 3 3 3 5 2 4 4 5 2 4 3 5 6 3 3 9 9 12 6 0 12 26
1 2 2 2 2 2 3 5 5 13 13 7 7 7 8 4 2 4 5 7 15 4 1 5 4 4 2 9 1 4 4 5 5 4 1 4 6 6 6 6 8 11 9 2 18
4 2 2 2 3 3 3 4 9 9 6 8 5 11 4 4 4 4 4 6 7 7 1 3 5 7 17 11 4 3 8 5 6 4 4 5 6 3 5 8 10 10 12 6 11
5 3 2 5 8 3 3 3 7 14 4 5 8 14 8 3 3 3 2 1 2 6 1 3 4 4 15 9 4 4 5 3 2 2 3 10 9 5 8 17 17 19 12 13 13
11 10 6 5 2 1 3 2 8 13 9 8 13 9 7 4 9 18 18 10 5 2 5 3 4 3 6 10 10 1 2 4 6 6 5 8 5 9 11 12 10 13 16 15 9

GFSSW_850_spd_108.txt.gz
Wind_Speed
15 16 17 18 18 19 19 19 20 22 23 24 24 26 26 27 29 27 26 21 19 15 15 20 14 12 14 10 9 7 2 5 6 8 6 3 2 3 10 9 10 4 11 13 15
17 17 18 19 20 19 20 21 22 23 24 25 25 26 26 26 28 31 4 5 12 15 17 18 17 13 8 7 9 5 5 10 7 7 6 3 4 8 6 17 15 22 13 19 16
18 18 19 20 21 22 21 21 22 22 25 26 28 27 25 25 24 2 3 6 8 2 11 12 11 12 6 7 9 6 7 5 6 15 12 3 7 12 2 8 18 20 34 27 21
18 19 21 22 23 23 24 23 23 23 23 25 28 28 27 20 7 2 8 13 12 7 6 13 10 7 5 7 10 5 9 13 8 19 9 7 9 5 10 20 32 31 33 27 22
19 20 23 24 26 27 26 26 25 24 24 25 27 27 25 12 24 19 22 24 25 13 11 11 10 11 5 5 6 7 3 13 23 22 17 22 17 12 19 37 31 27 26 24 22
20 22 24 26 27 30 30 28 27 26 25 24 25 26 17 6 15 10 11 11 11 6 9 10 7 11 5 6 7 5 11 19 23 21 17 12 20 11 25 23 23 26 28 26 22
22 21 22 25 28 29 31 30 28 27 27 22 21 21 18 38 27 28 29 29 18 18 18 11 14 13 0 4 12 9 8 7 7 8 7 8 7 14 33 30 26 26 24 19 20
19 22 24 27 30 31 32 31 28 26 25 22 18 17 14 23 22 12 7 11 21 29 31 25 19 18 11 9 5 3 4 3 4 10 6 9 25 3 12 14 15 16 23 23 20
21 22 25 27 29 31 32 31 26 21 18 20 15 9 14 8 7 6 11 15 12 8 17 16 13 12 7 4 3 4 5 5 4 7 4 10 17 3 4 9 17 22 21 27 31
19 21 25 27 28 30 31 29 17 13 14 12 6 8 9 6 10 8 15 8 9 8 5 10 8 4 2 5 12 5 6 4 6 3 6 8 18 7 20 13 17 21 30 32 31
19 21 23 23 23 26 32 26 17 6 27 16 26 27 43 35 43 47 25 17 14 5 5 6 4 19 16 10 10 9 5 8 2 4 2 7 16 7 12 16 14 24 27 29 31
18 20 21 20 20 20 23 15 16 15 18 31 35 43 43 38 23 41 32 15 6 7 4 3 16 6 9 9 10 9 14 19 4 5 6 11 27 13 6 8 20 22 27 31 27
16 18 21 22 18 14 17 17 13 17 8 14 18 17 16 8 13 16 16 12 9 13 13 13 8 15 11 7 12 16 19 9 8 1 7 3 25 16 9 9 20 23 25 26 29
15 17 21 22 8 19 11 15 11 9 4 7 5 5 10 6 8 22 21 18 9 22 10 11 17 14 4 12 10 16 10 8 9 5 6 5 10 2 5 9 5 14 23 27 28
12 15 19 19 16 14 11 10 9 2 4 3 5 6 25 6 30 6 8 18 23 8 9 22 7 11 16 18 11 8 10 12 7 6 2 3 4 5 2 3 8 5 18 27 29
14 16 17 16 14 11 11 6 2 4 7 8 8 23 23 35 20 14 16 15 7 8 7 15 3 9 13 8 18 7 3 3 3 4 5 8 7 3 3 4 4 6 20 29 24
15 16 16 15 13 10 6 2 4 2 10 9 13 20 27 16 13 8 9 5 5 3 7 13 10 3 5 5 5 7 7 2 1 3 6 10 7 9 5 3 6 4 17 26 31
15 14 12 7 9 1 4 4 4 4 4 7 11 28 13 16 12 15 10 5 5 3 1 6 5 16 7 7 7 11 14 5 7 4 4 7 6 5 10 8 10 11 20 32 41
14 12 4 8 1 5 3 4 4 3 4 6 17 10 13 17 12 10 7 6 2 8 3 4 5 4 11 9 9 5 9 8 3 1 1 4 4 8 5 7 7 8 22 25 31
13 11 9 3 3 5 4 3 4 5 9 7 7 6 16 23 13 8 5 11 13 12 5 4 3 3 4 5 7 9 7 3 1 6 7 3 3 4 2 6 7 5 9 18 34
9 4 5 11 5 1 2 4 5 12 13 4 7 13 18 13 8 7 10 6 18 12 13 3 3 5 1 4 8 4 5 4 5 5 5 2 5 4 4 4 8 4 12 20 34
3 2 8 3 3 2 2 3 7 8 11 8 8 11 8 8 5 4 7 7 22 15 8 5 4 4 7 5 2 1 4 10 5 7 2 3 5 5 7 8 7 6 15 17 31
1 3 2 4 1 2 4 4 5 4 4 3 5 6 10 5 4 9 5 10 13 12 4 5 3 2 1 3 5 3 2 2 5 3 6 5 4 2 4 7 10 10 14 20 27
1 2 2 2 1 2 3 4 4 9 5 7 8 10 9 4 3 5 9 4 12 2 13 4 3 6 3 2 8 6 6 6 4 5 7 3 4 5 4 1 5 11 13 16 17
3 2 1 2 2 3 3 3 4 6 4 8 4 10 10 4 5 5 5 7 11 6 5 1 5 3 7 8 5 5 8 12 4 1 6 3 2 2 5 5 4 11 12 10 16
4 3 2 4 6 3 3 3 4 5 3 5 6 15 11 4 4 13 11 5 5 7 6 2 2 4 6 9 5 1 3 12 5 3 4 4 6 5 7 14 13 13 10 7 13
11 6 2 3 2 2 3 1 4 9 8 10 11 12 7 6 15 27 25 21 12 7 4 4 1 2 2 6 9 2 6 9 4 2 4 2 4 5 5 8 10 13 12 5 8

GFSSW_850_spd_111.txt.gz
Wind_Speed
11 12 13 14 15 16 16 18 20 21 21 23 23 23 23 24 25 26 27 17 17 14 14 16 13 15 16 10 9 6 4 8 10 10 6 4 4 5 1 2 6 4 3 11 14
13 14 15 16 16 16 17 18 20 21 22 23 24 24 24 24 25 26 1 6 6 10 17 16 18 15 9 9 8 6 7 12 6 8 6 4 4 2 3 6 6 10 7 18 17
13 15 16 17 18 18 18 19 20 20 21 23 26 25 24 24 21 0 2 2 8 9 4 10 11 16 8 7 9 6 13 6 5 12 8 7 9 5 6 8 12 11 22 21 21
15 17 18 19 21 21 21 21 21 21 22 24 25 25 23 19 5 2 6 13 15 11 6 9 9 6 5 8 10 7 8 15 11 11 7 6 6 10 13 18 27 23 22 23 20
17 19 20 22 23 23 24 24 24 23 23 23 25 24 21 12 17 14 18 17 20 18 12 12 14 11 6 5 7 8 5 9 16 20 15 17 21 21 12 23 28 26 23 20 21
18 20 21 24 24 26 26 26 25 25 26 24 23 23 16 5 12 11 12 14 10 9 8 13 6 9 5 6 11 6 7 15 14 17 12 16 24 14 16 26 25 24 25 23 23
18 19 22 23 24 27 28 27 27 27 25 24 22 20 17 25 18 19 18 17 17 21 19 13 10 6 2 4 8 6 12 11 11 9 9 6 20 16 26 29 25 26 26 25 20
17 20 22 23 25 28 28 27 28 27 24 22 19 17 11 18 15 6 4 6 8 9 19 26 25 16 9 9 5 5 5 6 1 11 8 12 26 6 11 11 16 16 13 16 22
18 20 21 23 26 29 30 30 28 24 19 19 14 12 11 7 7 8 9 16 17 12 9 6 11 10 7 8 9 6 14 10 5 8 5 16 18 4 4 3 7 12 17 20 22
18 19 20 22 25 30 30 30 22 17 11 13 10 11 2 14 31 32 22 27 19 16 3 8 6 6 6 10 16 10 11 9 15 6 10 15 19 13 16 13 13 16 18 24 30
17 18 19 21 25 27 32 29 16 4 25 10 24 18 33 33 34 18 24 18 18 13 6 6 7 19 18 20 19 13 11 14 6 2 6 13 21 18 15 15 13 20 23 26 32
15 17 18 21 20 22 26 17 11 11 15 23 23 19 20 20 9 21 17 6 6 13 10 5 19 12 11 15 15 17 20 25 14 12 11 19 28 20 17 19 26 26 26 26 29
15 17 18 20 15 21 20 16 9 10 6 14 12 9 18 19 7 12 19 11 9 17 16 18 28 17 11 10 17 20 23 18 17 8 10 10 29 20 18 23 25 22 26 22 19
13 16 19 18 8 18 13 9 7 7 4 6 7 5 22 30 6 27 19 7 4 7 13 17 27 14 9 19 15 19 11 17 15 9 11 6 12 3 9 12 9 12 6 8 13
12 15 17 16 10 12 11 7 5 4 5 12 6 9 30 26 21 13 20 13 19 16 6 12 5 18 23 19 15 9 10 15 16 15 10 16 8 2 4 5 1 5 6 10 12
12 13 13 12 10 9 8 2 2 2 5 7 10 18 17 22 20 14 15 21 17 11 14 24 19 10 19 13 20 6 6 5 3 6 8 13 12 4 9 7 7 4 7 10 17
10 11 11 10 8 6 4 4 2 2 6 8 10 13 20 8 11 15 21 15 9 6 11 11 22 16 9 12 13 17 12 6 7 6 9 6 11 11 7 5 8 8 8 12 18
9 8 7 8 6 5 3 4 4 0 5 7 8 22 6 10 15 17 14 15 16 17 12 9 8 21 16 18 12 19 17 8 9 7 7 9 9 6 12 11 11 7 9 15 21
7 4 6 6 6 6 2 4 3 3 4 9 16 8 8 8 11 10 9 6 7 11 6 4 6 4 10 12 16 9 17 16 2 1 3 6 6 8 8 14 8 6 13 19 21
7 9 9 4 6 3 3 1 2 4 6 4 5 3 12 13 13 12 6 7 11 8 11 3 6 6 0 15 12 10 17 9 6 9 7 4 3 4 12 13 10 8 13 15 18
5 5 6 9 4 4 2 2 4 10 9 3 5 8 9 12 8 5 5 11 9 15 11 7 3 2 5 7 19 12 11 7 9 5 10 9 5 4 1 14 10 11 14 16 20
4 2 7 5 4 3 1 3 4 7 5 7 6 9 10 14 7 5 5 6 21 13 14 4 4 6 12 4 1 11 21 11 11 13 7 5 5 3 6 10 10 12 14 17 23
3 3 4 3 2 1 3 3 5 2 4 3 3 2 10 8 7 8 8 14 13 14 9 7 3 5 5 3 5 6 4 5 15 0 14 9 5 3 7 9 11 15 12 12 20
3 2 1 6 3 2 1 3 3 7 5 3 4 5 11 9 8 10 11 9 27 19 14 1 4 8 2 3 1 1 3 6 5 12 16 8 7 10 8 8 9 14 12 11 14
3 1 2 1 2 1 1 3 4 4 3 3 2 8 10 6 13 4 13 19 13 9 12 1 2 6 14 7 1 3 2 3 2 3 13 17 13 12 11 6 10 13 12 13 11
5 4 3 2 3 2 2 2 2 3 3 4 4 13 13 9 12 19 17 16 10 9 12 8 3 3 3 13 6 1 0 5 3 2 4 6 4 3 4 12 11 13 14 15 11
9 6 3 2 2 2 3 2 1 7 6 10 10 15 11 11 18 32 30 29 19 16 9 6 7 9 5 6 7 5 2 1 2 4 3 5 4 7 11 12 11 14 14 14 11

GFSSW_850_spd_114.txt.gz
Wind_Speed
9 10 10 11 12 13 14 15 16 17 18 20 20 20 21 22 23 23 18 8 12 14 15 11 10 10 14 15 13 10 11 16 18 18 13 4 10 9 6 7 5 3 4 1 5
9 10 11 13 13 14 15 16 17 17 18 20 22 22 22 23 23 11 1 4 10 7 9 10 13 13 13 15 11 14 15 22 17 14 11 6 11 6 9 14 11 8 7 5 6
10 11 12 13 13 14 15 17 17 18 19 20 20 21 21 21 15 1 3 6 9 10 4 7 9 13 18 16 19 15 23 17 14 17 19 17 16 15 13 16 16 15 8 10 10
10 12 13 14 15 16 17 17 17 18 18 19 20 21 19 17 8 5 9 12 17 16 10 5 7 14 13 20 22 17 20 21 21 21 17 18 21 17 19 21 18 15 17 16 16
10 12 14 15 16 18 18 19 20 21 20 21 21 20 17 7 7 11 12 11 9 9 7 11 14 14 16 12 21 20 19 22 20 23 24 21 23 23 27 20 25 21 21 20 19
12 14 15 16 18 20 21 21 22 22 21 20 20 20 11 8 12 10 13 15 16 14 10 11 14 17 17 16 17 15 16 19 21 22 24 23 26 27 22 18 27 24 24 24 21
12 13 15 17 18 20 22 23 23 23 22 21 20 16 12 8 10 13 11 11 9 11 15 15 12 12 6 13 17 17 18 19 20 22 20 18 25 27 27 28 32 32 27 24 23
12 13 16 18 20 22 23 24 24 22 21 19 16 11 4 8 7 10 11 9 9 10 11 14 18 16 17 15 17 13 17 17 13 11 21 20 25 3 3 12 16 19 22 20 20
11 13 16 20 22 24 24 26 21 18 16 16 10 13 3 7 21 23 22 22 22 11 14 9 9 17 16 15 16 17 19 21 15 10 13 18 19 15 7 15 19 17 17 16 17
11 14 17 20 22 25 26 24 17 14 16 13 10 9 5 21 24 20 19 16 14 18 14 6 8 11 16 15 20 16 20 18 22 17 17 22 23 17 17 13 14 15 17 19 21
12 14 16 18 20 25 28 16 9 2 19 5 11 4 9 19 13 15 21 22 12 14 16 15 10 21 21 23 26 22 24 22 18 7 13 17 21 20 19 24 21 24 27 26 25
12 13 14 17 17 22 21 11 10 6 7 5 5 3 7 14 20 13 23 13 16 14 15 15 24 29 19 21 22 24 26 28 21 17 14 21 28 25 23 22 26 26 28 30 31
11 11 14 16 11 18 17 14 9 6 3 5 4 4 6 21 20 11 29 21 16 15 11 19 37 12 23 18 21 24 25 20 21 16 17 20 31 25 26 30 31 31 33 30 25
9 12 14 15 8 12 7 8 6 5 2 7 6 3 13 21 4 16 19 19 16 17 16 17 19 21 24 25 23 23 20 19 18 13 16 14 22 15 4 8 11 17 15 14 13
8 11 12 11 6 5 6 5 3 2 5 6 4 6 20 17 17 4 21 18 21 22 21 33 23 11 18 34 19 25 17 15 15 15 16 21 11 11 11 13 11 8 7 7 6
6 9 9 8 6 4 4 2 1 4 0 4 8 16 21 16 13 14 23 19 17 22 25 32 33 25 24 19 24 18 12 11 10 10 14 20 16 11 12 10 7 5 6 1 3
5 6 7 6 1 3 3 1 4 2 3 5 8 13 18 15 12 16 16 16 11 13 16 26 28 28 27 25 21 25 18 10 10 10 17 9 13 18 4 6 7 7 5 3 5
3 5 5 6 5 4 3 1 1 2 4 8 9 17 6 12 12 15 15 9 13 16 15 16 21 22 19 28 26 23 25 12 19 13 14 12 10 9 13 14 10 10 5 4 6
3 5 6 6 6 5 1 1 2 2 2 7 14 8 10 13 11 10 14 4 4 6 7 11 11 22 18 25 25 26 22 28 18 13 8 12 16 8 7 15 14 10 6 5 7
8 8 5 6 5 4 1 3 1 2 4 3 5 3 14 15 12 15 8 5 10 8 4 5 14 15 8 14 22 24 23 21 14 19 20 18 18 8 14 17 16 10 7 6 9
10 5 6 6 4 2 1 3 2 1 2 2 5 9 12 12 13 17 6 15 8 24 20 10 7 8 7 10 19 17 16 19 20 16 15 14 12 8 14 17 15 10 8 8 10
5 3 7 5 2 2 3 2 3 2 1 4 6 9 11 13 16 14 8 14 21 23 25 3 6 8 14 4 5 22 21 24 14 23 16 12 7 5 8 16 13 12 12 11 12
5 5 5 1 3 4 3 3 4 3 1 2 4 3 10 14 9 8 15 22 18 24 11 11 6 12 6 6 7 4 18 19 21 15 19 16 10 7 10 13 15 16 14 12 12
4 3 4 3 3 2 2 4 2 3 6 5 8 8 12 13 10 13 20 12 23 24 16 14 6 6 8 16 2 6 2 9 19 15 16 15 15 10 11 14 14 15 14 13 11
3 3 4 5 6 6 4 3 4 2 2 6 5 5 11 7 19 10 20 24 18 11 11 14 9 12 15 19 11 2 12 10 10 20 17 16 15 12 14 12 14 14 13 11 10
5 4 4 6 7 10 5 4 5 3 3 5 9 9 14 15 15 20 23 21 13 13 16 13 8 16 18 9 12 3 4 3 12 14 16 12 19 11 12 10 13 13 13 10 10
7 7 4 7 7 6 6 6 3 2 5 10 8 14 15 16 21 32 33 34 24 21 18 9 7 11 7 14 5 4 9 2 3 3 4 10 3 5 12 12 12 12 11 10 10

GFSSW_850_spd_117.txt.gz
Wind_Speed
7 8 9 10 11 12 12 12 14 14 15 16 17 17 18 19 18 13 6 4 6 10 10 7 8 15 17 23 25 18 15 19 22 21 20 16 7 17 14 18 9 17 14 4 6
5 7 8 9 11 11 11 11 12 14 15 16 17 17 17 20 19 2 3 1 5 11 6 6 10 12 20 20 26 19 16 26 19 17 16 14 8 18 13 18 17 14 13 9 7
6 7 8 9 9 10 10 12 14 14 15 16 16 15 15 17 7 3 3 7 10 9 6 7 10 14 21 26 24 25 25 23 21 23 20 15 21 19 18 17 23 24 21 18 15
5 6 7 7 9 10 11 12 13 14 15 15 15 14 14 9 7 4 11 12 15 12 9 10 10 14 18 21 29 25 30 27 25 30 23 20 24 24 24 22 24 18 19 12 17
4 5 6 8 10 11 13 14 16 16 16 16 16 15 11 6 5 9 10 13 9 10 9 10 15 18 18 20 23 28 25 31 29 27 27 29 27 24 28 25 24 25 26 22 24
3 5 6 8 11 13 15 16 17 17 17 16 15 14 7 6 7 12 11 11 9 11 15 14 15 18 24 27 22 26 28 26 28 32 30 25 27 28 32 29 31 33 30 28 29
3 5 7 9 12 14 16 18 18 17 16 15 12 7 3 3 8 9 11 11 8 12 13 12 16 17 15 19 24 26 25 23 25 25 24 24 28 29 31 32 35 32 31 32 32
3 5 8 10 13 15 18 19 17 17 15 12 9 3 2 1 7 14 16 19 13 17 13 12 10 18 21 22 26 23 22 22 21 25 27 27 34 24 19 20 38 34 35 34 32
3 5 8 11 14 16 19 19 16 14 14 11 8 5 6 4 17 17 17 19 21 17 13 10 11 15 16 17 17 20 22 26 26 21 18 16 27 22 29 29 17 21 21 24 25
3 5 8 12 15 18 18 15 14 5 17 7 4 6 5 11 18 14 16 20 15 14 13 19 12 14 17 15 19 20 20 21 22 19 20 22 25 22 25 19 18 22 24 22 24
2 5 9 13 15 18 18 12 8 2 9 4 5 2 6 14 7 15 16 22 12 14 11 12 17 26 22 22 27 20 25 27 26 20 20 21 22 19 22 28 25 27 27 23 22
2 5 10 11 12 16 14 6 4 3 3 4 3 2 5 13 16 19 12 17 20 17 17 14 25 25 24 26 29 25 27 30 28 26 21 24 23 22 22 25 27 27 28 27 27
2 6 9 10 7 13 13 6 4 4 6 3 2 3 6 16 14 13 17 18 17 19 20 21 31 23 25 26 29 30 27 28 26 24 19 23 28 25 27 30 35 36 34 30 29
2 6 7 8 7 6 3 5 4 2 5 3 1 2 8 17 4 15 10 16 16 21 21 22 27 26 26 29 28 26 27 26 23 20 18 21 22 22 24 25 23 28 34 33 29
2 5 5 5 2 2 5 4 2 2 4 3 2 2 14 12 14 11 16 20 18 21 17 28 29 29 30 26 20 31 25 25 22 18 20 25 18 15 15 19 17 14 16 17 9
2 3 3 6 3 3 4 2 0 5 2 3 3 10 14 13 15 12 18 9 13 17 20 23 31 25 30 33 31 26 23 26 20 16 17 25 22 19 17 12 11 4 2 7 7
1 2 3 1 3 3 1 1 6 4 2 3 7 10 14 11 14 13 17 15 9 15 23 31 22 21 33 30 29 28 22 17 16 15 20 23 21 19 13 11 11 15 12 10 8
2 2 2 1 2 1 2 2 4 4 2 7 7 12 7 9 11 16 16 16 11 14 18 18 29 22 26 29 28 28 26 17 24 16 21 22 19 18 17 16 10 11 13 10 6
5 2 1 4 4 2 4 3 2 1 3 5 11 5 5 12 12 14 18 9 7 9 8 18 21 40 30 20 23 26 25 27 26 20 14 13 18 19 15 13 14 13 13 9 7
3 3 4 5 4 2 3 2 2 1 2 3 4 2 11 13 12 15 13 8 16 9 16 12 29 21 22 19 23 23 21 23 18 23 23 17 18 16 19 14 21 15 10 9 8
8 5 4 4 2 2 3 4 2 2 3 4 5 9 11 12 13 16 7 15 12 21 17 20 7 22 13 7 12 13 19 21 18 19 18 15 15 16 14 18 19 16 13 9 8
5 3 5 1 5 3 3 3 1 4 4 4 5 10 9 10 15 18 15 11 23 21 22 5 8 14 31 14 16 21 21 23 11 21 18 16 14 12 12 14 15 14 13 12 12
5 3 3 1 3 5 4 5 4 6 4 3 5 5 9 12 14 12 17 20 14 21 14 10 7 13 20 8 18 12 16 19 19 17 21 16 15 5 3 13 12 18 17 13 13
5 3 4 4 5 6 4 6 6 6 7 9 9 9 9 11 14 12 21 13 23 21 12 12 11 17 15 19 14 16 23 15 16 15 19 18 18 7 13 14 16 20 14 13 13
3 4 5 4 7 8 7 5 8 5 7 7 9 11 8 11 17 17 20 22 22 4 10 14 17 17 21 24 19 18 13 13 12 15 17 18 19 14 15 15 15 17 15 12 12
5 4 5 3 7 9 6 6 9 7 6 10 10 12 9 14 17 21 22 20 24 14 17 15 12 18 22 13 17 19 8 13 15 18 19 15 21 17 7 25 21 21 15 15 12
8 5 6 7 9 8 8 8 6 5 8 12 10 10 13 16 21 27 31 35 27 22 19 9 10 15 15 16 19 6 12 5 7 10 13 16 12 16 10 8 9 13 15 15 12

GFSSW_850_spd_120.txt.gz
Wind_Speed
7 6 6 7 8 8 9 10 11 12 12 12 13 14 15 17 17 4 2 4 2 10 10 6 8 12 15 18 21 22 15 18 24 24 22 25 22 10 7 16 25 7 10 7 9
6 7 7 6 5 6 7 8 9 10 11 12 12 13 14 17 9 4 0 2 6 9 8 8 10 11 16 19 20 18 16 25 20 23 22 25 23 10 8 21 20 13 14 10 8
6 6 5 4 4 5 6 7 8 10 12 13 12 12 13 17 5 2 5 9 12 13 10 12 12 12 18 20 23 24 24 21 26 34 33 27 27 18 14 15 15 23 16 18 14
7 6 5 3 4 5 6 8 9 10 12 12 13 13 12 8 3 6 13 11 9 11 9 11 12 17 15 16 22 23 31 29 30 33 32 24 31 22 22 25 24 22 19 26 28
7 6 4 2 4 5 7 9 11 12 13 13 12 11 8 5 4 10 15 15 14 10 13 13 15 17 17 19 21 22 24 32 34 32 33 34 27 25 29 25 27 24 28 23 15
6 5 4 3 4 6 8 10 11 11 11 11 10 8 5 6 6 9 10 9 7 7 10 10 14 19 20 22 20 26 30 30 31 31 29 26 25 27 35 31 31 30 29 29 26
6 5 4 4 5 7 9 10 11 10 9 7 7 5 3 1 4 11 12 12 12 11 14 12 12 11 14 20 19 25 22 23 24 25 26 30 25 27 33 33 34 34 35 34 35
6 4 4 5 6 8 10 11 10 10 7 8 6 6 1 1 4 16 12 14 14 17 18 20 16 16 19 17 23 22 23 20 19 22 26 25 30 24 33 32 36 36 36 37 36
7 4 4 5 6 8 10 9 9 4 12 4 8 5 4 6 13 15 11 15 19 14 13 11 13 21 17 13 15 18 19 24 28 22 26 24 34 24 32 28 30 35 29 39 36
7 4 4 5 7 9 9 8 6 4 12 5 2 4 4 6 15 11 13 17 18 16 17 8 13 15 11 11 17 18 17 21 21 20 25 22 27 22 18 29 24 27 22 20 26
6 4 3 4 6 10 8 10 6 1 3 3 4 2 3 8 11 12 13 17 13 15 13 15 15 14 19 21 26 23 24 28 27 25 22 24 23 23 19 23 23 26 19 25 24
7 4 2 4 5 9 11 5 4 3 2 3 2 1 3 9 14 7 16 10 17 13 16 15 19 19 21 25 26 27 28 29 28 23 20 21 24 26 25 18 22 23 25 28 29
6 3 1 3 6 10 10 7 4 3 5 5 2 2 1 9 11 9 7 12 11 15 17 17 23 23 22 26 28 26 24 29 28 25 18 18 23 26 28 31 30 32 34 35 26
6 3 1 3 5 6 2 6 5 3 4 10 6 5 3 12 10 12 5 14 14 17 17 12 16 24 23 26 25 28 28 30 27 22 17 17 18 20 21 24 26 32 38 39 34
6 3 2 3 5 2 3 5 4 5 3 5 7 1 7 8 7 9 10 14 19 15 12 21 24 25 25 28 29 30 29 25 24 25 20 23 14 20 20 24 26 25 38 40 42
6 3 5 6 6 1 4 2 4 3 5 7 3 3 7 9 8 12 13 15 19 12 17 21 31 29 25 19 21 25 28 28 25 17 18 20 19 15 17 23 23 14 19 23 14
5 4 2 5 2 5 1 0 3 6 5 7 1 5 10 6 9 8 15 13 10 8 16 25 21 24 8 28 28 23 22 15 17 15 14 22 19 15 16 23 26 10 16 15 12
5 4 2 1 2 2 2 3 5 4 2 5 3 9 10 6 8 13 15 15 12 14 16 16 27 19 26 31 20 25 19 15 22 15 16 21 21 19 25 25 22 13 18 16 15
5 2 3 10 2 1 2 5 3 1 3 3 9 7 3 7 9 12 14 8 6 13 9 16 28 30 24 21 21 10 15 19 21 23 14 14 17 23 24 19 20 15 22 15 15
7 2 5 8 3 2 5 7 1 2 1 3 3 0 5 9 10 11 10 7 14 13 17 17 26 19 24 23 16 13 16 13 13 21 20 17 20 12 19 17 12 16 15 18 18
6 4 5 5 5 4 4 2 3 5 3 3 4 5 8 10 9 12 11 13 8 15 15 16 6 23 21 14 14 12 10 16 15 16 14 13 13 16 6 19 17 17 22 20 28
2 2 3 8 4 7 7 4 2 7 5 4 3 5 7 8 12 13 13 14 17 20 18 8 7 14 29 12 9 15 14 17 9 20 13 14 17 19 13 6 14 16 23 27 24
4 6 2 5 3 7 3 3 5 5 6 3 4 3 4 10 10 12 16 16 10 14 13 8 5 14 22 7 19 24 22 22 20 17 16 12 16 14 8 11 13 18 19 14 29
3 1 4 6 9 8 6 7 8 6 6 6 7 8 9 10 10 13 16 15 17 20 6 7 6 13 14 19 20 21 26 26 16 8 11 13 18 16 1 10 12 22 26 7 29
0 3 6 3 5 10 8 5 9 6 8 5 4 10 12 10 13 15 17 19 21 18 18 12 17 19 20 23 24 17 20 16 13 11 6 15 15 8 11 16 14 18 21 21 21
4 3 3 10 6 9 4 9 10 9 6 6 10 10 10 13 12 17 19 17 18 21 18 18 13 20 21 23 18 26 13 16 12 13 14 15 15 18 15 12 7 15 16 26 24
4 3 5 5 7 8 8 10 6 7 4 8 9 10 12 13 19 23 26 29 25 21 20 18 9 15 19 18 23 7 11 9 6 5 12 12 11 15 14 16 14 35 33 29 26

GFSSW_850_spd_123.txt.gz
Wind_Speed
9 8 7 7 8 8 8 9 9 9 9 10 11 13 14 14 10 2 4 4 3 7 10 9 5 5 8 11 15 18 5 13 8 13 16 29 18 27 17 6 10 10 6 19 29
9 8 7 7 7 7 7 8 8 9 10 9 10 11 13 13 3 8 3 5 10 13 10 7 11 11 13 12 10 5 6 4 7 12 16 26 19 23 22 13 10 12 18 21 21
9 8 7 6 6 6 6 6 7 8 8 8 9 9 11 12 5 1 9 13 12 10 10 10 11 14 16 16 17 16 14 10 20 28 33 28 27 28 15 10 12 13 8 20 18
10 9 6 6 6 5 6 7 8 9 9 9 10 10 9 5 4 10 15 15 13 13 12 16 15 14 6 6 20 11 19 20 23 28 27 21 30 25 22 24 34 25 21 19 23
11 9 6 6 6 6 6 7 7 9 9 10 10 9 4 2 5 9 9 4 6 9 12 13 15 18 7 11 18 9 8 21 26 29 28 29 25 24 31 35 33 36 30 26 20
11 10 7 6 6 6 7 8 8 8 8 10 9 6 1 2 4 6 8 10 5 4 8 11 13 17 15 12 9 15 24 24 29 27 27 18 20 22 35 29 29 33 37 37 30
12 10 7 6 6 6 7 8 8 7 7 7 7 4 5 3 2 10 6 9 9 14 17 14 14 16 15 10 14 16 12 15 18 18 16 27 21 20 33 30 29 34 36 41 38
13 11 9 7 6 7 8 8 6 5 4 3 2 3 3 1 6 13 7 8 9 12 14 16 13 16 15 18 18 8 7 7 11 10 22 16 24 22 32 31 36 36 35 38 45
14 11 10 7 6 7 8 6 3 1 5 2 6 5 2 1 11 9 7 13 18 14 13 20 8 7 11 6 8 5 8 9 21 15 16 14 25 14 30 37 34 36 36 38 41
15 12 10 7 6 6 6 5 1 2 4 3 4 5 3 3 7 10 9 7 18 17 17 13 5 2 3 1 10 8 8 13 17 18 13 16 20 15 28 21 33 37 32 34 38
15 12 10 7 5 4 3 2 2 2 2 2 0 3 3 4 5 3 12 11 17 15 6 13 6 7 14 10 17 17 18 22 24 23 19 22 23 22 19 24 19 28 29 28 32
15 12 9 5 3 1 2 3 4 1 4 3 2 4 1 5 5 6 13 9 10 7 11 6 6 8 19 17 16 17 20 23 25 19 16 19 22 23 16 23 26 26 30 28 29
15 11 7 4 3 2 7 5 2 1 2 7 7 5 4 3 4 4 7 7 8 6 9 6 11 12 16 18 20 22 20 18 24 26 23 21 25 21 19 19 27 36 35 33 32
14 11 7 7 5 5 6 5 6 2 2 8 5 6 3 7 1 5 4 9 2 8 9 3 7 13 15 19 19 24 17 21 23 22 17 17 18 19 15 18 20 27 34 33 31
14 11 6 6 7 4 6 7 5 2 1 9 6 5 1 2 2 4 10 6 8 13 4 5 13 16 17 15 19 15 19 22 22 19 20 22 11 24 11 18 20 22 29 36 38
14 11 10 9 5 6 4 3 3 3 4 2 6 5 2 7 3 1 9 14 16 3 9 11 15 14 16 18 16 21 16 19 18 13 16 17 15 22 15 19 18 23 25 34 43
14 12 12 11 6 6 3 4 3 3 5 6 3 4 3 6 2 3 4 6 4 6 7 15 6 15 15 22 23 11 10 6 6 7 14 12 16 15 11 13 19 12 15 2 13
12 11 12 11 8 6 6 2 2 5 5 4 2 3 4 2 2 5 6 4 4 5 5 8 20 8 16 19 16 22 13 10 7 4 12 13 17 16 14 22 31 23 9 8 33
11 8 6 4 4 11 3 2 3 3 4 3 3 4 2 6 4 6 6 1 2 2 3 6 12 18 14 16 10 8 6 14 12 13 10 8 21 17 23 24 18 14 23 20 21
14 9 9 4 5 9 2 3 3 5 5 3 1 3 2 5 4 6 3 3 5 4 2 5 19 10 11 20 4 13 11 5 2 4 5 9 16 15 13 17 23 13 11 28 32
13 5 7 4 8 3 3 4 6 9 4 1 2 3 4 4 2 3 4 8 5 5 9 4 2 16 9 6 20 10 8 6 5 7 3 5 9 3 8 18 17 20 25 28 29
5 2 3 9 3 4 3 3 3 11 5 1 1 1 4 3 2 4 4 4 4 3 6 0 4 8 23 22 11 3 13 6 5 4 7 5 12 4 10 11 13 12 25 29 35
4 5 3 9 3 2 4 4 2 2 5 5 4 4 3 2 4 3 6 14 20 6 1 3 4 7 15 3 1 16 21 18 13 7 6 7 8 14 14 14 21 14 29 33 33
2 3 3 4 3 2 2 4 5 2 4 4 1 6 4 5 6 5 9 5 20 16 6 1 4 2 8 16 18 23 28 24 12 5 6 13 12 19 14 12 15 28 36 24 28
2 1 5 2 2 3 3 2 4 4 5 1 2 7 6 4 5 6 8 10 17 19 11 4 3 11 16 19 22 23 18 20 19 15 8 9 9 13 10 13 13 19 26 6 31
3 2 3 1 3 6 3 2 6 5 6 4 3 6 6 4 4 6 8 7 5 10 3 7 5 11 21 17 19 19 9 18 14 19 13 15 4 12 11 16 20 26 34 37 17
4 4 3 2 2 4 4 4 4 2 7 6 5 5 6 6 16 18 21 21 17 16 21 5 4 6 16 16 20 2 10 16 5 20 17 15 15 2 11 12 15 22 33 22 21

GFSSW_850_spd_126.txt.gz
Wind_Speed
10 9 9 8 8 8 8 7 7 7 8 8 8 10 10 10 5 3 4 6 7 10 10 6 5 4 5 7 11 7 1 2 5 5 8 25 18 17 24 22 32 21 12 12 37
10 9 9 9 8 7 8 8 8 9 9 10 10 11 10 9 2 6 3 9 11 10 9 6 8 12 3 8 4 6 4 6 7 6 14 21 29 24 22 27 32 28 5 17 39
11 9 9 9 9 8 8 9 9 10 10 10 10 11 10 7 5 3 8 5 4 5 5 10 11 12 5 4 9 5 8 9 15 25 29 25 27 32 15 16 23 16 24 15 30
12 10 10 10 9 9 9 9 9 11 11 11 11 10 8 2 4 4 4 4 3 4 4 8 9 7 3 4 8 6 14 15 15 26 24 11 26 27 20 28 29 33 24 23 21
14 11 10 11 10 10 10 10 10 12 12 11 11 9 3 3 3 3 7 7 4 2 4 9 10 9 3 7 14 4 5 16 24 26 25 28 18 16 34 28 15 28 23 24 24
15 12 11 11 11 11 11 11 11 12 13 12 10 7 3 5 6 6 11 8 3 4 4 6 7 10 8 4 3 10 18 22 22 27 24 11 20 17 38 37 22 28 36 28 29
17 14 13 12 12 12 12 12 12 13 12 12 10 7 5 6 7 7 10 5 6 8 11 5 7 6 7 7 8 15 10 15 16 14 10 13 19 13 38 36 33 27 36 40 34
18 15 13 13 13 13 11 11 11 13 10 8 4 3 4 3 4 5 3 5 12 9 7 6 6 6 5 7 6 5 4 6 2 6 10 1 19 21 32 30 32 35 29 41 43
17 16 14 14 13 14 13 13 13 10 7 5 3 1 3 3 1 5 8 8 12 8 6 9 9 3 4 4 4 4 6 8 21 2 9 3 16 18 32 29 28 33 37 35 43
17 15 16 14 14 14 12 12 10 10 7 3 5 3 3 2 3 5 7 10 10 7 4 14 4 3 4 6 5 10 12 12 16 11 9 21 21 25 31 29 30 30 29 30 31
21 18 19 15 12 12 10 6 4 5 8 4 3 3 3 4 2 3 11 5 9 10 4 6 5 2 4 4 6 6 10 18 23 17 13 15 23 24 26 29 27 31 30 37 34
25 22 19 13 10 6 6 4 5 3 3 6 5 6 3 2 3 3 11 6 5 3 4 6 1 3 6 8 11 14 17 21 26 19 17 18 24 26 26 27 36 33 31 34 34
25 23 18 12 9 6 1 4 2 3 2 4 8 5 4 3 3 2 3 2 2 4 4 2 5 7 12 11 13 14 13 16 19 25 23 21 27 21 22 25 36 39 40 39 35
27 22 15 11 7 8 7 1 2 6 3 3 5 5 5 4 3 1 1 3 2 4 4 2 9 11 12 12 8 19 9 14 21 18 16 11 24 27 24 25 24 33 35 33 32
25 21 17 16 10 12 6 2 3 4 2 7 5 8 5 3 3 2 9 2 3 5 4 3 8 13 11 6 11 13 15 20 19 20 19 29 13 25 15 22 22 20 34 33 38
25 21 19 16 14 11 5 4 7 2 5 6 7 5 1 1 4 4 7 11 5 4 4 1 11 2 4 13 11 16 11 23 23 10 9 30 16 22 19 20 19 19 31 29 31
25 22 19 17 13 11 8 7 2 3 8 7 5 5 2 2 3 3 4 6 3 6 5 9 3 3 7 21 10 10 14 6 5 1 12 14 15 21 15 13 19 19 23 28 30
24 21 21 19 14 9 11 2 3 5 4 3 5 5 4 5 3 3 3 3 2 3 3 5 5 4 7 11 8 14 4 5 7 9 18 18 10 10 10 10 20 26 30 21 10
21 20 18 14 12 13 5 2 5 2 4 6 4 4 5 4 5 5 3 5 3 3 3 4 4 12 11 5 3 3 4 14 10 11 9 4 8 11 8 13 11 11 22 11 23
23 18 13 9 13 13 3 4 2 4 5 2 3 3 4 3 4 4 1 3 2 1 6 4 14 5 4 15 4 4 9 7 6 7 6 5 7 5 13 14 15 21 13 14 17
23 11 13 8 15 6 3 4 3 8 5 3 2 3 4 3 5 3 4 4 1 1 2 1 4 10 5 1 13 7 5 4 7 6 7 6 4 18 22 18 19 22 9 30 7
14 3 13 15 5 3 3 4 11 5 6 4 3 3 3 4 3 2 4 3 4 3 2 4 3 4 19 22 10 1 11 10 4 9 5 5 5 10 12 16 19 23 28 19 24
12 8 10 15 4 2 3 4 4 6 4 3 3 1 3 3 2 5 2 4 13 4 3 2 3 6 11 5 4 9 17 17 14 13 11 8 6 10 13 12 15 21 31 16 20
8 3 4 6 2 3 3 3 4 5 4 5 4 5 4 1 2 3 0 2 10 5 3 2 3 7 6 12 12 14 22 22 9 12 4 7 12 15 16 17 14 11 15 19 16
4 3 7 3 2 4 1 1 7 4 4 5 2 3 3 3 1 2 3 3 8 4 3 2 2 5 14 16 16 19 15 19 11 20 8 16 11 13 12 11 9 16 16 25 26
6 4 5 6 12 5 2 3 3 5 6 4 5 5 6 3 3 2 1 2 5 3 1 1 4 6 14 14 10 14 11 15 10 17 21 20 9 19 12 13 19 18 22 28 25
8 8 6 3 4 5 4 3 4 5 7 10 8 5 4 2 2 6 10 13 12 6 2 2 3 2 7 8 16 2 13 15 8 17 14 12 13 22 3 9 13 14 21 20 20